Time,TemperatureF,DewpointF,PressureIn,WindDirection,WindDirectionDegrees,WindSpeedMPH,WindSpeedGustMPH,Humidity,HourlyPrecipIn,Conditions,Clouds,dailyrainin,SoftwareType,DateUTC
2013-10-03 00:00:00,44.8,40.2,28.61,NNW,338,5.4,5.4,84,0.00,,---,0.00,VWS V14.01,2013-10-03 07:00:00,
2013-10-03 00:01:00,44.8,40.2,28.61,NNE,22,4.9,5.4,84,0.00,,---,0.00,VWS V14.01,2013-10-03 07:01:00,
2013-10-03 00:02:00,44.8,40.2,28.61,NE,45,6.5,6.5,84,0.00,,---,0.00,VWS V14.01,2013-10-03 07:02:00,
2013-10-03 00:03:00,44.8,40.2,28.61,NNE,22,2.0,3.8,84,0.00,,---,0.00,VWS V14.01,2013-10-03 07:03:00,
2013-10-03 00:04:00,44.8,40.2,28.61,ENE,68,5.4,5.8,84,0.00,,---,0.00,VWS V14.01,2013-10-03 07:04:00,
2013-10-03 00:05:00,44.8,40.2,28.61,ENE,68,2.2,5.4,84,0.00,,---,0.00,VWS V14.01,2013-10-03 07:05:00,
2013-10-03 00:06:00,44.6,40.1,28.61,SSE,158,3.1,3.1,84,0.00,,---,0.00,VWS V14.01,2013-10-03 07:06:00,
2013-10-03 00:07:00,44.6,40.1,28.61,South,180,3.6,7.4,84,0.00,,---,0.00,VWS V14.01,2013-10-03 07:07:00,
2013-10-03 00:08:00,44.6,40.1,28.61,NNW,338,2.9,4.5,84,0.00,,---,0.00,VWS V14.01,2013-10-03 07:08:00,
2013-10-03 00:09:00,44.6,40.1,28.61,NE,45,2.0,4.5,84,0.00,,---,0.00,VWS V14.01,2013-10-03 07:09:00,
2013-10-03 00:10:00,44.6,40.1,28.61,ENE,68,6.5,8.1,84,0.00,,---,0.00,VWS V14.01,2013-10-03 07:10:00,
2013-10-03 00:11:00,44.8,40.2,28.61,NE,45,4.9,7.4,84,0.00,,---,0.00,VWS V14.01,2013-10-03 07:11:00,
2013-10-03 00:12:00,44.8,40.2,28.61,North,0,4.0,5.8,84,0.00,,---,0.00,VWS V14.01,2013-10-03 07:12:00,
2013-10-03 00:13:00,44.8,40.2,28.61,NNE,22,4.0,4.9,84,0.00,,---,0.00,VWS V14.01,2013-10-03 07:13:00,
2013-10-03 00:14:00,44.6,40.1,28.61,ENE,68,6.3,6.3,84,0.00,,---,0.00,VWS V14.01,2013-10-03 07:14:00,
2013-10-03 00:15:00,44.6,40.1,28.61,ENE,68,6.5,6.5,84,0.00,,---,0.00,VWS V14.01,2013-10-03 07:15:00,
2013-10-03 00:16:00,44.6,40.1,28.61,North,0,3.8,3.8,84,0.00,,---,0.00,VWS V14.01,2013-10-03 07:16:00,
2013-10-03 00:17:00,44.6,40.1,28.61,North,0,3.8,3.8,84,0.00,,---,0.00,VWS V14.01,2013-10-03 07:17:00,
2013-10-03 00:18:00,44.6,40.4,28.61,NNW,338,5.4,5.4,85,0.00,,---,0.00,VWS V14.01,2013-10-03 07:18:00,
2013-10-03 00:19:00,44.6,40.4,28.61,NNW,338,5.4,5.4,85,0.00,,---,0.00,VWS V14.01,2013-10-03 07:19:00,
2013-10-03 00:20:00,44.6,40.4,28.58,NE,45,3.6,4.9,85,0.00,,---,0.00,VWS V14.01,2013-10-03 07:20:00,
2013-10-03 00:21:00,44.6,40.4,28.58,NE,45,6.3,6.3,85,0.00,,---,0.00,VWS V14.01,2013-10-03 07:21:00,
2013-10-03 00:22:00,44.6,40.4,28.58,NNE,22,4.9,6.3,85,0.00,,---,0.00,VWS V14.01,2013-10-03 07:22:00,
2013-10-03 00:23:00,44.6,40.4,28.58,East,90,6.0,6.0,85,0.00,,---,0.00,VWS V14.01,2013-10-03 07:23:00,
2013-10-03 00:24:00,44.6,40.4,28.58,NE,45,4.9,10.1,85,0.00,,---,0.00,VWS V14.01,2013-10-03 07:24:00,
2013-10-03 00:25:00,44.6,40.4,28.58,South,180,4.7,5.6,85,0.00,,---,0.00,VWS V14.01,2013-10-03 07:25:00,
2013-10-03 00:26:00,44.6,40.4,28.58,ESE,112,2.2,4.7,85,0.00,,---,0.00,VWS V14.01,2013-10-03 07:26:00,
2013-10-03 00:27:00,44.4,40.5,28.58,SE,135,3.4,4.7,86,0.00,,---,0.00,VWS V14.01,2013-10-03 07:27:00,
2013-10-03 00:28:00,44.2,40.3,28.58,SE,135,9.8,9.8,86,0.00,,---,0.00,VWS V14.01,2013-10-03 07:28:00,
2013-10-03 00:29:00,44.2,40.3,28.58,SE,135,9.8,9.8,86,0.00,,---,0.00,VWS V14.01,2013-10-03 07:29:00,
2013-10-03 00:30:00,44.4,40.5,28.58,NE,45,2.7,7.6,86,0.00,,---,0.00,VWS V14.01,2013-10-03 07:30:00,
2013-10-03 00:31:00,44.4,40.5,28.58,NE,45,2.7,7.6,86,0.00,,---,0.00,VWS V14.01,2013-10-03 07:31:00,
2013-10-03 00:32:00,44.4,40.5,28.58,NE,45,1.6,7.6,86,0.00,,---,0.00,VWS V14.01,2013-10-03 07:32:00,
2013-10-03 00:33:00,44.4,40.5,28.58,NE,45,1.6,7.6,86,0.00,,---,0.00,VWS V14.01,2013-10-03 07:33:00,
2013-10-03 00:34:00,44.6,40.7,28.58,NE,45,6.5,8.5,86,0.00,,---,0.00,VWS V14.01,2013-10-03 07:34:00,
2013-10-03 00:35:00,44.6,40.7,28.58,NE,45,3.1,7.6,86,0.00,,---,0.00,VWS V14.01,2013-10-03 07:35:00,
2013-10-03 00:36:00,44.6,40.7,28.58,NE,45,3.1,7.6,86,0.00,,---,0.00,VWS V14.01,2013-10-03 07:36:00,
2013-10-03 00:37:00,44.6,40.7,28.58,NNE,22,6.3,6.3,86,0.00,,---,0.00,VWS V14.01,2013-10-03 07:37:00,
2013-10-03 00:38:00,44.6,40.7,28.58,SSE,158,6.3,6.7,86,0.00,,---,0.00,VWS V14.01,2013-10-03 07:38:00,
2013-10-03 00:39:00,44.6,40.7,28.58,NNE,22,5.6,6.3,86,0.00,,---,0.00,VWS V14.01,2013-10-03 07:39:00,
2013-10-03 00:40:00,44.6,40.7,28.58,SE,135,3.8,4.0,86,0.00,,---,0.00,VWS V14.01,2013-10-03 07:40:00,
2013-10-03 00:41:00,44.6,40.7,28.58,ENE,68,4.0,6.3,86,0.00,,---,0.00,VWS V14.01,2013-10-03 07:41:00,
2013-10-03 00:42:00,44.6,40.7,28.58,ESE,112,6.0,6.0,86,0.00,,---,0.00,VWS V14.01,2013-10-03 07:42:00,
2013-10-03 00:43:00,44.6,40.7,28.58,East,90,8.5,8.5,86,0.00,,---,0.00,VWS V14.01,2013-10-03 07:43:00,
2013-10-03 00:44:00,44.6,40.7,28.58,SE,135,8.7,8.7,86,0.00,,---,0.00,VWS V14.01,2013-10-03 07:44:00,
2013-10-03 00:45:00,44.6,40.7,28.58,East,90,5.4,5.4,86,0.00,,---,0.00,VWS V14.01,2013-10-03 07:45:00,
2013-10-03 00:46:00,44.6,40.7,28.58,NE,45,4.3,5.4,86,0.00,,---,0.00,VWS V14.01,2013-10-03 07:46:00,
2013-10-03 00:47:00,44.6,40.7,28.58,NW,315,8.5,8.5,86,0.00,,---,0.00,VWS V14.01,2013-10-03 07:47:00,
2013-10-03 00:48:00,44.6,40.7,28.58,NNE,22,5.6,8.5,86,0.00,,---,0.00,VWS V14.01,2013-10-03 07:48:00,
2013-10-03 00:49:00,44.6,40.7,28.58,ENE,68,8.1,8.7,86,0.00,,---,0.00,VWS V14.01,2013-10-03 07:49:00,
2013-10-03 00:50:00,44.4,40.8,28.61,NNE,22,8.1,8.1,87,0.00,,---,0.00,VWS V14.01,2013-10-03 07:50:00,
2013-10-03 00:51:00,44.4,40.8,28.61,NNE,22,8.1,8.1,87,0.00,,---,0.00,VWS V14.01,2013-10-03 07:51:00,
2013-10-03 00:52:00,44.4,40.8,28.61,WNW,292,2.0,2.9,87,0.00,,---,0.00,VWS V14.01,2013-10-03 07:52:00,
2013-10-03 00:53:00,44.4,40.8,28.61,NNE,22,2.7,2.9,87,0.00,,---,0.00,VWS V14.01,2013-10-03 07:53:00,
2013-10-03 00:54:00,44.4,40.8,28.61,East,90,2.9,2.9,87,0.00,,---,0.00,VWS V14.01,2013-10-03 07:54:00,
2013-10-03 00:55:00,44.4,40.8,28.61,East,90,4.0,4.0,87,0.00,,---,0.00,VWS V14.01,2013-10-03 07:55:00,
2013-10-03 00:56:00,44.4,40.8,28.61,ENE,68,4.3,4.3,87,0.00,,---,0.00,VWS V14.01,2013-10-03 07:56:00,
2013-10-03 00:57:00,44.4,40.8,28.61,North,0,0.9,5.6,87,0.00,,---,0.00,VWS V14.01,2013-10-03 07:57:00,
2013-10-03 00:58:00,44.4,40.8,28.61,SSE,158,2.7,2.7,87,0.00,,---,0.00,VWS V14.01,2013-10-03 07:58:00,
2013-10-03 00:59:00,44.4,40.8,28.61,SSE,158,2.7,2.7,87,0.00,,---,0.00,VWS V14.01,2013-10-03 07:59:00,
2013-10-03 01:00:00,44.4,40.8,28.61,SE,135,2.9,4.3,87,0.00,,---,0.00,VWS V14.01,2013-10-03 08:00:00,
2013-10-03 01:01:00,44.4,40.8,28.61,East,90,4.5,4.5,87,0.00,,---,0.00,VWS V14.01,2013-10-03 08:01:00,
2013-10-03 01:02:00,44.4,40.8,28.61,NNE,22,3.6,5.4,87,0.00,,---,0.00,VWS V14.01,2013-10-03 08:02:00,
2013-10-03 01:03:00,44.4,40.8,28.61,East,90,3.1,5.4,87,0.00,,---,0.00,VWS V14.01,2013-10-03 08:03:00,
2013-10-03 01:04:00,44.4,40.8,28.61,East,90,3.1,5.4,87,0.00,,---,0.00,VWS V14.01,2013-10-03 08:04:00,
2013-10-03 01:05:00,44.4,40.8,28.61,East,90,3.1,5.4,87,0.00,,---,0.00,VWS V14.01,2013-10-03 08:05:00,
2013-10-03 01:06:00,44.4,40.8,28.61,NE,45,7.6,7.6,87,0.00,,---,0.00,VWS V14.01,2013-10-03 08:06:00,
2013-10-03 01:07:00,44.4,40.8,28.61,NE,45,5.6,7.6,87,0.00,,---,0.00,VWS V14.01,2013-10-03 08:07:00,
2013-10-03 01:08:00,44.4,40.8,28.61,ENE,68,4.9,4.9,87,0.00,,---,0.00,VWS V14.01,2013-10-03 08:08:00,
2013-10-03 01:09:00,44.4,40.8,28.61,ENE,68,3.6,8.1,87,0.00,,---,0.00,VWS V14.01,2013-10-03 08:09:00,
2013-10-03 01:10:00,44.4,41.1,28.61,East,90,4.7,8.1,88,0.00,,---,0.00,VWS V14.01,2013-10-03 08:10:00,
2013-10-03 01:11:00,44.4,41.1,28.61,ENE,68,4.3,5.4,88,0.00,,---,0.00,VWS V14.01,2013-10-03 08:11:00,
2013-10-03 01:12:00,44.4,41.1,28.61,ENE,68,4.3,5.4,88,0.00,,---,0.00,VWS V14.01,2013-10-03 08:12:00,
2013-10-03 01:13:00,44.4,40.8,28.61,North,0,4.7,4.7,87,0.00,,---,0.00,VWS V14.01,2013-10-03 08:13:00,
2013-10-03 01:14:00,44.4,40.8,28.61,North,0,2.9,4.7,87,0.00,,---,0.00,VWS V14.01,2013-10-03 08:14:00,
2013-10-03 01:15:00,44.4,40.8,28.61,NNE,22,3.4,6.7,87,0.00,,---,0.00,VWS V14.01,2013-10-03 08:15:00,
2013-10-03 01:16:00,44.4,40.8,28.61,NE,45,3.1,3.1,87,0.00,,---,0.00,VWS V14.01,2013-10-03 08:16:00,
2013-10-03 01:17:00,44.4,40.8,28.61,NE,45,3.1,6.7,87,0.00,,---,0.00,VWS V14.01,2013-10-03 08:17:00,
2013-10-03 01:18:00,44.4,40.8,28.61,North,0,3.8,4.3,87,0.00,,---,0.00,VWS V14.01,2013-10-03 08:18:00,
2013-10-03 01:19:00,44.6,41.0,28.61,North,0,4.9,4.9,87,0.00,,---,0.00,VWS V14.01,2013-10-03 08:19:00,
2013-10-03 01:20:00,44.6,41.0,28.61,North,0,4.9,4.9,87,0.00,,---,0.00,VWS V14.01,2013-10-03 08:20:00,
2013-10-03 01:21:00,44.6,41.0,28.61,NNE,22,4.0,5.4,87,0.00,,---,0.00,VWS V14.01,2013-10-03 08:21:00,
2013-10-03 01:22:00,44.6,41.0,28.61,ENE,68,4.5,8.5,87,0.00,,---,0.00,VWS V14.01,2013-10-03 08:22:00,
2013-10-03 01:23:00,44.6,41.0,28.61,East,90,3.8,3.8,87,0.00,,---,0.00,VWS V14.01,2013-10-03 08:23:00,
2013-10-03 01:24:00,44.6,41.0,28.61,North,0,3.6,3.8,87,0.00,,---,0.00,VWS V14.01,2013-10-03 08:24:00,
2013-10-03 01:25:00,44.6,41.0,28.61,North,0,3.6,3.8,87,0.00,,---,0.00,VWS V14.01,2013-10-03 08:25:00,
2013-10-03 01:26:00,44.6,40.7,28.61,South,180,4.3,6.3,86,0.00,,---,0.00,VWS V14.01,2013-10-03 08:26:00,
2013-10-03 01:27:00,44.6,40.7,28.61,South,180,4.3,6.3,86,0.00,,---,0.00,VWS V14.01,2013-10-03 08:27:00,
2013-10-03 01:28:00,44.6,40.7,28.61,SSE,158,6.0,6.0,86,0.00,,---,0.00,VWS V14.01,2013-10-03 08:28:00,
2013-10-03 01:29:00,44.6,40.7,28.61,NNW,338,4.7,6.0,86,0.00,,---,0.00,VWS V14.01,2013-10-03 08:29:00,
2013-10-03 01:30:00,44.6,40.7,28.61,ENE,68,4.3,10.7,86,0.00,,---,0.00,VWS V14.01,2013-10-03 08:30:00,
2013-10-03 01:31:00,44.6,40.7,28.61,NNE,22,6.5,6.5,86,0.00,,---,0.00,VWS V14.01,2013-10-03 08:31:00,
2013-10-03 01:32:00,44.6,40.7,28.61,NNE,22,4.7,6.5,86,0.00,,---,0.00,VWS V14.01,2013-10-03 08:32:00,
2013-10-03 01:33:00,44.6,40.7,28.61,ENE,68,3.6,5.8,86,0.00,,---,0.00,VWS V14.01,2013-10-03 08:33:00,
2013-10-03 01:34:00,44.6,41.0,28.61,NE,45,6.5,6.5,87,0.00,,---,0.00,VWS V14.01,2013-10-03 08:34:00,
2013-10-03 01:35:00,44.6,40.7,28.64,NE,45,7.6,7.6,86,0.00,,---,0.00,VWS V14.01,2013-10-03 08:35:00,
2013-10-03 01:36:00,44.6,40.7,28.64,ESE,112,4.9,7.6,86,0.00,,---,0.00,VWS V14.01,2013-10-03 08:36:00,
2013-10-03 01:37:00,44.8,40.9,28.64,East,90,3.1,4.0,86,0.00,,---,0.00,VWS V14.01,2013-10-03 08:37:00,
2013-10-03 01:38:00,44.8,40.9,28.64,NE,45,4.5,4.5,86,0.00,,---,0.00,VWS V14.01,2013-10-03 08:38:00,
2013-10-03 01:39:00,44.8,40.9,28.64,ENE,68,7.4,8.5,86,0.00,,---,0.00,VWS V14.01,2013-10-03 08:39:00,
2013-10-03 01:40:00,44.8,40.9,28.64,ENE,68,7.4,8.5,86,0.00,,---,0.00,VWS V14.01,2013-10-03 08:40:00,
2013-10-03 01:41:00,44.6,40.7,28.64,SE,135,5.6,5.6,86,0.00,,---,0.00,VWS V14.01,2013-10-03 08:41:00,
2013-10-03 01:42:00,44.6,40.7,28.64,NE,45,3.1,4.7,86,0.00,,---,0.00,VWS V14.01,2013-10-03 08:42:00,
2013-10-03 01:43:00,44.6,40.7,28.64,NNE,22,4.7,4.7,86,0.00,,---,0.00,VWS V14.01,2013-10-03 08:43:00,
2013-10-03 01:44:00,44.4,40.8,28.64,North,0,4.9,8.1,87,0.00,,---,0.00,VWS V14.01,2013-10-03 08:44:00,
2013-10-03 01:45:00,44.4,40.8,28.64,North,0,4.9,8.1,87,0.00,,---,0.00,VWS V14.01,2013-10-03 08:45:00,
2013-10-03 01:46:00,44.4,40.8,28.64,NE,45,7.4,7.4,87,0.00,,---,0.00,VWS V14.01,2013-10-03 08:46:00,
2013-10-03 01:47:00,44.4,40.8,28.64,NE,45,7.4,7.4,87,0.00,,---,0.00,VWS V14.01,2013-10-03 08:47:00,
2013-10-03 01:48:00,44.4,40.8,28.64,ENE,68,6.0,8.1,87,0.00,,---,0.00,VWS V14.01,2013-10-03 08:48:00,
2013-10-03 01:49:00,44.6,41.0,28.64,SE,135,7.6,7.6,87,0.00,,---,0.00,VWS V14.01,2013-10-03 08:49:00,
2013-10-03 01:50:00,44.6,41.0,28.64,SE,135,5.4,8.1,87,0.00,,---,0.00,VWS V14.01,2013-10-03 08:50:00,
2013-10-03 01:51:00,44.6,41.0,28.64,East,90,7.2,7.2,87,0.00,,---,0.00,VWS V14.01,2013-10-03 08:51:00,
2013-10-03 01:52:00,44.6,41.0,28.64,ESE,112,5.4,8.5,87,0.00,,---,0.00,VWS V14.01,2013-10-03 08:52:00,
2013-10-03 01:53:00,44.6,40.7,28.64,ENE,68,5.8,5.8,86,0.00,,---,0.00,VWS V14.01,2013-10-03 08:53:00,
2013-10-03 01:54:00,44.6,40.7,28.64,East,90,2.7,3.1,86,0.00,,---,0.00,VWS V14.01,2013-10-03 08:54:00,
2013-10-03 01:55:00,44.6,40.7,28.64,East,90,2.7,3.1,86,0.00,,---,0.00,VWS V14.01,2013-10-03 08:55:00,
2013-10-03 01:56:00,44.6,40.7,28.64,SE,135,3.4,3.8,86,0.00,,---,0.00,VWS V14.01,2013-10-03 08:56:00,
2013-10-03 01:57:00,44.6,40.7,28.64,ESE,112,2.0,2.7,86,0.00,,---,0.00,VWS V14.01,2013-10-03 08:57:00,
2013-10-03 01:58:00,44.4,40.8,28.64,NNW,338,1.3,2.7,87,0.00,,---,0.00,VWS V14.01,2013-10-03 08:58:00,
2013-10-03 01:59:00,44.4,40.8,28.64,ENE,68,1.1,2.7,87,0.00,,---,0.00,VWS V14.01,2013-10-03 08:59:00,
2013-10-03 02:00:00,44.4,40.8,28.64,NNE,22,3.1,4.3,87,0.00,,---,0.00,VWS V14.01,2013-10-03 09:00:00,
2013-10-03 02:01:00,44.4,40.8,28.64,ENE,68,4.3,4.3,87,0.00,,---,0.00,VWS V14.01,2013-10-03 09:01:00,
2013-10-03 02:02:00,44.4,40.8,28.64,ENE,68,4.3,4.3,87,0.00,,---,0.00,VWS V14.01,2013-10-03 09:02:00,
2013-10-03 02:03:00,44.2,40.6,28.64,SSW,202,1.1,5.8,87,0.00,,---,0.00,VWS V14.01,2013-10-03 09:03:00,
2013-10-03 02:04:00,44.2,40.6,28.64,NNE,22,0.9,1.6,87,0.00,,---,0.00,VWS V14.01,2013-10-03 09:04:00,
2013-10-03 02:05:00,44.4,40.8,28.64,North,0,6.0,7.6,87,0.00,,---,0.00,VWS V14.01,2013-10-03 09:05:00,
2013-10-03 02:06:00,44.4,40.8,28.64,North,0,6.0,7.6,87,0.00,,---,0.00,VWS V14.01,2013-10-03 09:06:00,
2013-10-03 02:07:00,44.4,40.8,28.64,NE,45,4.0,5.8,87,0.00,,---,0.00,VWS V14.01,2013-10-03 09:07:00,
2013-10-03 02:08:00,44.4,40.8,28.64,East,90,8.1,8.7,87,0.00,,---,0.00,VWS V14.01,2013-10-03 09:08:00,
2013-10-03 02:09:00,44.4,40.8,28.64,NNW,338,6.0,6.0,87,0.00,,---,0.00,VWS V14.01,2013-10-03 09:09:00,
2013-10-03 02:10:00,44.6,41.0,28.64,ENE,68,4.3,4.3,87,0.00,,---,0.00,VWS V14.01,2013-10-03 09:10:00,
2013-10-03 02:11:00,44.6,41.0,28.64,NNE,22,3.6,6.5,87,0.00,,---,0.00,VWS V14.01,2013-10-03 09:11:00,
2013-10-03 02:12:00,44.4,40.8,28.64,ENE,68,5.4,5.4,87,0.00,,---,0.00,VWS V14.01,2013-10-03 09:12:00,
2013-10-03 02:13:00,44.4,40.8,28.64,SE,135,2.7,2.7,87,0.00,,---,0.00,VWS V14.01,2013-10-03 09:13:00,
2013-10-03 02:14:00,44.4,40.8,28.64,SE,135,2.7,5.4,87,0.00,,---,0.00,VWS V14.01,2013-10-03 09:14:00,
2013-10-03 02:15:00,44.4,40.8,28.64,NNE,22,3.6,7.2,87,0.00,,---,0.00,VWS V14.01,2013-10-03 09:15:00,
2013-10-03 02:16:00,44.4,40.8,28.64,NNE,22,4.3,4.3,87,0.00,,---,0.00,VWS V14.01,2013-10-03 09:16:00,
2013-10-03 02:17:00,44.4,40.8,28.64,North,0,4.9,4.9,87,0.00,,---,0.00,VWS V14.01,2013-10-03 09:17:00,
2013-10-03 02:18:00,44.4,40.8,28.64,NE,45,8.5,8.5,87,0.00,,---,0.00,VWS V14.01,2013-10-03 09:18:00,
2013-10-03 02:19:00,44.4,40.8,28.64,ENE,68,8.1,8.5,87,0.00,,---,0.00,VWS V14.01,2013-10-03 09:19:00,
2013-10-03 02:20:00,44.4,40.8,28.64,East,90,3.6,3.6,87,0.00,,---,0.00,VWS V14.01,2013-10-03 09:20:00,
2013-10-03 02:21:00,44.4,40.8,28.64,ESE,112,4.3,4.7,87,0.00,,---,0.00,VWS V14.01,2013-10-03 09:21:00,
2013-10-03 02:22:00,44.4,40.8,28.64,East,90,7.6,7.6,87,0.00,,---,0.00,VWS V14.01,2013-10-03 09:22:00,
2013-10-03 02:23:00,44.4,40.8,28.64,SE,135,2.9,2.9,87,0.00,,---,0.00,VWS V14.01,2013-10-03 09:23:00,
2013-10-03 02:24:00,44.4,40.8,28.64,ESE,112,3.8,3.8,87,0.00,,---,0.00,VWS V14.01,2013-10-03 09:24:00,
2013-10-03 02:25:00,44.4,40.8,28.64,ESE,112,3.8,4.7,87,0.00,,---,0.00,VWS V14.01,2013-10-03 09:25:00,
2013-10-03 02:26:00,44.4,40.8,28.64,East,90,2.2,3.8,87,0.00,,---,0.00,VWS V14.01,2013-10-03 09:26:00,
2013-10-03 02:27:00,44.2,40.6,28.64,WSW,248,2.0,2.0,87,0.00,,---,0.00,VWS V14.01,2013-10-03 09:27:00,
2013-10-03 02:28:00,44.2,40.6,28.64,NNE,22,2.7,2.7,87,0.00,,---,0.00,VWS V14.01,2013-10-03 09:28:00,
2013-10-03 02:29:00,44.2,40.6,28.64,NNE,22,2.7,2.7,87,0.00,,---,0.00,VWS V14.01,2013-10-03 09:29:00,
2013-10-03 02:30:00,44.2,40.6,28.64,NNE,22,2.7,2.7,87,0.00,,---,0.00,VWS V14.01,2013-10-03 09:30:00,
2013-10-03 02:31:00,44.2,40.6,28.64,SE,135,4.9,4.9,87,0.00,,---,0.00,VWS V14.01,2013-10-03 09:31:00,
2013-10-03 02:32:00,44.4,41.1,28.64,NNE,22,3.6,5.4,88,0.00,,---,0.00,VWS V14.01,2013-10-03 09:32:00,
2013-10-03 02:33:00,44.2,40.6,28.64,NE,45,5.4,6.0,87,0.00,,---,0.00,VWS V14.01,2013-10-03 09:33:00,
2013-10-03 02:34:00,44.4,41.1,28.64,NE,45,3.1,5.6,88,0.00,,---,0.00,VWS V14.01,2013-10-03 09:34:00,
2013-10-03 02:35:00,44.4,41.1,28.64,NNE,22,3.4,3.4,88,0.00,,---,0.00,VWS V14.01,2013-10-03 09:35:00,
2013-10-03 02:36:00,44.2,40.6,28.64,SSE,158,3.4,3.4,87,0.00,,---,0.00,VWS V14.01,2013-10-03 09:36:00,
2013-10-03 02:37:00,44.2,40.6,28.64,ENE,68,4.5,4.7,87,0.00,,---,0.00,VWS V14.01,2013-10-03 09:37:00,
2013-10-03 02:38:00,44.2,40.6,28.64,ENE,68,4.7,4.7,87,0.00,,---,0.00,VWS V14.01,2013-10-03 09:38:00,
2013-10-03 02:39:00,44.2,40.9,28.64,East,90,5.4,5.4,88,0.00,,---,0.00,VWS V14.01,2013-10-03 09:39:00,
2013-10-03 02:40:00,44.2,40.9,28.64,East,90,1.3,5.4,88,0.00,,---,0.00,VWS V14.01,2013-10-03 09:40:00,
2013-10-03 02:41:00,44.2,40.9,28.64,ESE,112,4.9,4.9,88,0.00,,---,0.00,VWS V14.01,2013-10-03 09:41:00,
2013-10-03 02:42:00,44.4,41.1,28.64,East,90,2.5,4.0,88,0.00,,---,0.00,VWS V14.01,2013-10-03 09:42:00,
2013-10-03 02:43:00,44.4,41.1,28.64,East,90,2.5,4.0,88,0.00,,---,0.00,VWS V14.01,2013-10-03 09:43:00,
2013-10-03 02:44:00,44.2,40.9,28.64,SE,135,2.7,5.6,88,0.00,,---,0.00,VWS V14.01,2013-10-03 09:44:00,
2013-10-03 02:45:00,44.2,40.9,28.64,ESE,112,8.7,8.7,88,0.00,,---,0.00,VWS V14.01,2013-10-03 09:45:00,
2013-10-03 02:46:00,44.2,40.9,28.64,NNE,22,2.9,2.9,88,0.00,,---,0.00,VWS V14.01,2013-10-03 09:46:00,
2013-10-03 02:47:00,44.2,40.9,28.64,NE,45,1.6,8.7,88,0.00,,---,0.00,VWS V14.01,2013-10-03 09:47:00,
2013-10-03 02:48:00,44.2,40.9,28.64,NE,45,3.4,5.6,88,0.00,,---,0.00,VWS V14.01,2013-10-03 09:48:00,
2013-10-03 02:49:00,44.1,40.7,28.64,NNE,22,2.7,2.7,88,0.00,,---,0.00,VWS V14.01,2013-10-03 09:49:00,
2013-10-03 02:50:00,44.1,41.0,28.64,ESE,112,3.4,3.8,89,0.00,,---,0.00,VWS V14.01,2013-10-03 09:50:00,
2013-10-03 02:51:00,44.1,41.0,28.64,NE,45,5.8,5.8,89,0.00,,---,0.00,VWS V14.01,2013-10-03 09:51:00,
2013-10-03 02:52:00,44.1,41.0,28.64,ENE,68,4.3,5.8,89,0.00,,---,0.00,VWS V14.01,2013-10-03 09:52:00,
2013-10-03 02:53:00,44.1,41.0,28.64,ENE,68,3.1,4.9,89,0.00,,---,0.00,VWS V14.01,2013-10-03 09:53:00,
2013-10-03 02:54:00,44.1,41.0,28.64,ESE,112,5.8,5.8,89,0.00,,---,0.00,VWS V14.01,2013-10-03 09:54:00,
2013-10-03 02:55:00,44.1,41.0,28.64,ESE,112,4.3,4.9,89,0.00,,---,0.00,VWS V14.01,2013-10-03 09:55:00,
2013-10-03 02:56:00,44.1,41.0,28.64,ENE,68,4.9,5.8,89,0.00,,---,0.00,VWS V14.01,2013-10-03 09:56:00,
2013-10-03 02:57:00,44.1,41.0,28.64,East,90,3.4,4.3,89,0.00,,---,0.00,VWS V14.01,2013-10-03 09:57:00,
2013-10-03 02:58:00,44.1,41.0,28.64,NNE,22,2.7,2.7,89,0.00,,---,0.00,VWS V14.01,2013-10-03 09:58:00,
2013-10-03 02:59:00,44.1,41.0,28.64,NNE,22,2.5,2.7,89,0.00,,---,0.00,VWS V14.01,2013-10-03 09:59:00,
2013-10-03 03:00:00,44.1,41.0,28.64,East,90,4.0,6.3,89,0.00,,---,0.00,VWS V14.01,2013-10-03 10:00:00,
2013-10-03 03:01:00,44.1,41.0,28.64,ENE,68,4.9,4.9,89,0.00,,---,0.00,VWS V14.01,2013-10-03 10:01:00,
2013-10-03 03:02:00,44.1,41.0,28.64,SE,135,3.8,3.8,89,0.00,,---,0.00,VWS V14.01,2013-10-03 10:02:00,
2013-10-03 03:03:00,44.1,41.0,28.64,SSE,158,2.2,3.4,89,0.00,,---,0.00,VWS V14.01,2013-10-03 10:03:00,
2013-10-03 03:04:00,44.1,41.0,28.64,ENE,68,3.1,3.4,89,0.00,,---,0.00,VWS V14.01,2013-10-03 10:04:00,
2013-10-03 03:05:00,44.1,41.0,28.64,ENE,68,4.9,4.9,89,0.00,,---,0.00,VWS V14.01,2013-10-03 10:05:00,
2013-10-03 03:06:00,44.1,41.0,28.67,NNE,22,4.3,4.3,89,0.00,,---,0.00,VWS V14.01,2013-10-03 10:06:00,
2013-10-03 03:07:00,44.1,41.0,28.67,NNE,22,5.4,6.0,89,0.00,,---,0.00,VWS V14.01,2013-10-03 10:07:00,
2013-10-03 03:08:00,44.2,41.5,28.67,SE,135,3.4,3.4,90,0.00,,---,0.00,VWS V14.01,2013-10-03 10:08:00,
2013-10-03 03:09:00,44.2,41.5,28.67,ESE,112,4.3,4.3,90,0.00,,---,0.00,VWS V14.01,2013-10-03 10:09:00,
2013-10-03 03:10:00,44.1,41.3,28.67,East,90,4.3,4.3,90,0.00,,---,0.00,VWS V14.01,2013-10-03 10:10:00,
2013-10-03 03:11:00,44.1,41.3,28.67,SE,135,4.0,4.9,90,0.00,,---,0.00,VWS V14.01,2013-10-03 10:11:00,
2013-10-03 03:12:00,44.1,41.3,28.67,East,90,4.0,4.9,90,0.00,,---,0.00,VWS V14.01,2013-10-03 10:12:00,
2013-10-03 03:13:00,44.1,41.3,28.67,East,90,5.6,5.6,90,0.00,,---,0.00,VWS V14.01,2013-10-03 10:13:00,
2013-10-03 03:14:00,44.1,41.3,28.67,SE,135,6.0,6.0,90,0.00,,---,0.00,VWS V14.01,2013-10-03 10:14:00,
2013-10-03 03:15:00,44.1,41.3,28.67,ESE,112,6.3,6.3,90,0.00,,---,0.00,VWS V14.01,2013-10-03 10:15:00,
2013-10-03 03:16:00,44.1,41.3,28.67,ESE,112,4.9,4.9,90,0.00,,---,0.00,VWS V14.01,2013-10-03 10:16:00,
2013-10-03 03:17:00,44.1,41.3,28.67,SE,135,4.7,4.7,90,0.00,,---,0.00,VWS V14.01,2013-10-03 10:17:00,
2013-10-03 03:18:00,44.1,41.3,28.67,SE,135,3.6,4.9,90,0.00,,---,0.00,VWS V14.01,2013-10-03 10:18:00,
2013-10-03 03:19:00,43.9,41.1,28.67,ENE,68,4.0,4.0,90,0.00,,---,0.00,VWS V14.01,2013-10-03 10:19:00,
2013-10-03 03:20:00,43.9,41.1,28.67,ESE,112,3.1,3.6,90,0.00,,---,0.00,VWS V14.01,2013-10-03 10:20:00,
2013-10-03 03:21:00,43.9,41.1,28.67,NE,45,3.6,6.3,90,0.00,,---,0.00,VWS V14.01,2013-10-03 10:21:00,
2013-10-03 03:22:00,43.9,41.1,28.67,ESE,112,3.4,5.8,90,0.00,,---,0.00,VWS V14.01,2013-10-03 10:22:00,
2013-10-03 03:23:00,44.1,41.3,28.67,East,90,6.5,12.5,90,0.00,,---,0.00,VWS V14.01,2013-10-03 10:23:00,
2013-10-03 03:24:00,44.1,41.3,28.67,SE,135,6.0,7.4,90,0.00,,---,0.00,VWS V14.01,2013-10-03 10:24:00,
2013-10-03 03:25:00,44.1,41.3,28.67,ESE,112,4.3,6.0,90,0.00,,---,0.00,VWS V14.01,2013-10-03 10:25:00,
2013-10-03 03:26:00,44.1,41.3,28.67,SE,135,5.4,7.4,90,0.00,,---,0.00,VWS V14.01,2013-10-03 10:26:00,
2013-10-03 03:27:00,43.9,41.1,28.67,NNE,22,7.4,7.4,90,0.00,,---,0.00,VWS V14.01,2013-10-03 10:27:00,
2013-10-03 03:28:00,43.9,41.1,28.67,East,90,4.3,5.8,90,0.00,,---,0.00,VWS V14.01,2013-10-03 10:28:00,
2013-10-03 03:29:00,43.9,41.4,28.67,ESE,112,2.7,2.7,91,0.00,,---,0.00,VWS V14.01,2013-10-03 10:29:00,
2013-10-03 03:30:00,43.9,41.4,28.67,ESE,112,2.7,5.6,91,0.00,,---,0.00,VWS V14.01,2013-10-03 10:30:00,
2013-10-03 03:31:00,44.1,41.6,28.67,East,90,8.5,10.5,91,0.00,,---,0.00,VWS V14.01,2013-10-03 10:31:00,
2013-10-03 03:32:00,44.1,41.6,28.67,East,90,3.8,7.6,91,0.00,,---,0.00,VWS V14.01,2013-10-03 10:32:00,
2013-10-03 03:33:00,44.1,41.6,28.67,ESE,112,6.5,6.5,91,0.00,,---,0.00,VWS V14.01,2013-10-03 10:33:00,
2013-10-03 03:34:00,44.2,41.5,28.67,East,90,5.4,5.4,90,0.00,,---,0.00,VWS V14.01,2013-10-03 10:34:00,
2013-10-03 03:35:00,44.2,41.5,28.67,ESE,112,5.4,10.3,90,0.00,,---,0.00,VWS V14.01,2013-10-03 10:35:00,
2013-10-03 03:36:00,44.2,41.5,28.67,ESE,112,3.8,5.6,90,0.00,,---,0.00,VWS V14.01,2013-10-03 10:36:00,
2013-10-03 03:37:00,44.2,41.5,28.67,SE,135,4.9,4.9,90,0.00,,---,0.00,VWS V14.01,2013-10-03 10:37:00,
2013-10-03 03:38:00,44.2,41.5,28.67,ESE,112,6.3,8.1,90,0.00,,---,0.00,VWS V14.01,2013-10-03 10:38:00,
2013-10-03 03:39:00,44.2,41.5,28.67,East,90,2.7,4.0,90,0.00,,---,0.00,VWS V14.01,2013-10-03 10:39:00,
2013-10-03 03:40:00,44.2,41.5,28.67,East,90,4.0,8.1,90,0.00,,---,0.00,VWS V14.01,2013-10-03 10:40:00,
2013-10-03 03:41:00,44.2,41.5,28.67,SSE,158,3.4,3.4,90,0.00,,---,0.00,VWS V14.01,2013-10-03 10:41:00,
2013-10-03 03:42:00,44.2,41.5,28.67,East,90,4.3,4.3,90,0.00,,---,0.00,VWS V14.01,2013-10-03 10:42:00,
2013-10-03 03:43:00,44.1,41.3,28.67,ENE,68,6.5,6.5,90,0.00,,---,0.00,VWS V14.01,2013-10-03 10:43:00,
2013-10-03 03:44:00,44.2,41.5,28.67,East,90,6.3,6.3,90,0.00,,---,0.00,VWS V14.01,2013-10-03 10:44:00,
2013-10-03 03:45:00,44.2,41.5,28.67,ESE,112,4.9,9.6,90,0.00,,---,0.00,VWS V14.01,2013-10-03 10:45:00,
2013-10-03 03:46:00,44.2,41.5,28.67,NW,315,1.1,2.9,90,0.00,,---,0.00,VWS V14.01,2013-10-03 10:46:00,
2013-10-03 03:47:00,44.2,41.5,28.67,ESE,112,0.0,2.9,90,0.00,,---,0.00,VWS V14.01,2013-10-03 10:47:00,
2013-10-03 03:48:00,44.1,41.3,28.67,East,90,2.5,2.5,90,0.00,,---,0.00,VWS V14.01,2013-10-03 10:48:00,
2013-10-03 03:49:00,44.1,41.3,28.67,NNE,22,3.4,4.3,90,0.00,,---,0.00,VWS V14.01,2013-10-03 10:49:00,
2013-10-03 03:50:00,44.1,41.3,28.67,SSW,202,1.3,3.4,90,0.00,,---,0.00,VWS V14.01,2013-10-03 10:50:00,
2013-10-03 03:51:00,43.9,40.8,28.67,WSW,248,4.0,4.0,89,0.00,,---,0.00,VWS V14.01,2013-10-03 10:51:00,
2013-10-03 03:52:00,43.7,40.7,28.67,NNW,338,3.4,3.4,89,0.00,,---,0.00,VWS V14.01,2013-10-03 10:52:00,
2013-10-03 03:53:00,43.9,40.8,28.67,NNW,338,1.1,3.4,89,0.00,,---,0.00,VWS V14.01,2013-10-03 10:53:00,
2013-10-03 03:54:00,43.9,40.8,28.67,ENE,68,3.4,3.8,89,0.00,,---,0.00,VWS V14.01,2013-10-03 10:54:00,
2013-10-03 03:55:00,43.7,41.0,28.67,NE,45,3.8,3.8,90,0.00,,---,0.00,VWS V14.01,2013-10-03 10:55:00,
2013-10-03 03:56:00,43.7,41.0,28.67,ESE,112,3.1,3.6,90,0.00,,---,0.00,VWS V14.01,2013-10-03 10:56:00,
2013-10-03 03:57:00,43.7,41.0,28.67,ESE,112,2.0,2.5,90,0.00,,---,0.00,VWS V14.01,2013-10-03 10:57:00,
2013-10-03 03:58:00,43.7,41.0,28.67,ENE,68,3.1,3.8,90,0.00,,---,0.00,VWS V14.01,2013-10-03 10:58:00,
2013-10-03 03:59:00,43.7,41.0,28.67,SSE,158,2.5,3.6,90,0.00,,---,0.00,VWS V14.01,2013-10-03 10:59:00,
2013-10-03 04:00:00,43.7,41.0,28.67,ENE,68,2.5,2.7,90,0.00,,---,0.00,VWS V14.01,2013-10-03 11:00:00,
2013-10-03 04:01:00,43.7,41.0,28.67,SE,135,2.7,4.3,90,0.00,,---,0.00,VWS V14.01,2013-10-03 11:01:00,
2013-10-03 04:02:00,43.7,41.0,28.67,ENE,68,5.6,7.4,90,0.00,,---,0.00,VWS V14.01,2013-10-03 11:02:00,
2013-10-03 04:03:00,43.7,41.2,28.67,ESE,112,2.5,5.8,91,0.00,,---,0.00,VWS V14.01,2013-10-03 11:03:00,
2013-10-03 04:04:00,43.5,41.1,28.67,ESE,112,6.3,6.3,91,0.00,,---,0.00,VWS V14.01,2013-10-03 11:04:00,
2013-10-03 04:05:00,43.5,41.1,28.67,ENE,68,4.7,6.3,91,0.00,,---,0.00,VWS V14.01,2013-10-03 11:05:00,
2013-10-03 04:06:00,43.5,41.1,28.67,ESE,112,2.5,6.3,91,0.00,,---,0.00,VWS V14.01,2013-10-03 11:06:00,
2013-10-03 04:07:00,43.5,41.1,28.67,East,90,5.4,5.4,91,0.00,,---,0.00,VWS V14.01,2013-10-03 11:07:00,
2013-10-03 04:08:00,43.7,41.5,28.67,NE,45,4.5,6.0,92,0.00,,---,0.00,VWS V14.01,2013-10-03 11:08:00,
2013-10-03 04:09:00,43.7,41.5,28.67,NE,45,4.5,6.0,92,0.00,,---,0.00,VWS V14.01,2013-10-03 11:09:00,
2013-10-03 04:10:00,43.7,41.5,28.67,East,90,2.9,4.9,92,0.00,,---,0.00,VWS V14.01,2013-10-03 11:10:00,
2013-10-03 04:11:00,43.7,41.5,28.67,East,90,2.9,4.9,92,0.00,,---,0.00,VWS V14.01,2013-10-03 11:11:00,
2013-10-03 04:12:00,43.7,41.5,28.67,East,90,2.5,4.3,92,0.00,,---,0.00,VWS V14.01,2013-10-03 11:12:00,
2013-10-03 04:13:00,43.7,41.5,28.67,ESE,112,4.3,4.9,92,0.00,,---,0.00,VWS V14.01,2013-10-03 11:13:00,
2013-10-03 04:14:00,43.5,41.6,28.67,ESE,112,3.4,3.4,93,0.00,,---,0.00,VWS V14.01,2013-10-03 11:14:00,
2013-10-03 04:15:00,43.3,41.5,28.67,ESE,112,6.0,6.0,93,0.00,,---,0.00,VWS V14.01,2013-10-03 11:15:00,
2013-10-03 04:16:00,43.3,41.5,28.67,East,90,5.6,6.0,93,0.00,,---,0.00,VWS V14.01,2013-10-03 11:16:00,
2013-10-03 04:17:00,43.5,41.6,28.67,East,90,5.6,6.9,93,0.00,,---,0.00,VWS V14.01,2013-10-03 11:17:00,
2013-10-03 04:18:00,43.3,41.5,28.67,NNE,22,5.6,7.6,93,0.00,,---,0.00,VWS V14.01,2013-10-03 11:18:00,
2013-10-03 04:19:00,43.5,41.6,28.67,NNE,22,7.4,7.4,93,0.00,,---,0.00,VWS V14.01,2013-10-03 11:19:00,
2013-10-03 04:20:00,43.5,41.6,28.67,ESE,112,3.6,4.7,93,0.00,,---,0.00,VWS V14.01,2013-10-03 11:20:00,
2013-10-03 04:21:00,43.5,41.6,28.67,ESE,112,3.6,4.7,93,0.00,,---,0.00,VWS V14.01,2013-10-03 11:21:00,
2013-10-03 04:22:00,43.5,41.6,28.67,SSE,158,2.7,3.6,93,0.00,,---,0.00,VWS V14.01,2013-10-03 11:22:00,
2013-10-03 04:23:00,43.5,41.6,28.67,NNE,22,5.6,10.7,93,0.00,,---,0.00,VWS V14.01,2013-10-03 11:23:00,
2013-10-03 04:24:00,43.7,41.8,28.67,East,90,2.9,4.9,93,0.00,,---,0.00,VWS V14.01,2013-10-03 11:24:00,
2013-10-03 04:25:00,43.7,41.8,28.67,ESE,112,3.6,4.9,93,0.00,,---,0.00,VWS V14.01,2013-10-03 11:25:00,
2013-10-03 04:26:00,43.7,41.8,28.67,ENE,68,2.9,4.9,93,0.00,,---,0.00,VWS V14.01,2013-10-03 11:26:00,
2013-10-03 04:27:00,43.7,41.8,28.67,SE,135,3.8,5.8,93,0.00,,---,0.00,VWS V14.01,2013-10-03 11:27:00,
2013-10-03 04:28:00,43.7,41.8,28.67,SE,135,6.5,7.8,93,0.00,,---,0.00,VWS V14.01,2013-10-03 11:28:00,
2013-10-03 04:29:00,43.7,41.8,28.67,ENE,68,5.6,8.7,93,0.00,,---,0.00,VWS V14.01,2013-10-03 11:29:00,
2013-10-03 04:30:00,43.7,41.8,28.67,East,90,6.5,8.7,93,0.00,,---,0.00,VWS V14.01,2013-10-03 11:30:00,
2013-10-03 04:31:00,43.9,41.7,28.67,SE,135,4.0,6.5,92,0.00,,---,0.00,VWS V14.01,2013-10-03 11:31:00,
2013-10-03 04:32:00,43.9,41.7,28.67,SE,135,3.8,6.5,92,0.00,,---,0.00,VWS V14.01,2013-10-03 11:32:00,
2013-10-03 04:33:00,43.9,41.7,28.67,ENE,68,5.8,5.8,92,0.00,,---,0.00,VWS V14.01,2013-10-03 11:33:00,
2013-10-03 04:34:00,43.9,41.7,28.67,East,90,3.1,7.2,92,0.00,,---,0.00,VWS V14.01,2013-10-03 11:34:00,
2013-10-03 04:35:00,43.9,41.7,28.64,ESE,112,2.2,5.6,92,0.00,,---,0.00,VWS V14.01,2013-10-03 11:35:00,
2013-10-03 04:36:00,43.7,41.5,28.64,SE,135,1.6,2.0,92,0.00,,---,0.00,VWS V14.01,2013-10-03 11:36:00,
2013-10-03 04:37:00,43.7,41.5,28.64,SSE,158,4.7,4.7,92,0.00,,---,0.00,VWS V14.01,2013-10-03 11:37:00,
2013-10-03 04:38:00,43.2,40.7,28.64,SE,135,1.6,2.9,91,0.00,,---,0.00,VWS V14.01,2013-10-03 11:38:00,
2013-10-03 04:39:00,43.3,40.9,28.64,ESE,112,2.9,2.9,91,0.00,,---,0.00,VWS V14.01,2013-10-03 11:39:00,
2013-10-03 04:40:00,43.0,40.5,28.64,SE,135,2.7,2.9,91,0.00,,---,0.00,VWS V14.01,2013-10-03 11:40:00,
2013-10-03 04:41:00,42.8,40.4,28.64,SE,135,3.1,3.4,91,0.00,,---,0.00,VWS V14.01,2013-10-03 11:41:00,
2013-10-03 04:42:00,42.8,40.4,28.64,SE,135,3.1,3.4,91,0.00,,---,0.00,VWS V14.01,2013-10-03 11:42:00,
2013-10-03 04:43:00,42.4,40.0,28.64,ESE,112,2.7,3.4,91,0.00,,---,0.00,VWS V14.01,2013-10-03 11:43:00,
2013-10-03 04:44:00,42.4,40.0,28.64,SE,135,2.5,3.8,91,0.00,,---,0.00,VWS V14.01,2013-10-03 11:44:00,
2013-10-03 04:45:00,42.4,40.3,28.64,SE,135,2.9,2.9,92,0.00,,---,0.00,VWS V14.01,2013-10-03 11:45:00,
2013-10-03 04:46:00,42.4,40.3,28.64,SE,135,2.9,2.9,92,0.00,,---,0.00,VWS V14.01,2013-10-03 11:46:00,
2013-10-03 04:47:00,42.3,40.1,28.64,South,180,1.6,2.9,92,0.00,,---,0.00,VWS V14.01,2013-10-03 11:47:00,
2013-10-03 04:48:00,42.3,40.1,28.64,SW,225,0.0,2.7,92,0.00,,---,0.00,VWS V14.01,2013-10-03 11:48:00,
2013-10-03 04:49:00,42.3,40.1,28.64,WNW,292,1.1,1.3,92,0.00,,---,0.00,VWS V14.01,2013-10-03 11:49:00,
2013-10-03 04:50:00,42.1,39.9,28.64,SSE,158,2.5,3.4,92,0.00,,---,0.00,VWS V14.01,2013-10-03 11:50:00,
2013-10-03 04:51:00,42.1,39.9,28.64,ESE,112,1.3,1.3,92,0.00,,---,0.00,VWS V14.01,2013-10-03 11:51:00,
2013-10-03 04:52:00,41.7,39.6,28.64,SW,225,3.4,3.6,92,0.00,,---,0.00,VWS V14.01,2013-10-03 11:52:00,
2013-10-03 04:53:00,42.1,39.9,28.64,NE,45,4.3,4.3,92,0.00,,---,0.00,VWS V14.01,2013-10-03 11:53:00,
2013-10-03 04:54:00,42.1,40.2,28.64,ESE,112,2.0,4.3,93,0.00,,---,0.00,VWS V14.01,2013-10-03 11:54:00,
2013-10-03 04:55:00,42.1,40.2,28.64,NW,315,2.5,2.5,93,0.00,,---,0.00,VWS V14.01,2013-10-03 11:55:00,
2013-10-03 04:56:00,41.9,40.0,28.64,South,180,0.0,0.0,93,0.00,,---,0.00,VWS V14.01,2013-10-03 11:56:00,
2013-10-03 04:57:00,41.9,40.0,28.64,SE,135,1.3,2.5,93,0.00,,---,0.00,VWS V14.01,2013-10-03 11:57:00,
2013-10-03 04:58:00,41.7,39.8,28.64,SSE,158,0.0,2.0,93,0.00,,---,0.00,VWS V14.01,2013-10-03 11:58:00,
2013-10-03 04:59:00,41.7,39.8,28.64,SE,135,1.3,2.0,93,0.00,,---,0.00,VWS V14.01,2013-10-03 11:59:00,
2013-10-03 05:00:00,41.5,39.7,28.64,East,90,2.7,2.9,93,0.00,,---,0.00,VWS V14.01,2013-10-03 12:00:00,
2013-10-03 05:01:00,41.5,39.7,28.64,East,90,2.5,2.9,93,0.00,,---,0.00,VWS V14.01,2013-10-03 12:01:00,
2013-10-03 05:02:00,41.4,39.5,28.64,SSE,158,2.0,2.0,93,0.00,,---,0.00,VWS V14.01,2013-10-03 12:02:00,
2013-10-03 05:03:00,41.5,39.7,28.64,South,180,2.0,2.7,93,0.00,,---,0.00,VWS V14.01,2013-10-03 12:03:00,
2013-10-03 05:04:00,41.4,39.5,28.64,SSE,158,3.4,3.4,93,0.00,,---,0.00,VWS V14.01,2013-10-03 12:04:00,
2013-10-03 05:05:00,41.2,39.3,28.64,South,180,4.9,4.9,93,0.00,,---,0.00,VWS V14.01,2013-10-03 12:05:00,
2013-10-03 05:06:00,41.5,40.0,28.67,South,180,2.5,4.9,94,0.00,,---,0.00,VWS V14.01,2013-10-03 12:06:00,
2013-10-03 05:07:00,41.5,40.0,28.67,SE,135,2.2,3.1,94,0.00,,---,0.00,VWS V14.01,2013-10-03 12:07:00,
2013-10-03 05:08:00,41.5,40.0,28.67,SSE,158,2.7,2.7,94,0.00,,---,0.00,VWS V14.01,2013-10-03 12:08:00,
2013-10-03 05:09:00,41.2,39.6,28.67,SSE,158,2.7,2.7,94,0.00,,---,0.00,VWS V14.01,2013-10-03 12:09:00,
2013-10-03 05:10:00,41.2,39.6,28.67,SE,135,3.4,3.4,94,0.00,,---,0.00,VWS V14.01,2013-10-03 12:10:00,
2013-10-03 05:11:00,41.2,39.9,28.67,SE,135,1.6,1.6,95,0.00,,---,0.00,VWS V14.01,2013-10-03 12:11:00,
2013-10-03 05:12:00,41.2,39.9,28.67,SE,135,1.6,3.4,95,0.00,,---,0.00,VWS V14.01,2013-10-03 12:12:00,
2013-10-03 05:13:00,40.8,39.5,28.67,South,180,1.3,2.5,95,0.00,,---,0.00,VWS V14.01,2013-10-03 12:13:00,
2013-10-03 05:14:00,40.8,39.5,28.67,SSE,158,2.0,2.5,95,0.00,,---,0.00,VWS V14.01,2013-10-03 12:14:00,
2013-10-03 05:15:00,40.8,39.5,28.67,SSE,158,2.7,2.7,95,0.00,,---,0.00,VWS V14.01,2013-10-03 12:15:00,
2013-10-03 05:16:00,40.6,39.3,28.67,ESE,112,2.9,2.9,95,0.00,,---,0.00,VWS V14.01,2013-10-03 12:16:00,
2013-10-03 05:17:00,40.6,39.3,28.67,ESE,112,2.9,3.1,95,0.00,,---,0.00,VWS V14.01,2013-10-03 12:17:00,
2013-10-03 05:18:00,40.6,39.6,28.67,SSE,158,2.7,2.7,96,0.00,,---,0.00,VWS V14.01,2013-10-03 12:18:00,
2013-10-03 05:19:00,40.6,39.6,28.67,SE,135,1.1,1.3,96,0.00,,---,0.00,VWS V14.01,2013-10-03 12:19:00,
2013-10-03 05:20:00,40.6,39.6,28.67,SSW,202,1.1,1.3,96,0.00,,---,0.00,VWS V14.01,2013-10-03 12:20:00,
2013-10-03 05:21:00,40.6,39.6,28.67,ENE,68,2.2,2.7,96,0.00,,---,0.00,VWS V14.01,2013-10-03 12:21:00,
2013-10-03 05:22:00,40.6,39.6,28.67,ENE,68,1.6,2.7,96,0.00,,---,0.00,VWS V14.01,2013-10-03 12:22:00,
2013-10-03 05:23:00,41.0,40.0,28.67,SE,135,3.8,4.3,96,0.00,,---,0.00,VWS V14.01,2013-10-03 12:23:00,
2013-10-03 05:24:00,41.0,40.0,28.67,SE,135,3.8,4.3,96,0.00,,---,0.00,VWS V14.01,2013-10-03 12:24:00,
2013-10-03 05:25:00,41.0,40.0,28.67,SSE,158,3.4,3.4,96,0.00,,---,0.00,VWS V14.01,2013-10-03 12:25:00,
2013-10-03 05:26:00,41.0,40.0,28.67,SSW,202,0.9,0.9,96,0.00,,---,0.00,VWS V14.01,2013-10-03 12:26:00,
2013-10-03 05:27:00,41.2,40.1,28.67,SSE,158,2.2,2.2,96,0.00,,---,0.00,VWS V14.01,2013-10-03 12:27:00,
2013-10-03 05:28:00,41.2,40.1,28.67,SSW,202,0.0,0.0,96,0.00,,---,0.00,VWS V14.01,2013-10-03 12:28:00,
2013-10-03 05:29:00,41.2,40.1,28.67,SSW,202,0.0,0.0,96,0.00,,---,0.00,VWS V14.01,2013-10-03 12:29:00,
2013-10-03 05:30:00,41.0,40.0,28.67,SSE,158,2.7,2.7,96,0.00,,---,0.00,VWS V14.01,2013-10-03 12:30:00,
2013-10-03 05:31:00,41.0,40.0,28.67,South,180,2.0,2.7,96,0.00,,---,0.00,VWS V14.01,2013-10-03 12:31:00,
2013-10-03 05:32:00,41.0,40.0,28.67,SSE,158,1.6,3.1,96,0.00,,---,0.00,VWS V14.01,2013-10-03 12:32:00,
2013-10-03 05:33:00,41.0,40.0,28.67,ESE,112,1.6,2.0,96,0.00,,---,0.00,VWS V14.01,2013-10-03 12:33:00,
2013-10-03 05:34:00,41.0,40.0,28.67,SE,135,2.0,2.0,96,0.00,,---,0.00,VWS V14.01,2013-10-03 12:34:00,
2013-10-03 05:35:00,41.0,40.0,28.67,South,180,2.0,2.0,96,0.00,,---,0.00,VWS V14.01,2013-10-03 12:35:00,
2013-10-03 05:36:00,40.6,39.9,28.70,South,180,1.6,1.6,97,0.00,,---,0.00,VWS V14.01,2013-10-03 12:36:00,
2013-10-03 05:37:00,40.6,39.6,28.70,South,180,0.0,2.0,96,0.00,,---,0.00,VWS V14.01,2013-10-03 12:37:00,
2013-10-03 05:38:00,40.5,39.4,28.70,SSE,158,2.2,2.2,96,0.00,,---,0.00,VWS V14.01,2013-10-03 12:38:00,
2013-10-03 05:39:00,40.5,39.4,28.70,SSE,158,2.2,2.2,96,0.00,,---,0.00,VWS V14.01,2013-10-03 12:39:00,
2013-10-03 05:40:00,40.5,39.4,28.70,South,180,0.9,2.2,96,0.00,,---,0.00,VWS V14.01,2013-10-03 12:40:00,
2013-10-03 05:41:00,40.5,39.4,28.70,SSW,202,1.3,1.6,96,0.00,,---,0.00,VWS V14.01,2013-10-03 12:41:00,
2013-10-03 05:42:00,40.5,39.4,28.70,SW,225,2.9,2.9,96,0.00,,---,0.00,VWS V14.01,2013-10-03 12:42:00,
2013-10-03 05:43:00,40.5,39.4,28.70,South,180,1.1,2.9,96,0.00,,---,0.00,VWS V14.01,2013-10-03 12:43:00,
2013-10-03 05:44:00,40.3,39.2,28.70,SW,225,1.1,2.9,96,0.00,,---,0.00,VWS V14.01,2013-10-03 12:44:00,
2013-10-03 05:45:00,40.3,39.2,28.70,West,270,0.0,1.1,96,0.00,,---,0.00,VWS V14.01,2013-10-03 12:45:00,
2013-10-03 05:46:00,40.3,39.2,28.70,SSE,158,2.0,2.0,96,0.00,,---,0.00,VWS V14.01,2013-10-03 12:46:00,
2013-10-03 05:47:00,40.3,39.2,28.70,SW,225,2.0,2.0,96,0.00,,---,0.00,VWS V14.01,2013-10-03 12:47:00,
2013-10-03 05:48:00,40.1,39.0,28.70,WSW,248,1.1,2.0,96,0.00,,---,0.00,VWS V14.01,2013-10-03 12:48:00,
2013-10-03 05:49:00,40.1,39.0,28.70,WSW,248,2.5,2.9,96,0.00,,---,0.00,VWS V14.01,2013-10-03 12:49:00,
2013-10-03 05:50:00,40.1,39.0,28.70,WSW,248,1.3,2.9,96,0.00,,---,0.00,VWS V14.01,2013-10-03 12:50:00,
2013-10-03 05:51:00,40.3,39.5,28.70,SSW,202,0.9,1.1,97,0.00,,---,0.00,VWS V14.01,2013-10-03 12:51:00,
2013-10-03 05:52:00,40.3,39.5,28.70,ESE,112,2.9,3.8,97,0.00,,---,0.00,VWS V14.01,2013-10-03 12:52:00,
2013-10-03 05:53:00,40.5,39.7,28.70,SSE,158,3.8,3.8,97,0.00,,---,0.00,VWS V14.01,2013-10-03 12:53:00,
2013-10-03 05:54:00,40.5,39.7,28.70,SSE,158,3.8,4.0,97,0.00,,---,0.00,VWS V14.01,2013-10-03 12:54:00,
2013-10-03 05:55:00,41.0,40.2,28.70,East,90,4.9,4.9,97,0.00,,---,0.00,VWS V14.01,2013-10-03 12:55:00,
2013-10-03 05:56:00,41.5,41.0,28.70,ENE,68,2.7,6.5,98,0.00,,---,0.00,VWS V14.01,2013-10-03 12:56:00,
2013-10-03 05:57:00,41.7,41.2,28.70,ENE,68,2.7,2.9,98,0.00,,---,0.00,VWS V14.01,2013-10-03 12:57:00,
2013-10-03 05:58:00,41.7,41.2,28.70,NNE,22,3.6,4.3,98,0.00,,---,0.00,VWS V14.01,2013-10-03 12:58:00,
2013-10-03 05:59:00,41.7,41.2,28.70,NE,45,1.1,4.3,98,0.00,,---,0.00,VWS V14.01,2013-10-03 12:59:00,
2013-10-03 06:00:00,41.9,41.4,28.70,East,90,5.6,8.7,98,0.00,,---,0.00,VWS V14.01,2013-10-03 13:00:00,
2013-10-03 06:01:00,42.3,41.7,28.70,North,0,2.5,4.9,98,0.00,,---,0.00,VWS V14.01,2013-10-03 13:01:00,
2013-10-03 06:02:00,42.3,41.7,28.70,SE,135,0.0,2.5,98,0.00,,---,0.00,VWS V14.01,2013-10-03 13:02:00,
2013-10-03 06:03:00,42.3,41.7,28.70,NNW,338,2.5,4.9,98,0.00,,---,0.00,VWS V14.01,2013-10-03 13:03:00,
2013-10-03 06:04:00,42.3,41.7,28.70,NE,45,3.4,3.8,98,0.00,,---,0.00,VWS V14.01,2013-10-03 13:04:00,
2013-10-03 06:05:00,42.4,41.9,28.73,NNW,338,2.5,6.0,98,0.00,,---,0.00,VWS V14.01,2013-10-03 13:05:00,
2013-10-03 06:06:00,42.4,41.9,28.73,East,90,1.3,6.0,98,0.00,,---,0.00,VWS V14.01,2013-10-03 13:06:00,
2013-10-03 06:07:00,42.8,42.3,28.73,North,0,2.9,6.3,98,0.00,,---,0.00,VWS V14.01,2013-10-03 13:07:00,
2013-10-03 06:08:00,42.8,42.3,28.73,NE,45,2.5,2.7,98,0.00,,---,0.00,VWS V14.01,2013-10-03 13:08:00,
2013-10-03 06:09:00,42.8,42.3,28.73,ESE,112,6.0,6.0,98,0.00,,---,0.00,VWS V14.01,2013-10-03 13:09:00,
2013-10-03 06:10:00,42.8,42.3,28.73,SSE,158,2.7,6.0,98,0.00,,---,0.00,VWS V14.01,2013-10-03 13:10:00,
2013-10-03 06:11:00,42.8,42.3,28.73,SSE,158,2.7,6.0,98,0.00,,---,0.00,VWS V14.01,2013-10-03 13:11:00,
2013-10-03 06:12:00,42.6,42.1,28.73,ENE,68,1.1,2.7,98,0.00,,---,0.00,VWS V14.01,2013-10-03 13:12:00,
2013-10-03 06:13:00,42.1,41.6,28.73,SW,225,1.3,2.0,98,0.00,,---,0.00,VWS V14.01,2013-10-03 13:13:00,
2013-10-03 06:14:00,42.1,41.6,28.73,SSE,158,1.1,2.0,98,0.00,,---,0.00,VWS V14.01,2013-10-03 13:14:00,
2013-10-03 06:15:00,41.9,41.4,28.73,South,180,0.0,1.6,98,0.00,,---,0.00,VWS V14.01,2013-10-03 13:15:00,
2013-10-03 06:16:00,41.9,41.4,28.73,South,180,0.0,1.6,98,0.00,,---,0.00,VWS V14.01,2013-10-03 13:16:00,
2013-10-03 06:17:00,41.9,41.4,28.73,SSW,202,2.2,2.5,98,0.00,,---,0.00,VWS V14.01,2013-10-03 13:17:00,
2013-10-03 06:18:00,41.7,41.2,28.73,SE,135,1.3,1.3,98,0.00,,---,0.00,VWS V14.01,2013-10-03 13:18:00,
2013-10-03 06:19:00,41.7,41.2,28.73,South,180,3.1,3.1,98,0.00,,---,0.00,VWS V14.01,2013-10-03 13:19:00,
2013-10-03 06:20:00,41.7,41.2,28.73,ESE,112,2.5,3.1,98,0.00,,---,0.00,VWS V14.01,2013-10-03 13:20:00,
2013-10-03 06:21:00,41.7,41.2,28.73,ESE,112,2.5,3.1,98,0.00,,---,0.00,VWS V14.01,2013-10-03 13:21:00,
2013-10-03 06:22:00,42.1,41.6,28.73,SE,135,8.1,8.1,98,0.00,,---,0.00,VWS V14.01,2013-10-03 13:22:00,
2013-10-03 06:23:00,42.3,41.7,28.73,East,90,3.6,3.6,98,0.00,,---,0.00,VWS V14.01,2013-10-03 13:23:00,
2013-10-03 06:24:00,42.4,41.9,28.73,East,90,2.0,3.6,98,0.00,,---,0.00,VWS V14.01,2013-10-03 13:24:00,
2013-10-03 06:25:00,42.4,41.9,28.73,WSW,248,2.0,3.6,98,0.00,,---,0.00,VWS V14.01,2013-10-03 13:25:00,
2013-10-03 06:26:00,42.4,41.9,28.73,WSW,248,2.0,3.6,98,0.00,,---,0.00,VWS V14.01,2013-10-03 13:26:00,
2013-10-03 06:27:00,42.6,42.1,28.73,SSW,202,5.4,5.4,98,0.00,,---,0.00,VWS V14.01,2013-10-03 13:27:00,
2013-10-03 06:28:00,42.6,42.1,28.73,SSE,158,3.4,4.9,98,0.00,,---,0.00,VWS V14.01,2013-10-03 13:28:00,
2013-10-03 06:29:00,42.8,42.0,28.73,NE,45,3.1,4.7,97,0.00,,---,0.00,VWS V14.01,2013-10-03 13:29:00,
2013-10-03 06:30:00,42.8,42.0,28.73,NNW,338,2.9,2.9,97,0.00,,---,0.00,VWS V14.01,2013-10-03 13:30:00,
2013-10-03 06:31:00,42.8,42.0,28.73,ENE,68,2.0,2.9,97,0.00,,---,0.00,VWS V14.01,2013-10-03 13:31:00,
2013-10-03 06:32:00,42.8,42.0,28.73,ENE,68,2.7,2.9,97,0.00,,---,0.00,VWS V14.01,2013-10-03 13:32:00,
2013-10-03 06:33:00,42.8,42.0,28.73,SE,135,3.1,3.1,97,0.00,,---,0.00,VWS V14.01,2013-10-03 13:33:00,
2013-10-03 06:34:00,42.6,41.8,28.73,NNE,22,6.3,6.3,97,0.00,,---,0.00,VWS V14.01,2013-10-03 13:34:00,
2013-10-03 06:35:00,42.6,41.8,28.73,SSW,202,2.5,2.5,97,0.00,,---,0.00,VWS V14.01,2013-10-03 13:35:00,
2013-10-03 06:36:00,42.6,41.8,28.73,NE,45,1.6,1.6,97,0.00,,---,0.00,VWS V14.01,2013-10-03 13:36:00,
2013-10-03 06:37:00,42.6,41.8,28.73,NE,45,1.1,2.5,97,0.00,,---,0.00,VWS V14.01,2013-10-03 13:37:00,
2013-10-03 06:38:00,42.4,41.4,28.73,SE,135,2.7,2.7,96,0.00,,---,0.00,VWS V14.01,2013-10-03 13:38:00,
2013-10-03 06:39:00,42.1,41.0,28.73,South,180,3.1,3.1,96,0.00,,---,0.00,VWS V14.01,2013-10-03 13:39:00,
2013-10-03 06:40:00,42.1,41.0,28.73,South,180,2.2,4.9,96,0.00,,---,0.00,VWS V14.01,2013-10-03 13:40:00,
2013-10-03 06:41:00,42.1,41.0,28.73,NE,45,5.4,5.4,96,0.00,,---,0.00,VWS V14.01,2013-10-03 13:41:00,
2013-10-03 06:42:00,42.1,41.0,28.73,NE,45,3.6,5.4,96,0.00,,---,0.00,VWS V14.01,2013-10-03 13:42:00,
2013-10-03 06:43:00,42.3,41.2,28.73,NW,315,0.0,3.6,96,0.00,,---,0.00,VWS V14.01,2013-10-03 13:43:00,
2013-10-03 06:44:00,42.3,41.2,28.73,South,180,0.0,0.0,96,0.00,,---,0.00,VWS V14.01,2013-10-03 13:44:00,
2013-10-03 06:45:00,42.1,40.8,28.73,SE,135,4.0,4.0,95,0.00,,---,0.00,VWS V14.01,2013-10-03 13:45:00,
2013-10-03 06:46:00,42.1,40.8,28.73,NNE,22,2.5,4.0,95,0.00,,---,0.00,VWS V14.01,2013-10-03 13:46:00,
2013-10-03 06:47:00,42.1,40.8,28.73,NNE,22,2.5,4.0,95,0.00,,---,0.00,VWS V14.01,2013-10-03 13:47:00,
2013-10-03 06:48:00,42.3,40.9,28.73,NNW,338,1.6,2.5,95,0.00,,---,0.00,VWS V14.01,2013-10-03 13:48:00,
2013-10-03 06:49:00,41.9,40.6,28.70,SE,135,2.7,3.6,95,0.00,,---,0.00,VWS V14.01,2013-10-03 13:49:00,
2013-10-03 06:50:00,41.7,40.4,28.70,SSW,202,1.3,2.9,95,0.00,,---,0.00,VWS V14.01,2013-10-03 13:50:00,
2013-10-03 06:51:00,41.7,40.4,28.70,West,270,0.0,2.9,95,0.00,,---,0.00,VWS V14.01,2013-10-03 13:51:00,
2013-10-03 06:52:00,41.5,40.2,28.70,SE,135,2.0,2.0,95,0.00,,---,0.00,VWS V14.01,2013-10-03 13:52:00,
2013-10-03 06:53:00,41.5,40.2,28.70,SE,135,2.0,2.0,95,0.00,,---,0.00,VWS V14.01,2013-10-03 13:53:00,
2013-10-03 06:54:00,41.4,40.0,28.70,SW,225,1.6,1.6,95,0.00,,---,0.00,VWS V14.01,2013-10-03 13:54:00,
2013-10-03 06:55:00,41.2,39.9,28.70,SW,225,0.0,2.7,95,0.00,,---,0.00,VWS V14.01,2013-10-03 13:55:00,
2013-10-03 06:56:00,41.2,39.9,28.70,South,180,0.0,2.7,95,0.00,,---,0.00,VWS V14.01,2013-10-03 13:56:00,
2013-10-03 06:57:00,41.0,39.7,28.70,WSW,248,0.0,1.3,95,0.00,,---,0.00,VWS V14.01,2013-10-03 13:57:00,
2013-10-03 06:58:00,41.0,39.7,28.70,WSW,248,1.3,1.3,95,0.00,,---,0.00,VWS V14.01,2013-10-03 13:58:00,
2013-10-03 06:59:00,40.8,39.5,28.70,WSW,248,0.0,2.0,95,0.00,,---,0.00,VWS V14.01,2013-10-03 13:59:00,
2013-10-03 07:00:00,40.8,39.5,28.70,West,270,2.0,2.0,95,0.00,,---,0.00,VWS V14.01,2013-10-03 14:00:00,
2013-10-03 07:01:00,40.8,39.5,28.70,SE,135,2.0,2.9,95,0.00,,---,0.00,VWS V14.01,2013-10-03 14:01:00,
2013-10-03 07:02:00,40.8,39.5,28.70,SSE,158,2.7,2.7,95,0.00,,---,0.00,VWS V14.01,2013-10-03 14:02:00,
2013-10-03 07:03:00,40.8,39.5,28.70,SSE,158,2.7,2.7,95,0.00,,---,0.00,VWS V14.01,2013-10-03 14:03:00,
2013-10-03 07:04:00,41.0,39.7,28.73,WSW,248,1.3,3.6,95,0.00,,---,0.00,VWS V14.01,2013-10-03 14:04:00,
2013-10-03 07:05:00,40.8,39.5,28.70,SSE,158,3.6,3.6,95,0.00,,---,0.00,VWS V14.01,2013-10-03 14:05:00,
2013-10-03 07:06:00,41.0,39.7,28.73,SE,135,2.5,2.9,95,0.00,,---,0.00,VWS V14.01,2013-10-03 14:06:00,
2013-10-03 07:07:00,40.8,39.8,28.73,SE,135,1.3,2.0,96,0.00,,---,0.00,VWS V14.01,2013-10-03 14:07:00,
2013-10-03 07:08:00,40.8,39.8,28.73,SSW,202,2.0,2.9,96,0.00,,---,0.00,VWS V14.01,2013-10-03 14:08:00,
2013-10-03 07:09:00,40.8,39.8,28.73,SE,135,2.5,2.9,96,0.00,,---,0.00,VWS V14.01,2013-10-03 14:09:00,
2013-10-03 07:10:00,40.6,39.6,28.73,SSW,202,0.0,0.0,96,0.00,,---,0.00,VWS V14.01,2013-10-03 14:10:00,
2013-10-03 07:11:00,40.6,39.6,28.73,SSE,158,2.0,2.2,96,0.00,,---,0.00,VWS V14.01,2013-10-03 14:11:00,
2013-10-03 07:12:00,40.6,39.6,28.73,SSW,202,2.7,2.7,96,0.00,,---,0.00,VWS V14.01,2013-10-03 14:12:00,
2013-10-03 07:13:00,40.6,39.6,28.73,SSE,158,2.0,3.1,96,0.00,,---,0.00,VWS V14.01,2013-10-03 14:13:00,
2013-10-03 07:14:00,40.6,39.6,28.73,SSE,158,2.0,3.1,96,0.00,,---,0.00,VWS V14.01,2013-10-03 14:14:00,
2013-10-03 07:15:00,40.6,39.6,28.73,SSW,202,1.3,1.3,96,0.00,,---,0.00,VWS V14.01,2013-10-03 14:15:00,
2013-10-03 07:16:00,40.8,39.8,28.73,SSE,158,2.9,2.9,96,0.00,,---,0.00,VWS V14.01,2013-10-03 14:16:00,
2013-10-03 07:17:00,40.6,39.9,28.73,SE,135,2.2,2.5,97,0.00,,---,0.00,VWS V14.01,2013-10-03 14:17:00,
2013-10-03 07:18:00,40.6,39.9,28.73,SE,135,2.2,2.5,97,0.00,,---,0.00,VWS V14.01,2013-10-03 14:18:00,
2013-10-03 07:19:00,40.6,39.9,28.73,SE,135,2.2,2.5,97,0.00,,---,0.00,VWS V14.01,2013-10-03 14:19:00,
2013-10-03 07:20:00,40.6,39.9,28.73,SE,135,2.5,2.5,97,0.00,,---,0.00,VWS V14.01,2013-10-03 14:20:00,
2013-10-03 07:21:00,40.6,39.9,28.73,South,180,1.1,2.2,97,0.00,,---,0.00,VWS V14.01,2013-10-03 14:21:00,
2013-10-03 07:22:00,40.6,39.9,28.73,SW,225,2.2,2.7,97,0.00,,---,0.00,VWS V14.01,2013-10-03 14:22:00,
2013-10-03 07:23:00,40.6,39.9,28.73,SSW,202,1.6,2.9,97,0.00,,---,0.00,VWS V14.01,2013-10-03 14:23:00,
2013-10-03 07:24:00,40.6,39.9,28.73,NNE,22,0.0,0.0,97,0.00,,---,0.00,VWS V14.01,2013-10-03 14:24:00,
2013-10-03 07:25:00,40.6,39.9,28.73,West,270,0.0,1.3,97,0.00,,---,0.00,VWS V14.01,2013-10-03 14:25:00,
2013-10-03 07:26:00,40.8,40.0,28.73,SSE,158,3.1,3.1,97,0.00,,---,0.00,VWS V14.01,2013-10-03 14:26:00,
2013-10-03 07:27:00,40.8,40.0,28.73,SSE,158,3.1,3.1,97,0.00,,---,0.00,VWS V14.01,2013-10-03 14:27:00,
2013-10-03 07:28:00,40.8,40.0,28.73,SSW,202,0.0,1.3,97,0.00,,---,0.00,VWS V14.01,2013-10-03 14:28:00,
2013-10-03 07:29:00,41.2,40.4,28.73,SW,225,0.9,0.9,97,0.00,,---,0.00,VWS V14.01,2013-10-03 14:29:00,
2013-10-03 07:30:00,41.2,40.4,28.73,SSW,202,0.0,0.0,97,0.00,,---,0.00,VWS V14.01,2013-10-03 14:30:00,
2013-10-03 07:31:00,41.2,40.4,28.73,SSW,202,2.0,2.2,97,0.00,,---,0.00,VWS V14.01,2013-10-03 14:31:00,
2013-10-03 07:32:00,41.2,40.4,28.73,SSW,202,2.0,2.2,97,0.00,,---,0.00,VWS V14.01,2013-10-03 14:32:00,
2013-10-03 07:33:00,41.2,40.4,28.73,SE,135,0.0,0.0,97,0.00,,---,0.00,VWS V14.01,2013-10-03 14:33:00,
2013-10-03 07:34:00,42.3,41.7,28.73,SSE,158,1.1,1.1,98,0.00,,---,0.00,VWS V14.01,2013-10-03 14:34:00,
2013-10-03 07:35:00,42.4,41.9,28.73,SSW,202,2.0,2.5,98,0.00,,---,0.00,VWS V14.01,2013-10-03 14:35:00,
2013-10-03 07:36:00,42.8,42.0,28.73,SW,225,0.0,1.3,97,0.00,,---,0.00,VWS V14.01,2013-10-03 14:36:00,
2013-10-03 07:37:00,42.8,42.0,28.73,WSW,248,0.0,1.3,97,0.00,,---,0.00,VWS V14.01,2013-10-03 14:37:00,
2013-10-03 07:38:00,43.0,42.2,28.73,SSE,158,2.2,2.5,97,0.00,,---,0.00,VWS V14.01,2013-10-03 14:38:00,
2013-10-03 07:39:00,43.2,42.4,28.73,South,180,2.0,2.0,97,0.00,,---,0.00,VWS V14.01,2013-10-03 14:39:00,
2013-10-03 07:40:00,43.2,42.4,28.73,South,180,1.1,2.0,97,0.00,,---,0.00,VWS V14.01,2013-10-03 14:40:00,
2013-10-03 07:41:00,43.3,42.5,28.73,SSW,202,1.3,1.3,97,0.00,,---,0.00,VWS V14.01,2013-10-03 14:41:00,
2013-10-03 07:42:00,43.3,42.5,28.73,SSW,202,2.2,2.2,97,0.00,,---,0.00,VWS V14.01,2013-10-03 14:42:00,
2013-10-03 07:43:00,43.3,42.5,28.73,SSW,202,1.6,1.6,97,0.00,,---,0.00,VWS V14.01,2013-10-03 14:43:00,
2013-10-03 07:44:00,43.5,42.7,28.73,SW,225,0.0,2.5,97,0.00,,---,0.00,VWS V14.01,2013-10-03 14:44:00,
2013-10-03 07:45:00,43.5,42.7,28.73,SW,225,0.0,0.0,97,0.00,,---,0.00,VWS V14.01,2013-10-03 14:45:00,
2013-10-03 07:46:00,43.5,42.7,28.73,SW,225,0.0,0.0,97,0.00,,---,0.00,VWS V14.01,2013-10-03 14:46:00,
2013-10-03 07:47:00,43.5,42.7,28.73,South,180,2.2,2.2,97,0.00,,---,0.00,VWS V14.01,2013-10-03 14:47:00,
2013-10-03 07:48:00,43.5,42.7,28.73,South,180,2.2,2.2,97,0.00,,---,0.00,VWS V14.01,2013-10-03 14:48:00,
2013-10-03 07:49:00,43.9,43.1,28.73,SSW,202,0.0,0.0,97,0.00,,---,0.00,VWS V14.01,2013-10-03 14:49:00,
2013-10-03 07:50:00,43.9,43.1,28.76,SSW,202,0.0,0.0,97,0.00,,---,0.00,VWS V14.01,2013-10-03 14:50:00,
2013-10-03 07:51:00,43.9,43.1,28.76,SSW,202,0.0,0.0,97,0.00,,---,0.00,VWS V14.01,2013-10-03 14:51:00,
2013-10-03 07:52:00,44.2,43.2,28.76,ESE,112,0.0,0.0,96,0.00,,---,0.00,VWS V14.01,2013-10-03 14:52:00,
2013-10-03 07:53:00,44.2,43.2,28.76,ESE,112,0.0,0.0,96,0.00,,---,0.00,VWS V14.01,2013-10-03 14:53:00,
2013-10-03 07:54:00,44.4,43.3,28.76,South,180,2.2,2.7,96,0.00,,---,0.00,VWS V14.01,2013-10-03 14:54:00,
2013-10-03 07:55:00,44.6,43.3,28.76,SW,225,0.0,2.7,95,0.00,,---,0.00,VWS V14.01,2013-10-03 14:55:00,
2013-10-03 07:56:00,44.6,43.3,28.76,WSW,248,0.0,0.0,95,0.00,,---,0.00,VWS V14.01,2013-10-03 14:56:00,
2013-10-03 07:57:00,45.0,43.6,28.76,WSW,248,0.0,0.0,95,0.00,,---,0.00,VWS V14.01,2013-10-03 14:57:00,
2013-10-03 07:58:00,45.0,43.6,28.76,WSW,248,0.0,0.0,95,0.00,,---,0.00,VWS V14.01,2013-10-03 14:58:00,
2013-10-03 07:59:00,45.3,44.0,28.76,WSW,248,0.0,0.0,95,0.00,,---,0.00,VWS V14.01,2013-10-03 14:59:00,
2013-10-03 08:00:00,46.9,45.3,28.76,SSW,202,0.0,2.7,94,0.00,,---,0.00,VWS V14.01,2013-10-03 15:00:00,
2013-10-03 08:01:00,47.5,45.8,28.76,South,180,0.0,0.0,94,0.00,,---,0.00,VWS V14.01,2013-10-03 15:01:00,
2013-10-03 08:02:00,48.0,46.4,28.76,South,180,1.3,1.3,94,0.00,,---,0.00,VWS V14.01,2013-10-03 15:02:00,
2013-10-03 08:03:00,48.0,46.4,28.76,South,180,0.0,1.3,94,0.00,,---,0.00,VWS V14.01,2013-10-03 15:03:00,
2013-10-03 08:04:00,48.0,46.4,28.76,South,180,0.0,1.3,94,0.00,,---,0.00,VWS V14.01,2013-10-03 15:04:00,
2013-10-03 08:05:00,48.7,46.2,28.76,ESE,112,0.9,0.9,91,0.00,,---,0.00,VWS V14.01,2013-10-03 15:05:00,
2013-10-03 08:06:00,48.7,46.2,28.76,SE,135,0.9,1.3,91,0.00,,---,0.00,VWS V14.01,2013-10-03 15:06:00,
2013-10-03 08:07:00,48.9,46.1,28.76,WSW,248,0.0,0.0,90,0.00,,---,0.00,VWS V14.01,2013-10-03 15:07:00,
2013-10-03 08:08:00,48.9,46.1,28.76,WSW,248,0.0,1.1,90,0.00,,---,0.00,VWS V14.01,2013-10-03 15:08:00,
2013-10-03 08:09:00,48.9,46.1,28.76,WSW,248,1.1,1.3,90,0.00,,---,0.00,VWS V14.01,2013-10-03 15:09:00,
2013-10-03 08:10:00,49.6,46.2,28.76,SW,225,0.0,0.0,88,0.00,,---,0.00,VWS V14.01,2013-10-03 15:10:00,
2013-10-03 08:11:00,50.2,46.5,28.76,SSW,202,0.0,0.0,87,0.00,,---,0.00,VWS V14.01,2013-10-03 15:11:00,
2013-10-03 08:12:00,50.7,46.7,28.76,NW,315,0.0,1.1,86,0.00,,---,0.00,VWS V14.01,2013-10-03 15:12:00,
2013-10-03 08:13:00,50.9,46.6,28.76,ENE,68,0.9,0.9,85,0.00,,---,0.00,VWS V14.01,2013-10-03 15:13:00,
2013-10-03 08:14:00,50.7,46.7,28.76,NNE,22,0.0,1.1,86,0.00,,---,0.00,VWS V14.01,2013-10-03 15:14:00,
2013-10-03 08:15:00,50.9,46.6,28.76,SSE,158,2.2,2.2,85,0.00,,---,0.00,VWS V14.01,2013-10-03 15:15:00,
2013-10-03 08:16:00,51.3,46.6,28.76,WSW,248,0.0,0.0,84,0.00,,---,0.00,VWS V14.01,2013-10-03 15:16:00,
2013-10-03 08:17:00,52.0,47.0,28.76,ESE,112,0.0,0.0,83,0.00,,---,0.00,VWS V14.01,2013-10-03 15:17:00,
2013-10-03 08:18:00,52.0,47.0,28.76,ENE,68,0.0,0.0,83,0.00,,---,0.00,VWS V14.01,2013-10-03 15:18:00,
2013-10-03 08:19:00,52.7,48.0,28.76,SSE,158,1.6,1.6,84,0.00,,---,0.00,VWS V14.01,2013-10-03 15:19:00,
2013-10-03 08:20:00,52.7,48.0,28.76,SSE,158,1.6,1.6,84,0.00,,---,0.00,VWS V14.01,2013-10-03 15:20:00,
2013-10-03 08:21:00,53.6,48.2,28.76,ENE,68,1.6,2.5,82,0.00,,---,0.00,VWS V14.01,2013-10-03 15:21:00,
2013-10-03 08:22:00,53.1,48.0,28.76,NNW,338,2.5,3.1,83,0.00,,---,0.00,VWS V14.01,2013-10-03 15:22:00,
2013-10-03 08:23:00,53.6,48.2,28.76,NNE,22,2.5,3.1,82,0.00,,---,0.00,VWS V14.01,2013-10-03 15:23:00,
2013-10-03 08:24:00,53.2,47.9,28.76,ENE,68,2.0,2.2,82,0.00,,---,0.00,VWS V14.01,2013-10-03 15:24:00,
2013-10-03 08:25:00,53.2,47.9,28.76,North,0,2.0,2.5,82,0.00,,---,0.00,VWS V14.01,2013-10-03 15:25:00,
2013-10-03 08:26:00,52.7,46.4,28.76,North,0,2.9,3.4,79,0.00,,---,0.00,VWS V14.01,2013-10-03 15:26:00,
2013-10-03 08:27:00,52.7,46.4,28.76,SE,135,2.0,3.4,79,0.00,,---,0.00,VWS V14.01,2013-10-03 15:27:00,
2013-10-03 08:28:00,53.2,46.9,28.76,SE,135,1.1,1.6,79,0.00,,---,0.00,VWS V14.01,2013-10-03 15:28:00,
2013-10-03 08:29:00,53.2,46.9,28.76,SE,135,1.1,1.6,79,0.00,,---,0.00,VWS V14.01,2013-10-03 15:29:00,
2013-10-03 08:30:00,54.5,48.5,28.76,NNE,22,2.7,2.7,80,0.00,,---,0.00,VWS V14.01,2013-10-03 15:30:00,
2013-10-03 08:31:00,54.7,48.6,28.76,North,0,1.1,2.7,80,0.00,,---,0.00,VWS V14.01,2013-10-03 15:31:00,
2013-10-03 08:32:00,54.5,47.5,28.76,North,0,3.1,3.1,77,0.00,,---,0.00,VWS V14.01,2013-10-03 15:32:00,
2013-10-03 08:33:00,54.3,46.9,28.76,NE,45,2.0,2.7,76,0.00,,---,0.00,VWS V14.01,2013-10-03 15:33:00,
2013-10-03 08:34:00,54.3,46.9,28.76,NNE,22,2.9,2.9,76,0.00,,---,0.00,VWS V14.01,2013-10-03 15:34:00,
2013-10-03 08:35:00,54.3,46.9,28.76,North,0,1.1,1.1,76,0.00,,---,0.00,VWS V14.01,2013-10-03 15:35:00,
2013-10-03 08:36:00,54.3,46.9,28.76,East,90,0.0,1.1,76,0.00,,---,0.00,VWS V14.01,2013-10-03 15:36:00,
2013-10-03 08:37:00,54.1,45.3,28.76,North,0,5.6,5.6,72,0.00,,---,0.00,VWS V14.01,2013-10-03 15:37:00,
2013-10-03 08:38:00,52.7,43.2,28.76,NNE,22,2.9,5.6,70,0.00,,---,0.00,VWS V14.01,2013-10-03 15:38:00,
2013-10-03 08:39:00,52.7,43.2,28.76,NNE,22,2.9,5.6,70,0.00,,---,0.00,VWS V14.01,2013-10-03 15:39:00,
2013-10-03 08:40:00,52.9,43.8,28.76,NE,45,2.7,2.9,71,0.00,,---,0.00,VWS V14.01,2013-10-03 15:40:00,
2013-10-03 08:41:00,52.9,43.8,28.76,NE,45,2.5,2.9,71,0.00,,---,0.00,VWS V14.01,2013-10-03 15:41:00,
2013-10-03 08:42:00,53.1,43.9,28.76,NE,45,4.0,4.0,71,0.00,,---,0.00,VWS V14.01,2013-10-03 15:42:00,
2013-10-03 08:43:00,52.5,43.0,28.76,North,0,3.6,5.4,70,0.00,,---,0.00,VWS V14.01,2013-10-03 15:43:00,
2013-10-03 08:44:00,52.5,43.0,28.76,North,0,3.6,5.4,70,0.00,,---,0.00,VWS V14.01,2013-10-03 15:44:00,
2013-10-03 08:45:00,52.0,42.5,28.76,ENE,68,2.9,3.4,70,0.00,,---,0.00,VWS V14.01,2013-10-03 15:45:00,
2013-10-03 08:46:00,52.0,42.5,28.76,ENE,68,2.9,3.4,70,0.00,,---,0.00,VWS V14.01,2013-10-03 15:46:00,
2013-10-03 08:47:00,52.3,43.2,28.76,North,0,2.9,2.9,71,0.00,,---,0.00,VWS V14.01,2013-10-03 15:47:00,
2013-10-03 08:48:00,52.3,42.9,28.76,North,0,4.0,4.0,70,0.00,,---,0.00,VWS V14.01,2013-10-03 15:48:00,
2013-10-03 08:49:00,52.7,43.2,28.76,ENE,68,2.2,4.0,70,0.00,,---,0.00,VWS V14.01,2013-10-03 15:49:00,
2013-10-03 08:50:00,53.1,43.5,28.76,ENE,68,3.1,3.1,70,0.00,,---,0.00,VWS V14.01,2013-10-03 15:50:00,
2013-10-03 08:51:00,53.1,43.5,28.76,ENE,68,3.1,4.3,70,0.00,,---,0.00,VWS V14.01,2013-10-03 15:51:00,
2013-10-03 08:52:00,53.1,43.5,28.76,SE,135,2.7,3.1,70,0.00,,---,0.00,VWS V14.01,2013-10-03 15:52:00,
2013-10-03 08:53:00,53.6,43.7,28.76,SSW,202,2.9,4.0,69,0.00,,---,0.00,VWS V14.01,2013-10-03 15:53:00,
2013-10-03 08:54:00,53.8,43.1,28.76,ESE,112,3.8,3.8,67,0.00,,---,0.00,VWS V14.01,2013-10-03 15:54:00,
2013-10-03 08:55:00,52.9,43.0,28.76,North,0,1.6,1.6,69,0.00,,---,0.00,VWS V14.01,2013-10-03 15:55:00,
2013-10-03 08:56:00,52.9,43.0,28.76,NNE,22,1.6,3.1,69,0.00,,---,0.00,VWS V14.01,2013-10-03 15:56:00,
2013-10-03 08:57:00,52.2,41.9,28.76,North,0,0.0,1.6,68,0.00,,---,0.00,VWS V14.01,2013-10-03 15:57:00,
2013-10-03 08:58:00,53.2,43.7,28.76,North,0,2.7,2.7,70,0.00,,---,0.00,VWS V14.01,2013-10-03 15:58:00,
2013-10-03 08:59:00,53.6,44.1,28.76,NNW,338,3.6,3.6,70,0.00,,---,0.00,VWS V14.01,2013-10-03 15:59:00,
2013-10-03 09:00:00,53.6,43.7,28.76,NNE,22,2.9,2.9,69,0.00,,---,0.00,VWS V14.01,2013-10-03 16:00:00,
2013-10-03 09:01:00,53.6,43.7,28.76,NNE,22,2.9,4.0,69,0.00,,---,0.00,VWS V14.01,2013-10-03 16:01:00,
2013-10-03 09:02:00,53.1,42.4,28.76,North,0,5.8,5.8,67,0.00,,---,0.00,VWS V14.01,2013-10-03 16:02:00,
2013-10-03 09:03:00,53.6,42.9,28.76,North,0,3.8,3.8,67,0.00,,---,0.00,VWS V14.01,2013-10-03 16:03:00,
2013-10-03 09:04:00,53.8,43.1,28.76,North,0,2.5,3.8,67,0.00,,---,0.00,VWS V14.01,2013-10-03 16:04:00,
2013-10-03 09:05:00,53.8,43.1,28.79,North,0,2.5,3.8,67,0.00,,---,0.00,VWS V14.01,2013-10-03 16:05:00,
2013-10-03 09:06:00,53.8,43.1,28.79,West,270,1.3,3.8,67,0.00,,---,0.00,VWS V14.01,2013-10-03 16:06:00,
2013-10-03 09:07:00,53.8,43.1,28.79,West,270,1.3,1.3,67,0.00,,---,0.00,VWS V14.01,2013-10-03 16:07:00,
2013-10-03 09:08:00,54.7,44.0,28.79,ENE,68,2.9,3.1,67,0.00,,---,0.00,VWS V14.01,2013-10-03 16:08:00,
2013-10-03 09:09:00,54.3,42.4,28.79,ENE,68,2.9,3.1,64,0.00,,---,0.00,VWS V14.01,2013-10-03 16:09:00,
2013-10-03 09:10:00,54.3,43.2,28.79,NNE,22,3.4,3.6,66,0.00,,---,0.00,VWS V14.01,2013-10-03 16:10:00,
2013-10-03 09:11:00,54.3,43.2,28.79,NNE,22,2.9,5.8,66,0.00,,---,0.00,VWS V14.01,2013-10-03 16:11:00,
2013-10-03 09:12:00,54.1,42.2,28.79,NNE,22,3.6,3.6,64,0.00,,---,0.00,VWS V14.01,2013-10-03 16:12:00,
2013-10-03 09:13:00,54.3,42.4,28.79,NE,45,2.7,3.6,64,0.00,,---,0.00,VWS V14.01,2013-10-03 16:13:00,
2013-10-03 09:14:00,54.5,42.6,28.79,NE,45,4.3,4.3,64,0.00,,---,0.00,VWS V14.01,2013-10-03 16:14:00,
2013-10-03 09:15:00,54.5,42.6,28.79,NNE,22,3.1,4.3,64,0.00,,---,0.00,VWS V14.01,2013-10-03 16:15:00,
2013-10-03 09:16:00,54.0,41.7,28.79,NNE,22,4.3,4.3,63,0.00,,---,0.00,VWS V14.01,2013-10-03 16:16:00,
2013-10-03 09:17:00,54.0,41.7,28.79,NNE,22,4.3,4.3,63,0.00,,---,0.00,VWS V14.01,2013-10-03 16:17:00,
2013-10-03 09:18:00,54.1,42.2,28.79,North,0,1.6,4.3,64,0.00,,---,0.00,VWS V14.01,2013-10-03 16:18:00,
2013-10-03 09:19:00,53.6,41.3,28.79,ENE,68,3.4,4.7,63,0.00,,---,0.00,VWS V14.01,2013-10-03 16:19:00,
2013-10-03 09:20:00,53.6,41.3,28.79,NE,45,4.7,4.7,63,0.00,,---,0.00,VWS V14.01,2013-10-03 16:20:00,
2013-10-03 09:21:00,54.0,40.8,28.79,ENE,68,2.7,4.0,61,0.00,,---,0.00,VWS V14.01,2013-10-03 16:21:00,
2013-10-03 09:22:00,54.0,40.8,28.79,NE,45,2.5,4.0,61,0.00,,---,0.00,VWS V14.01,2013-10-03 16:22:00,
2013-10-03 09:23:00,53.6,41.3,28.79,North,0,2.0,3.4,63,0.00,,---,0.00,VWS V14.01,2013-10-03 16:23:00,
2013-10-03 09:24:00,54.1,42.2,28.79,ENE,68,3.4,4.0,64,0.00,,---,0.00,VWS V14.01,2013-10-03 16:24:00,
2013-10-03 09:25:00,54.3,42.4,28.79,North,0,3.1,4.3,64,0.00,,---,0.00,VWS V14.01,2013-10-03 16:25:00,
2013-10-03 09:26:00,54.3,42.4,28.79,North,0,3.1,3.1,64,0.00,,---,0.00,VWS V14.01,2013-10-03 16:26:00,
2013-10-03 09:27:00,54.1,41.8,28.79,North,0,2.0,2.5,63,0.00,,---,0.00,VWS V14.01,2013-10-03 16:27:00,
2013-10-03 09:28:00,54.1,41.8,28.79,North,0,2.5,3.1,63,0.00,,---,0.00,VWS V14.01,2013-10-03 16:28:00,
2013-10-03 09:29:00,54.1,41.8,28.79,NE,45,2.9,3.6,63,0.00,,---,0.00,VWS V14.01,2013-10-03 16:29:00,
2013-10-03 09:30:00,54.1,41.4,28.79,NNE,22,2.9,2.9,62,0.00,,---,0.00,VWS V14.01,2013-10-03 16:30:00,
2013-10-03 09:31:00,54.5,42.2,28.79,NE,45,2.0,3.1,63,0.00,,---,0.00,VWS V14.01,2013-10-03 16:31:00,
2013-10-03 09:32:00,54.9,42.5,28.79,NW,315,2.5,2.7,63,0.00,,---,0.00,VWS V14.01,2013-10-03 16:32:00,
2013-10-03 09:33:00,54.3,42.0,28.79,NNE,22,2.2,2.9,63,0.00,,---,0.00,VWS V14.01,2013-10-03 16:33:00,
2013-10-03 09:34:00,54.3,42.0,28.79,NNE,22,2.2,2.9,63,0.00,,---,0.00,VWS V14.01,2013-10-03 16:34:00,
2013-10-03 09:35:00,54.5,42.6,28.79,ENE,68,2.7,2.7,64,0.00,,---,0.00,VWS V14.01,2013-10-03 16:35:00,
2013-10-03 09:36:00,53.6,40.9,28.79,ENE,68,2.5,2.9,62,0.00,,---,0.00,VWS V14.01,2013-10-03 16:36:00,
2013-10-03 09:37:00,54.0,40.8,28.79,SE,135,3.1,3.4,61,0.00,,---,0.00,VWS V14.01,2013-10-03 16:37:00,
2013-10-03 09:38:00,53.8,40.7,28.79,North,0,3.6,3.6,61,0.00,,---,0.00,VWS V14.01,2013-10-03 16:38:00,
2013-10-03 09:39:00,53.8,40.7,28.79,North,0,3.6,3.6,61,0.00,,---,0.00,VWS V14.01,2013-10-03 16:39:00,
2013-10-03 09:40:00,54.3,41.2,28.79,NNW,338,2.5,2.7,61,0.00,,---,0.00,VWS V14.01,2013-10-03 16:40:00,
2013-10-03 09:41:00,54.1,40.6,28.79,NE,45,2.9,3.6,60,0.00,,---,0.00,VWS V14.01,2013-10-03 16:41:00,
2013-10-03 09:42:00,54.1,40.6,28.79,NE,45,2.9,3.6,60,0.00,,---,0.00,VWS V14.01,2013-10-03 16:42:00,
2013-10-03 09:43:00,53.8,40.2,28.79,ENE,68,3.6,3.8,60,0.00,,---,0.00,VWS V14.01,2013-10-03 16:43:00,
2013-10-03 09:44:00,53.8,40.2,28.79,North,0,3.1,3.6,60,0.00,,---,0.00,VWS V14.01,2013-10-03 16:44:00,
2013-10-03 09:45:00,53.8,40.2,28.79,North,0,3.1,3.6,60,0.00,,---,0.00,VWS V14.01,2013-10-03 16:45:00,
2013-10-03 09:46:00,52.9,39.8,28.79,NE,45,4.9,5.4,61,0.00,,---,0.00,VWS V14.01,2013-10-03 16:46:00,
2013-10-03 09:47:00,52.3,38.9,28.79,North,0,3.4,5.4,60,0.00,,---,0.00,VWS V14.01,2013-10-03 16:47:00,
2013-10-03 09:48:00,52.2,38.7,28.79,NNE,22,2.2,2.2,60,0.00,,---,0.00,VWS V14.01,2013-10-03 16:48:00,
2013-10-03 09:49:00,52.2,38.7,28.79,NNE,22,1.6,4.3,60,0.00,,---,0.00,VWS V14.01,2013-10-03 16:49:00,
2013-10-03 09:50:00,52.9,39.8,28.79,NE,45,4.0,5.4,61,0.00,,---,0.00,VWS V14.01,2013-10-03 16:50:00,
2013-10-03 09:51:00,53.6,40.1,28.79,NE,45,4.0,4.0,60,0.00,,---,0.00,VWS V14.01,2013-10-03 16:51:00,
2013-10-03 09:52:00,54.0,40.4,28.79,NNE,22,3.8,3.8,60,0.00,,---,0.00,VWS V14.01,2013-10-03 16:52:00,
2013-10-03 09:53:00,54.3,40.8,28.79,North,0,2.9,3.6,60,0.00,,---,0.00,VWS V14.01,2013-10-03 16:53:00,
2013-10-03 09:54:00,54.3,40.7,28.79,NNE,22,3.6,4.3,60,0.00,,---,0.00,VWS V14.01,2013-10-03 16:54:00,
2013-10-03 09:55:00,54.1,40.1,28.79,NNW,338,3.8,4.0,59,0.00,,---,0.00,VWS V14.01,2013-10-03 16:55:00,
2013-10-03 09:56:00,54.3,40.3,28.79,NNE,22,2.7,4.0,59,0.00,,---,0.00,VWS V14.01,2013-10-03 16:56:00,
2013-10-03 09:57:00,54.7,41.5,28.79,NE,45,2.9,2.9,61,0.00,,---,0.00,VWS V14.01,2013-10-03 16:57:00,
2013-10-03 09:58:00,54.9,40.8,28.79,NW,315,2.9,6.3,59,0.00,,---,0.00,VWS V14.01,2013-10-03 16:58:00,
2013-10-03 09:59:00,54.7,41.5,28.79,NNE,22,6.3,6.3,61,0.00,,---,0.00,VWS V14.01,2013-10-03 16:59:00,
2013-10-03 10:00:00,55.4,41.3,28.79,ENE,68,1.1,2.9,59,0.00,,---,0.00,VWS V14.01,2013-10-03 17:00:00,
2013-10-03 10:01:00,55.8,42.1,28.79,SE,135,2.0,3.1,60,0.00,,---,0.00,VWS V14.01,2013-10-03 17:01:00,
2013-10-03 10:02:00,56.1,42.4,28.79,West,270,0.9,3.1,60,0.00,,---,0.00,VWS V14.01,2013-10-03 17:02:00,
2013-10-03 10:03:00,56.3,43.0,28.79,North,0,1.3,1.3,61,0.00,,---,0.00,VWS V14.01,2013-10-03 17:03:00,
2013-10-03 10:04:00,56.7,43.4,28.79,ENE,68,2.7,3.8,61,0.00,,---,0.00,VWS V14.01,2013-10-03 17:04:00,
2013-10-03 10:05:00,56.7,42.5,28.79,NNE,22,4.3,4.3,59,0.00,,---,0.00,VWS V14.01,2013-10-03 17:05:00,
2013-10-03 10:06:00,56.1,40.7,28.79,NNE,22,6.0,6.0,56,0.00,,---,0.00,VWS V14.01,2013-10-03 17:06:00,
2013-10-03 10:07:00,55.9,40.5,28.79,NNE,22,2.9,2.9,56,0.00,,---,0.00,VWS V14.01,2013-10-03 17:07:00,
2013-10-03 10:08:00,55.9,40.5,28.79,NNE,22,2.7,3.8,56,0.00,,---,0.00,VWS V14.01,2013-10-03 17:08:00,
2013-10-03 10:09:00,55.9,40.5,28.79,NNE,22,4.3,4.3,56,0.00,,---,0.00,VWS V14.01,2013-10-03 17:09:00,
2013-10-03 10:10:00,55.6,39.7,28.79,NNE,22,5.6,5.6,55,0.00,,---,0.00,VWS V14.01,2013-10-03 17:10:00,
2013-10-03 10:11:00,55.6,39.7,28.79,NNE,22,4.9,6.3,55,0.00,,---,0.00,VWS V14.01,2013-10-03 17:11:00,
2013-10-03 10:12:00,55.9,40.5,28.79,NNE,22,2.9,3.8,56,0.00,,---,0.00,VWS V14.01,2013-10-03 17:12:00,
2013-10-03 10:13:00,55.6,39.2,28.79,NE,45,6.5,6.5,54,0.00,,---,0.00,VWS V14.01,2013-10-03 17:13:00,
2013-10-03 10:14:00,55.2,38.9,28.79,NE,45,4.3,4.3,54,0.00,,---,0.00,VWS V14.01,2013-10-03 17:14:00,
2013-10-03 10:15:00,55.2,38.9,28.79,NE,45,4.3,6.5,54,0.00,,---,0.00,VWS V14.01,2013-10-03 17:15:00,
2013-10-03 10:16:00,55.4,39.0,28.79,North,0,4.9,6.0,54,0.00,,---,0.00,VWS V14.01,2013-10-03 17:16:00,
2013-10-03 10:17:00,55.8,39.8,28.79,North,0,4.0,4.0,55,0.00,,---,0.00,VWS V14.01,2013-10-03 17:17:00,
2013-10-03 10:18:00,55.8,39.8,28.79,NNE,22,4.3,4.3,55,0.00,,---,0.00,VWS V14.01,2013-10-03 17:18:00,
2013-10-03 10:19:00,55.9,40.0,28.79,NNE,22,3.1,3.1,55,0.00,,---,0.00,VWS V14.01,2013-10-03 17:19:00,
2013-10-03 10:20:00,55.9,40.0,28.79,NNE,22,3.1,5.8,55,0.00,,---,0.00,VWS V14.01,2013-10-03 17:20:00,
2013-10-03 10:21:00,55.6,39.7,28.79,NNE,22,6.0,6.0,55,0.00,,---,0.00,VWS V14.01,2013-10-03 17:21:00,
2013-10-03 10:22:00,55.6,39.7,28.79,ENE,68,4.7,6.0,55,0.00,,---,0.00,VWS V14.01,2013-10-03 17:22:00,
2013-10-03 10:23:00,55.4,39.5,28.79,NE,45,4.5,5.4,55,0.00,,---,0.00,VWS V14.01,2013-10-03 17:23:00,
2013-10-03 10:24:00,55.0,39.2,28.79,North,0,3.6,3.8,55,0.00,,---,0.00,VWS V14.01,2013-10-03 17:24:00,
2013-10-03 10:25:00,54.5,39.6,28.79,North,0,2.0,3.8,57,0.00,,---,0.00,VWS V14.01,2013-10-03 17:25:00,
2013-10-03 10:26:00,55.0,39.7,28.79,North,0,3.4,3.4,56,0.00,,---,0.00,VWS V14.01,2013-10-03 17:26:00,
2013-10-03 10:27:00,55.0,39.7,28.79,North,0,3.4,3.4,56,0.00,,---,0.00,VWS V14.01,2013-10-03 17:27:00,
2013-10-03 10:28:00,55.6,40.2,28.79,ENE,68,2.7,4.0,56,0.00,,---,0.00,VWS V14.01,2013-10-03 17:28:00,
2013-10-03 10:29:00,55.6,40.2,28.79,ENE,68,4.0,6.0,56,0.00,,---,0.00,VWS V14.01,2013-10-03 17:29:00,
2013-10-03 10:30:00,56.3,41.3,28.79,NE,45,2.9,2.9,57,0.00,,---,0.00,VWS V14.01,2013-10-03 17:30:00,
2013-10-03 10:31:00,56.5,41.0,28.79,ENE,68,6.5,6.5,56,0.00,,---,0.00,VWS V14.01,2013-10-03 17:31:00,
2013-10-03 10:32:00,56.5,41.0,28.79,East,90,4.0,5.6,56,0.00,,---,0.00,VWS V14.01,2013-10-03 17:32:00,
2013-10-03 10:33:00,56.3,40.4,28.79,NNE,22,4.9,5.8,55,0.00,,---,0.00,VWS V14.01,2013-10-03 17:33:00,
2013-10-03 10:34:00,56.3,40.4,28.79,NE,45,6.3,6.3,55,0.00,,---,0.00,VWS V14.01,2013-10-03 17:34:00,
2013-10-03 10:35:00,56.3,40.4,28.79,NNW,338,4.3,4.3,55,0.00,,---,0.00,VWS V14.01,2013-10-03 17:35:00,
2013-10-03 10:36:00,56.5,40.5,28.79,NNW,338,3.1,3.1,55,0.00,,---,0.00,VWS V14.01,2013-10-03 17:36:00,
2013-10-03 10:37:00,56.3,40.4,28.79,NNW,338,3.1,4.3,55,0.00,,---,0.00,VWS V14.01,2013-10-03 17:37:00,
2013-10-03 10:38:00,56.8,40.9,28.79,NE,45,4.0,4.3,55,0.00,,---,0.00,VWS V14.01,2013-10-03 17:38:00,
2013-10-03 10:39:00,56.8,40.9,28.79,NE,45,4.0,4.3,55,0.00,,---,0.00,VWS V14.01,2013-10-03 17:39:00,
2013-10-03 10:40:00,56.8,40.9,28.79,NE,45,4.3,6.3,55,0.00,,---,0.00,VWS V14.01,2013-10-03 17:40:00,
2013-10-03 10:41:00,56.8,40.4,28.79,ENE,68,4.0,6.5,54,0.00,,---,0.00,VWS V14.01,2013-10-03 17:41:00,
2013-10-03 10:42:00,56.8,40.4,28.79,ENE,68,4.0,6.5,54,0.00,,---,0.00,VWS V14.01,2013-10-03 17:42:00,
2013-10-03 10:43:00,57.2,40.7,28.79,NE,45,6.3,6.3,54,0.00,,---,0.00,VWS V14.01,2013-10-03 17:43:00,
2013-10-03 10:44:00,57.2,40.7,28.79,ENE,68,4.0,5.6,54,0.00,,---,0.00,VWS V14.01,2013-10-03 17:44:00,
2013-10-03 10:45:00,57.2,40.7,28.79,NE,45,5.6,6.3,54,0.00,,---,0.00,VWS V14.01,2013-10-03 17:45:00,
2013-10-03 10:46:00,57.4,40.4,28.79,ENE,68,3.8,3.8,53,0.00,,---,0.00,VWS V14.01,2013-10-03 17:46:00,
2013-10-03 10:47:00,57.7,41.2,28.79,NNE,22,1.6,1.6,54,0.00,,---,0.00,VWS V14.01,2013-10-03 17:47:00,
2013-10-03 10:48:00,57.7,41.2,28.79,NNE,22,1.6,4.3,54,0.00,,---,0.00,VWS V14.01,2013-10-03 17:48:00,
2013-10-03 10:49:00,57.7,41.2,28.79,NNE,22,5.6,5.6,54,0.00,,---,0.00,VWS V14.01,2013-10-03 17:49:00,
2013-10-03 10:50:00,57.6,38.6,28.79,NE,45,3.6,5.6,49,0.00,,---,0.00,VWS V14.01,2013-10-03 17:50:00,
2013-10-03 10:51:00,57.2,38.8,28.79,East,90,4.5,4.5,50,0.00,,---,0.00,VWS V14.01,2013-10-03 17:51:00,
2013-10-03 10:52:00,56.7,38.8,28.79,NE,45,5.8,5.8,51,0.00,,---,0.00,VWS V14.01,2013-10-03 17:52:00,
2013-10-03 10:53:00,56.7,38.8,28.79,NE,45,4.0,6.3,51,0.00,,---,0.00,VWS V14.01,2013-10-03 17:53:00,
2013-10-03 10:54:00,56.7,39.2,28.79,NNE,22,2.9,2.9,52,0.00,,---,0.00,VWS V14.01,2013-10-03 17:54:00,
2013-10-03 10:55:00,56.1,38.3,28.79,NNE,22,5.6,5.6,51,0.00,,---,0.00,VWS V14.01,2013-10-03 17:55:00,
2013-10-03 10:56:00,56.3,38.9,28.79,ENE,68,3.8,5.8,52,0.00,,---,0.00,VWS V14.01,2013-10-03 17:56:00,
2013-10-03 10:57:00,56.7,39.7,28.79,North,0,3.1,5.4,53,0.00,,---,0.00,VWS V14.01,2013-10-03 17:57:00,
2013-10-03 10:58:00,57.0,40.1,28.79,WNW,292,4.9,4.9,53,0.00,,---,0.00,VWS V14.01,2013-10-03 17:58:00,
2013-10-03 10:59:00,57.0,39.1,28.79,NNE,22,5.8,8.7,51,0.00,,---,0.00,VWS V14.01,2013-10-03 17:59:00,
2013-10-03 11:00:00,57.0,39.1,28.79,NNE,22,5.8,8.7,51,0.00,,---,0.00,VWS V14.01,2013-10-03 18:00:00,
2013-10-03 11:01:00,57.0,39.1,28.79,NNE,22,6.3,6.3,51,0.00,,---,0.00,VWS V14.01,2013-10-03 18:01:00,
2013-10-03 11:02:00,57.4,39.4,28.79,North,0,3.8,4.3,51,0.00,,---,0.00,VWS V14.01,2013-10-03 18:02:00,
2013-10-03 11:03:00,57.6,40.1,28.79,NE,45,4.0,7.6,52,0.00,,---,0.00,VWS V14.01,2013-10-03 18:03:00,
2013-10-03 11:04:00,57.6,40.1,28.79,East,90,7.6,7.6,52,0.00,,---,0.00,VWS V14.01,2013-10-03 18:04:00,
2013-10-03 11:05:00,57.0,38.6,28.79,NNW,338,4.0,6.5,50,0.00,,---,0.00,VWS V14.01,2013-10-03 18:05:00,
2013-10-03 11:06:00,57.0,38.6,28.79,ENE,68,3.1,6.5,50,0.00,,---,0.00,VWS V14.01,2013-10-03 18:06:00,
2013-10-03 11:07:00,56.5,38.6,28.79,NNE,22,8.5,8.5,51,0.00,,---,0.00,VWS V14.01,2013-10-03 18:07:00,
2013-10-03 11:08:00,56.5,38.6,28.79,East,90,4.9,5.4,51,0.00,,---,0.00,VWS V14.01,2013-10-03 18:08:00,
2013-10-03 11:09:00,56.7,38.8,28.79,ENE,68,5.4,7.4,51,0.00,,---,0.00,VWS V14.01,2013-10-03 18:09:00,
2013-10-03 11:10:00,57.2,39.2,28.79,ENE,68,4.9,5.6,51,0.00,,---,0.00,VWS V14.01,2013-10-03 18:10:00,
2013-10-03 11:11:00,57.2,39.2,28.79,ENE,68,4.9,5.6,51,0.00,,---,0.00,VWS V14.01,2013-10-03 18:11:00,
2013-10-03 11:12:00,57.4,38.9,28.79,ENE,68,5.4,8.7,50,0.00,,---,0.00,VWS V14.01,2013-10-03 18:12:00,
2013-10-03 11:13:00,57.4,38.9,28.79,ENE,68,3.8,8.7,50,0.00,,---,0.00,VWS V14.01,2013-10-03 18:13:00,
2013-10-03 11:14:00,57.9,40.9,28.79,ENE,68,4.7,4.7,53,0.00,,---,0.00,VWS V14.01,2013-10-03 18:14:00,
2013-10-03 11:15:00,57.9,40.9,28.79,NE,45,5.6,5.6,53,0.00,,---,0.00,VWS V14.01,2013-10-03 18:15:00,
2013-10-03 11:16:00,57.9,40.9,28.79,NE,45,5.6,5.6,53,0.00,,---,0.00,VWS V14.01,2013-10-03 18:16:00,
2013-10-03 11:17:00,58.1,39.6,28.79,NE,45,6.0,6.5,50,0.00,,---,0.00,VWS V14.01,2013-10-03 18:17:00,
2013-10-03 11:18:00,57.9,39.4,28.79,NNE,22,4.9,5.6,50,0.00,,---,0.00,VWS V14.01,2013-10-03 18:18:00,
2013-10-03 11:19:00,57.9,39.4,28.79,East,90,5.6,6.5,50,0.00,,---,0.00,VWS V14.01,2013-10-03 18:19:00,
2013-10-03 11:20:00,58.1,40.1,28.79,NE,45,7.4,7.4,51,0.00,,---,0.00,VWS V14.01,2013-10-03 18:20:00,
2013-10-03 11:21:00,58.5,40.4,28.79,NE,45,7.2,7.4,51,0.00,,---,0.00,VWS V14.01,2013-10-03 18:21:00,
2013-10-03 11:22:00,58.5,40.4,28.79,NE,45,7.2,7.4,51,0.00,,---,0.00,VWS V14.01,2013-10-03 18:22:00,
2013-10-03 11:23:00,57.9,38.4,28.79,ENE,68,2.9,6.3,48,0.00,,---,0.00,VWS V14.01,2013-10-03 18:23:00,
2013-10-03 11:24:00,57.9,38.4,28.79,ENE,68,2.9,6.3,48,0.00,,---,0.00,VWS V14.01,2013-10-03 18:24:00,
2013-10-03 11:25:00,59.4,40.7,28.79,North,0,7.2,7.2,50,0.00,,---,0.00,VWS V14.01,2013-10-03 18:25:00,
2013-10-03 11:26:00,58.6,39.0,28.79,NE,45,9.8,9.8,48,0.00,,---,0.00,VWS V14.01,2013-10-03 18:26:00,
2013-10-03 11:27:00,58.6,39.0,28.79,NE,45,9.8,9.8,48,0.00,,---,0.00,VWS V14.01,2013-10-03 18:27:00,
2013-10-03 11:28:00,58.1,39.6,28.79,NE,45,4.7,7.6,50,0.00,,---,0.00,VWS V14.01,2013-10-03 18:28:00,
2013-10-03 11:29:00,57.2,38.8,28.79,East,90,5.4,8.5,50,0.00,,---,0.00,VWS V14.01,2013-10-03 18:29:00,
2013-10-03 11:30:00,57.4,39.9,28.79,NNE,22,4.7,4.7,52,0.00,,---,0.00,VWS V14.01,2013-10-03 18:30:00,
2013-10-03 11:31:00,57.6,39.1,28.79,NNW,338,3.6,3.6,50,0.00,,---,0.00,VWS V14.01,2013-10-03 18:31:00,
2013-10-03 11:32:00,57.4,39.9,28.79,NNW,338,3.6,5.8,52,0.00,,---,0.00,VWS V14.01,2013-10-03 18:32:00,
2013-10-03 11:33:00,57.6,39.1,28.79,East,90,8.5,8.5,50,0.00,,---,0.00,VWS V14.01,2013-10-03 18:33:00,
2013-10-03 11:34:00,57.6,38.6,28.79,East,90,8.7,8.7,49,0.00,,---,0.00,VWS V14.01,2013-10-03 18:34:00,
2013-10-03 11:35:00,57.6,39.1,28.79,NE,45,4.9,5.4,50,0.00,,---,0.00,VWS V14.01,2013-10-03 18:35:00,
2013-10-03 11:36:00,57.6,39.1,28.79,ENE,68,3.6,5.4,50,0.00,,---,0.00,VWS V14.01,2013-10-03 18:36:00,
2013-10-03 11:37:00,57.6,39.1,28.79,ENE,68,4.9,5.4,50,0.00,,---,0.00,VWS V14.01,2013-10-03 18:37:00,
2013-10-03 11:38:00,58.1,39.6,28.79,NE,45,4.3,5.8,50,0.00,,---,0.00,VWS V14.01,2013-10-03 18:38:00,
2013-10-03 11:39:00,58.6,40.6,28.79,NNE,22,4.0,4.9,51,0.00,,---,0.00,VWS V14.01,2013-10-03 18:39:00,
2013-10-03 11:40:00,58.8,40.2,28.79,NNE,22,6.5,6.5,50,0.00,,---,0.00,VWS V14.01,2013-10-03 18:40:00,
2013-10-03 11:41:00,58.6,39.5,28.79,NE,45,7.6,7.6,49,0.00,,---,0.00,VWS V14.01,2013-10-03 18:41:00,
2013-10-03 11:42:00,58.5,39.9,28.79,ENE,68,8.7,8.7,50,0.00,,---,0.00,VWS V14.01,2013-10-03 18:42:00,
2013-10-03 11:43:00,58.5,39.9,28.79,ENE,68,8.7,8.7,50,0.00,,---,0.00,VWS V14.01,2013-10-03 18:43:00,
2013-10-03 11:44:00,58.5,39.9,28.79,ENE,68,8.7,8.7,50,0.00,,---,0.00,VWS V14.01,2013-10-03 18:44:00,
2013-10-03 11:45:00,57.7,38.2,28.79,NE,45,9.0,9.6,48,0.00,,---,0.00,VWS V14.01,2013-10-03 18:45:00,
2013-10-03 11:46:00,57.9,39.4,28.79,ENE,68,5.6,6.3,50,0.00,,---,0.00,VWS V14.01,2013-10-03 18:46:00,
2013-10-03 11:47:00,57.7,38.2,28.79,NE,45,6.0,7.8,48,0.00,,---,0.00,VWS V14.01,2013-10-03 18:47:00,
2013-10-03 11:48:00,57.7,38.2,28.79,NNE,22,7.8,7.8,48,0.00,,---,0.00,VWS V14.01,2013-10-03 18:48:00,
2013-10-03 11:49:00,57.7,38.2,28.79,ENE,68,3.6,7.8,48,0.00,,---,0.00,VWS V14.01,2013-10-03 18:49:00,
2013-10-03 11:50:00,57.9,38.4,28.79,ENE,68,5.8,8.5,48,0.00,,---,0.00,VWS V14.01,2013-10-03 18:50:00,
2013-10-03 11:51:00,57.9,38.4,28.79,ENE,68,5.8,8.5,48,0.00,,---,0.00,VWS V14.01,2013-10-03 18:51:00,
2013-10-03 11:52:00,57.9,38.4,28.79,ENE,68,5.8,8.5,48,0.00,,---,0.00,VWS V14.01,2013-10-03 18:52:00,
2013-10-03 11:53:00,57.9,39.4,28.79,NE,45,7.2,7.4,50,0.00,,---,0.00,VWS V14.01,2013-10-03 18:53:00,
2013-10-03 11:54:00,57.9,39.4,28.79,NE,45,7.2,7.4,50,0.00,,---,0.00,VWS V14.01,2013-10-03 18:54:00,
2013-10-03 11:55:00,58.5,40.4,28.79,ENE,68,4.0,7.2,51,0.00,,---,0.00,VWS V14.01,2013-10-03 18:55:00,
2013-10-03 11:56:00,58.8,40.2,28.79,NNE,22,5.6,5.6,50,0.00,,---,0.00,VWS V14.01,2013-10-03 18:56:00,
2013-10-03 11:57:00,58.5,39.4,28.79,North,0,4.0,5.6,49,0.00,,---,0.00,VWS V14.01,2013-10-03 18:57:00,
2013-10-03 11:58:00,58.6,39.5,28.79,NE,45,4.7,6.0,49,0.00,,---,0.00,VWS V14.01,2013-10-03 18:58:00,
2013-10-03 11:59:00,58.5,39.4,28.79,NNE,22,3.4,8.1,49,0.00,,---,0.00,VWS V14.01,2013-10-03 18:59:00,
2013-10-03 12:00:00,58.6,39.6,28.79,NE,45,7.6,7.6,49,0.00,,---,0.00,VWS V14.01,2013-10-03 19:00:00,
2013-10-03 12:01:00,58.5,39.4,28.79,NNE,22,6.0,6.0,49,0.00,,---,0.00,VWS V14.01,2013-10-03 19:01:00,
2013-10-03 12:02:00,58.5,39.4,28.79,NNE,22,5.6,6.0,49,0.00,,---,0.00,VWS V14.01,2013-10-03 19:02:00,
2013-10-03 12:03:00,58.1,38.0,28.79,NE,45,8.5,8.5,47,0.00,,---,0.00,VWS V14.01,2013-10-03 19:03:00,
2013-10-03 12:04:00,58.1,38.0,28.79,North,0,5.6,5.6,47,0.00,,---,0.00,VWS V14.01,2013-10-03 19:04:00,
2013-10-03 12:05:00,58.1,38.0,28.79,North,0,5.4,8.5,47,0.00,,---,0.00,VWS V14.01,2013-10-03 19:05:00,
2013-10-03 12:06:00,58.1,38.0,28.79,NNE,22,4.9,5.6,47,0.00,,---,0.00,VWS V14.01,2013-10-03 19:06:00,
2013-10-03 12:07:00,58.6,39.5,28.79,ENE,68,6.0,7.4,49,0.00,,---,0.00,VWS V14.01,2013-10-03 19:07:00,
2013-10-03 12:08:00,58.6,39.6,28.79,ENE,68,6.0,7.4,49,0.00,,---,0.00,VWS V14.01,2013-10-03 19:08:00,
2013-10-03 12:09:00,58.5,39.4,28.79,North,0,7.2,7.2,49,0.00,,---,0.00,VWS V14.01,2013-10-03 19:09:00,
2013-10-03 12:10:00,58.5,38.3,28.79,North,0,7.2,7.2,47,0.00,,---,0.00,VWS V14.01,2013-10-03 19:10:00,
2013-10-03 12:11:00,58.6,39.6,28.79,NNW,338,5.4,7.2,49,0.00,,---,0.00,VWS V14.01,2013-10-03 19:11:00,
2013-10-03 12:12:00,58.8,39.7,28.79,NNE,22,3.8,3.8,49,0.00,,---,0.00,VWS V14.01,2013-10-03 19:12:00,
2013-10-03 12:13:00,58.6,39.0,28.79,ENE,68,4.0,5.6,48,0.00,,---,0.00,VWS V14.01,2013-10-03 19:13:00,
2013-10-03 12:14:00,59.0,39.4,28.79,NE,45,4.3,4.3,48,0.00,,---,0.00,VWS V14.01,2013-10-03 19:14:00,
2013-10-03 12:15:00,59.2,39.5,28.79,ENE,68,4.3,4.3,48,0.00,,---,0.00,VWS V14.01,2013-10-03 19:15:00,
2013-10-03 12:16:00,59.2,39.5,28.79,NE,45,3.1,4.3,48,0.00,,---,0.00,VWS V14.01,2013-10-03 19:16:00,
2013-10-03 12:17:00,59.0,38.8,28.79,ENE,68,4.3,6.7,47,0.00,,---,0.00,VWS V14.01,2013-10-03 19:17:00,
2013-10-03 12:18:00,59.0,38.8,28.79,ENE,68,6.5,6.7,47,0.00,,---,0.00,VWS V14.01,2013-10-03 19:18:00,
2013-10-03 12:19:00,59.4,39.7,28.79,NNE,22,6.0,6.0,48,0.00,,---,0.00,VWS V14.01,2013-10-03 19:19:00,
2013-10-03 12:20:00,59.2,39.0,28.79,NNE,22,3.6,4.3,47,0.00,,---,0.00,VWS V14.01,2013-10-03 19:20:00,
2013-10-03 12:21:00,59.2,39.0,28.79,NNE,22,4.3,7.6,47,0.00,,---,0.00,VWS V14.01,2013-10-03 19:21:00,
2013-10-03 12:22:00,59.4,39.7,28.79,North,0,4.3,4.3,48,0.00,,---,0.00,VWS V14.01,2013-10-03 19:22:00,
2013-10-03 12:23:00,59.2,39.5,28.79,ENE,68,7.4,7.4,48,0.00,,---,0.00,VWS V14.01,2013-10-03 19:23:00,
2013-10-03 12:24:00,59.2,39.0,28.79,ENE,68,6.3,6.3,47,0.00,,---,0.00,VWS V14.01,2013-10-03 19:24:00,
2013-10-03 12:25:00,59.2,39.5,28.79,ENE,68,4.9,7.2,48,0.00,,---,0.00,VWS V14.01,2013-10-03 19:25:00,
2013-10-03 12:26:00,59.2,39.5,28.79,ENE,68,4.9,7.2,48,0.00,,---,0.00,VWS V14.01,2013-10-03 19:26:00,
2013-10-03 12:27:00,58.8,39.2,28.79,North,0,9.0,9.0,48,0.00,,---,0.00,VWS V14.01,2013-10-03 19:27:00,
2013-10-03 12:28:00,58.8,39.2,28.79,ENE,68,8.5,8.5,48,0.00,,---,0.00,VWS V14.01,2013-10-03 19:28:00,
2013-10-03 12:29:00,58.6,39.0,28.79,NNE,22,3.6,8.1,48,0.00,,---,0.00,VWS V14.01,2013-10-03 19:29:00,
2013-10-03 12:30:00,58.6,39.0,28.79,NE,45,3.4,8.1,48,0.00,,---,0.00,VWS V14.01,2013-10-03 19:30:00,
2013-10-03 12:31:00,58.6,39.0,28.79,NE,45,2.7,8.1,48,0.00,,---,0.00,VWS V14.01,2013-10-03 19:31:00,
2013-10-03 12:32:00,59.0,39.9,28.79,NE,45,5.8,6.7,49,0.00,,---,0.00,VWS V14.01,2013-10-03 19:32:00,
2013-10-03 12:33:00,59.2,39.0,28.79,ESE,112,5.8,7.4,47,0.00,,---,0.00,VWS V14.01,2013-10-03 19:33:00,
2013-10-03 12:34:00,59.2,39.0,28.79,NNE,22,5.8,6.0,47,0.00,,---,0.00,VWS V14.01,2013-10-03 19:34:00,
2013-10-03 12:35:00,59.4,40.2,28.79,NNE,22,5.8,7.2,49,0.00,,---,0.00,VWS V14.01,2013-10-03 19:35:00,
2013-10-03 12:36:00,59.4,39.2,28.79,ENE,68,4.9,6.9,47,0.00,,---,0.00,VWS V14.01,2013-10-03 19:36:00,
2013-10-03 12:37:00,59.4,39.2,28.79,NNE,22,3.6,6.9,47,0.00,,---,0.00,VWS V14.01,2013-10-03 19:37:00,
2013-10-03 12:38:00,59.2,39.0,28.79,NE,45,4.9,6.5,47,0.00,,---,0.00,VWS V14.01,2013-10-03 19:38:00,
2013-10-03 12:39:00,59.2,39.0,28.79,NNE,22,5.4,7.8,47,0.00,,---,0.00,VWS V14.01,2013-10-03 19:39:00,
2013-10-03 12:40:00,59.2,39.0,28.79,NE,45,7.4,7.4,47,0.00,,---,0.00,VWS V14.01,2013-10-03 19:40:00,
2013-10-03 12:41:00,59.2,39.0,28.79,NNE,22,3.1,3.1,47,0.00,,---,0.00,VWS V14.01,2013-10-03 19:41:00,
2013-10-03 12:42:00,59.2,39.0,28.79,NNE,22,3.1,7.4,47,0.00,,---,0.00,VWS V14.01,2013-10-03 19:42:00,
2013-10-03 12:43:00,58.8,38.7,28.79,ENE,68,4.0,8.7,47,0.00,,---,0.00,VWS V14.01,2013-10-03 19:43:00,
2013-10-03 12:44:00,58.8,38.7,28.79,ENE,68,6.3,8.7,47,0.00,,---,0.00,VWS V14.01,2013-10-03 19:44:00,
2013-10-03 12:45:00,58.8,38.7,28.79,NE,45,5.8,5.8,47,0.00,,---,0.00,VWS V14.01,2013-10-03 19:45:00,
2013-10-03 12:46:00,58.8,38.7,28.79,NE,45,5.8,10.1,47,0.00,,---,0.00,VWS V14.01,2013-10-03 19:46:00,
2013-10-03 12:47:00,58.5,38.9,28.79,ENE,68,6.0,6.0,48,0.00,,---,0.00,VWS V14.01,2013-10-03 19:47:00,
2013-10-03 12:48:00,59.0,39.9,28.79,ENE,68,6.0,6.0,49,0.00,,---,0.00,VWS V14.01,2013-10-03 19:48:00,
2013-10-03 12:49:00,59.2,39.0,28.79,ENE,68,9.0,9.0,47,0.00,,---,0.00,VWS V14.01,2013-10-03 19:49:00,
2013-10-03 12:50:00,58.8,38.7,28.82,NNE,22,3.6,6.3,47,0.00,,---,0.00,VWS V14.01,2013-10-03 19:50:00,
2013-10-03 12:51:00,58.8,38.7,28.82,North,0,6.3,9.0,47,0.00,,---,0.00,VWS V14.01,2013-10-03 19:51:00,
2013-10-03 12:52:00,59.2,39.0,28.82,NNE,22,3.6,6.0,47,0.00,,---,0.00,VWS V14.01,2013-10-03 19:52:00,
2013-10-03 12:53:00,59.2,39.0,28.82,NNE,22,3.6,6.0,47,0.00,,---,0.00,VWS V14.01,2013-10-03 19:53:00,
2013-10-03 12:54:00,59.2,38.4,28.82,NNE,22,4.9,7.4,46,0.00,,---,0.00,VWS V14.01,2013-10-03 19:54:00,
2013-10-03 12:55:00,59.5,39.3,28.82,East,90,3.4,4.3,47,0.00,,---,0.00,VWS V14.01,2013-10-03 19:55:00,
2013-10-03 12:56:00,59.5,39.3,28.82,ESE,112,4.3,5.8,47,0.00,,---,0.00,VWS V14.01,2013-10-03 19:56:00,
2013-10-03 12:57:00,60.1,39.8,28.82,NNE,22,3.6,5.6,47,0.00,,---,0.00,VWS V14.01,2013-10-03 19:57:00,
2013-10-03 12:58:00,60.1,39.8,28.82,NE,45,4.9,4.9,47,0.00,,---,0.00,VWS V14.01,2013-10-03 19:58:00,
2013-10-03 12:59:00,59.9,39.1,28.82,ENE,68,2.9,2.9,46,0.00,,---,0.00,VWS V14.01,2013-10-03 19:59:00,
2013-10-03 13:00:00,60.1,39.8,28.82,ENE,68,6.3,6.3,47,0.00,,---,0.00,VWS V14.01,2013-10-03 20:00:00,
2013-10-03 13:01:00,59.9,39.6,28.82,NNE,22,6.9,6.9,47,0.00,,---,0.00,VWS V14.01,2013-10-03 20:01:00,
2013-10-03 13:02:00,60.1,40.3,28.82,North,0,5.4,6.0,48,0.00,,---,0.00,VWS V14.01,2013-10-03 20:02:00,
2013-10-03 13:03:00,59.5,38.8,28.82,ESE,112,5.4,5.4,46,0.00,,---,0.00,VWS V14.01,2013-10-03 20:03:00,
2013-10-03 13:04:00,59.5,38.8,28.82,North,0,5.4,6.0,46,0.00,,---,0.00,VWS V14.01,2013-10-03 20:04:00,
2013-10-03 13:05:00,59.7,39.5,28.82,ENE,68,5.6,7.6,47,0.00,,---,0.00,VWS V14.01,2013-10-03 20:05:00,
2013-10-03 13:06:00,59.7,39.5,28.82,North,0,6.3,6.3,47,0.00,,---,0.00,VWS V14.01,2013-10-03 20:06:00,
2013-10-03 13:07:00,59.5,39.8,28.82,ENE,68,6.3,6.7,48,0.00,,---,0.00,VWS V14.01,2013-10-03 20:07:00,
2013-10-03 13:08:00,59.7,39.5,28.82,NNE,22,6.5,6.5,47,0.00,,---,0.00,VWS V14.01,2013-10-03 20:08:00,
2013-10-03 13:09:00,59.7,40.0,28.82,NE,45,4.9,6.5,48,0.00,,---,0.00,VWS V14.01,2013-10-03 20:09:00,
2013-10-03 13:10:00,59.7,40.0,28.82,ENE,68,3.8,6.5,48,0.00,,---,0.00,VWS V14.01,2013-10-03 20:10:00,
2013-10-03 13:11:00,59.7,38.9,28.82,NE,45,5.6,5.6,46,0.00,,---,0.00,VWS V14.01,2013-10-03 20:11:00,
2013-10-03 13:12:00,59.7,38.9,28.82,East,90,5.6,8.5,46,0.00,,---,0.00,VWS V14.01,2013-10-03 20:12:00,
2013-10-03 13:13:00,59.7,38.9,28.82,NE,45,5.6,8.1,46,0.00,,---,0.00,VWS V14.01,2013-10-03 20:13:00,
2013-10-03 13:14:00,59.7,38.9,28.82,NNE,22,6.3,8.1,46,0.00,,---,0.00,VWS V14.01,2013-10-03 20:14:00,
2013-10-03 13:15:00,59.0,38.3,28.82,NE,45,5.6,7.8,46,0.00,,---,0.00,VWS V14.01,2013-10-03 20:15:00,
2013-10-03 13:16:00,58.6,37.9,28.82,NE,45,5.6,10.5,46,0.00,,---,0.00,VWS V14.01,2013-10-03 20:16:00,
2013-10-03 13:17:00,58.6,37.9,28.82,NE,45,5.6,10.5,46,0.00,,---,0.00,VWS V14.01,2013-10-03 20:17:00,
2013-10-03 13:18:00,58.8,39.2,28.82,NNE,22,5.6,8.7,48,0.00,,---,0.00,VWS V14.01,2013-10-03 20:18:00,
2013-10-03 13:19:00,58.8,39.2,28.82,NNE,22,6.5,8.7,48,0.00,,---,0.00,VWS V14.01,2013-10-03 20:19:00,
2013-10-03 13:20:00,58.5,38.3,28.79,NE,45,5.8,10.3,47,0.00,,---,0.00,VWS V14.01,2013-10-03 20:20:00,
2013-10-03 13:21:00,58.8,39.7,28.79,NE,45,4.0,7.4,49,0.00,,---,0.00,VWS V14.01,2013-10-03 20:21:00,
2013-10-03 13:22:00,58.8,39.7,28.79,NE,45,4.0,7.4,49,0.00,,---,0.00,VWS V14.01,2013-10-03 20:22:00,
2013-10-03 13:23:00,59.5,40.4,28.79,East,90,2.7,4.0,49,0.00,,---,0.00,VWS V14.01,2013-10-03 20:23:00,
2013-10-03 13:24:00,59.2,40.0,28.79,NNE,22,8.7,8.7,49,0.00,,---,0.00,VWS V14.01,2013-10-03 20:24:00,
2013-10-03 13:25:00,59.0,39.4,28.79,NNW,338,6.5,8.1,48,0.00,,---,0.00,VWS V14.01,2013-10-03 20:25:00,
2013-10-03 13:26:00,59.0,39.4,28.79,ENE,68,8.5,8.5,48,0.00,,---,0.00,VWS V14.01,2013-10-03 20:26:00,
2013-10-03 13:27:00,59.0,39.4,28.79,ENE,68,8.5,8.5,48,0.00,,---,0.00,VWS V14.01,2013-10-03 20:27:00,
2013-10-03 13:28:00,59.0,39.4,28.79,NNE,22,3.8,8.5,48,0.00,,---,0.00,VWS V14.01,2013-10-03 20:28:00,
2013-10-03 13:29:00,58.6,39.0,28.79,NNE,22,7.2,7.4,48,0.00,,---,0.00,VWS V14.01,2013-10-03 20:29:00,
2013-10-03 13:30:00,58.6,39.0,28.79,NNE,22,7.2,7.4,48,0.00,,---,0.00,VWS V14.01,2013-10-03 20:30:00,
2013-10-03 13:31:00,58.6,39.0,28.79,North,0,4.9,6.5,48,0.00,,---,0.00,VWS V14.01,2013-10-03 20:31:00,
2013-10-03 13:32:00,58.6,39.0,28.79,NNE,22,5.6,6.5,48,0.00,,---,0.00,VWS V14.01,2013-10-03 20:32:00,
2013-10-03 13:33:00,58.6,39.0,28.79,NE,45,6.0,6.0,48,0.00,,---,0.00,VWS V14.01,2013-10-03 20:33:00,
2013-10-03 13:34:00,59.2,39.0,28.79,NE,45,2.7,3.4,47,0.00,,---,0.00,VWS V14.01,2013-10-03 20:34:00,
2013-10-03 13:35:00,59.5,39.8,28.79,NE,45,2.9,4.3,48,0.00,,---,0.00,VWS V14.01,2013-10-03 20:35:00,
2013-10-03 13:36:00,59.7,40.5,28.79,NNE,22,3.8,6.0,49,0.00,,---,0.00,VWS V14.01,2013-10-03 20:36:00,
2013-10-03 13:37:00,59.7,40.5,28.79,NNE,22,3.8,6.0,49,0.00,,---,0.00,VWS V14.01,2013-10-03 20:37:00,
2013-10-03 13:38:00,59.7,40.0,28.79,NNE,22,4.0,6.3,48,0.00,,---,0.00,VWS V14.01,2013-10-03 20:38:00,
2013-10-03 13:39:00,59.7,40.0,28.79,NNE,22,4.0,6.3,48,0.00,,---,0.00,VWS V14.01,2013-10-03 20:39:00,
2013-10-03 13:40:00,59.7,40.0,28.79,North,0,5.4,7.8,48,0.00,,---,0.00,VWS V14.01,2013-10-03 20:40:00,
2013-10-03 13:41:00,59.4,39.2,28.79,NNE,22,6.0,6.0,47,0.00,,---,0.00,VWS V14.01,2013-10-03 20:41:00,
2013-10-03 13:42:00,59.4,39.2,28.79,North,0,7.6,7.6,47,0.00,,---,0.00,VWS V14.01,2013-10-03 20:42:00,
2013-10-03 13:43:00,59.4,39.2,28.79,ENE,68,2.7,5.8,47,0.00,,---,0.00,VWS V14.01,2013-10-03 20:43:00,
2013-10-03 13:44:00,59.4,39.2,28.79,North,0,5.8,6.0,47,0.00,,---,0.00,VWS V14.01,2013-10-03 20:44:00,
2013-10-03 13:45:00,60.1,40.3,28.79,NNE,22,6.0,7.8,48,0.00,,---,0.00,VWS V14.01,2013-10-03 20:45:00,
2013-10-03 13:46:00,59.7,38.9,28.79,NNE,22,4.3,6.0,46,0.00,,---,0.00,VWS V14.01,2013-10-03 20:46:00,
2013-10-03 13:47:00,59.5,39.3,28.79,ENE,68,7.2,8.7,47,0.00,,---,0.00,VWS V14.01,2013-10-03 20:47:00,
2013-10-03 13:48:00,59.7,38.9,28.79,NNE,22,3.8,7.8,46,0.00,,---,0.00,VWS V14.01,2013-10-03 20:48:00,
2013-10-03 13:49:00,59.7,38.9,28.79,East,90,7.8,9.6,46,0.00,,---,0.00,VWS V14.01,2013-10-03 20:49:00,
2013-10-03 13:50:00,59.9,40.7,28.79,NNE,22,8.5,8.5,49,0.00,,---,0.00,VWS V14.01,2013-10-03 20:50:00,
2013-10-03 13:51:00,59.7,39.5,28.79,NE,45,6.3,8.5,47,0.00,,---,0.00,VWS V14.01,2013-10-03 20:51:00,
2013-10-03 13:52:00,60.1,40.3,28.79,East,90,5.4,6.3,48,0.00,,---,0.00,VWS V14.01,2013-10-03 20:52:00,
2013-10-03 13:53:00,60.1,40.3,28.79,East,90,5.4,6.3,48,0.00,,---,0.00,VWS V14.01,2013-10-03 20:53:00,
2013-10-03 13:54:00,59.9,39.6,28.79,NNE,22,5.4,7.8,47,0.00,,---,0.00,VWS V14.01,2013-10-03 20:54:00,
2013-10-03 13:55:00,59.7,40.0,28.79,NNE,22,4.3,8.7,48,0.00,,---,0.00,VWS V14.01,2013-10-03 20:55:00,
2013-10-03 13:56:00,59.7,40.0,28.79,ENE,68,6.3,8.5,48,0.00,,---,0.00,VWS V14.01,2013-10-03 20:56:00,
2013-10-03 13:57:00,59.7,38.9,28.79,North,0,6.3,7.2,46,0.00,,---,0.00,VWS V14.01,2013-10-03 20:57:00,
2013-10-03 13:58:00,59.7,38.9,28.79,North,0,6.3,7.2,46,0.00,,---,0.00,VWS V14.01,2013-10-03 20:58:00,
2013-10-03 13:59:00,59.7,39.5,28.79,NE,45,4.9,10.7,47,0.00,,---,0.00,VWS V14.01,2013-10-03 20:59:00,
2013-10-03 14:00:00,60.3,40.5,28.79,NE,45,3.8,6.5,48,0.00,,---,0.00,VWS V14.01,2013-10-03 21:00:00,
2013-10-03 14:01:00,60.4,40.1,28.79,NE,45,4.5,6.5,47,0.00,,---,0.00,VWS V14.01,2013-10-03 21:01:00,
2013-10-03 14:02:00,60.8,42.1,28.79,NNE,22,7.4,7.4,50,0.00,,---,0.00,VWS V14.01,2013-10-03 21:02:00,
2013-10-03 14:03:00,60.4,40.7,28.79,NNE,22,6.5,7.4,48,0.00,,---,0.00,VWS V14.01,2013-10-03 21:03:00,
2013-10-03 14:04:00,60.6,41.4,28.79,NNE,22,6.5,7.4,49,0.00,,---,0.00,VWS V14.01,2013-10-03 21:04:00,
2013-10-03 14:05:00,60.4,40.7,28.79,NE,45,6.0,7.4,48,0.00,,---,0.00,VWS V14.01,2013-10-03 21:05:00,
2013-10-03 14:06:00,60.3,40.0,28.79,NNW,338,4.9,7.4,47,0.00,,---,0.00,VWS V14.01,2013-10-03 21:06:00,
2013-10-03 14:07:00,60.3,40.0,28.79,East,90,9.4,9.4,47,0.00,,---,0.00,VWS V14.01,2013-10-03 21:07:00,
2013-10-03 14:08:00,60.3,40.0,28.79,NE,45,8.5,9.4,47,0.00,,---,0.00,VWS V14.01,2013-10-03 21:08:00,
2013-10-03 14:09:00,60.3,40.0,28.79,NE,45,4.9,9.4,47,0.00,,---,0.00,VWS V14.01,2013-10-03 21:09:00,
2013-10-03 14:10:00,60.4,41.2,28.79,NNE,22,4.0,6.5,49,0.00,,---,0.00,VWS V14.01,2013-10-03 21:10:00,
2013-10-03 14:11:00,60.6,40.8,28.79,NNE,22,6.0,6.0,48,0.00,,---,0.00,VWS V14.01,2013-10-03 21:11:00,
2013-10-03 14:12:00,60.3,40.0,28.79,North,0,7.8,7.8,47,0.00,,---,0.00,VWS V14.01,2013-10-03 21:12:00,
2013-10-03 14:13:00,60.3,40.0,28.79,ENE,68,7.8,7.8,47,0.00,,---,0.00,VWS V14.01,2013-10-03 21:13:00,
2013-10-03 14:14:00,60.3,40.0,28.79,ENE,68,5.8,7.8,47,0.00,,---,0.00,VWS V14.01,2013-10-03 21:14:00,
2013-10-03 14:15:00,60.1,39.8,28.79,NE,45,5.4,7.6,47,0.00,,---,0.00,VWS V14.01,2013-10-03 21:15:00,
2013-10-03 14:16:00,60.3,40.5,28.79,NNE,22,3.8,8.5,48,0.00,,---,0.00,VWS V14.01,2013-10-03 21:16:00,
2013-10-03 14:17:00,60.3,40.5,28.79,NNE,22,7.6,7.6,48,0.00,,---,0.00,VWS V14.01,2013-10-03 21:17:00,
2013-10-03 14:18:00,60.3,40.5,28.79,NNE,22,4.5,7.6,48,0.00,,---,0.00,VWS V14.01,2013-10-03 21:18:00,
2013-10-03 14:19:00,60.3,40.5,28.79,NNE,22,4.5,7.6,48,0.00,,---,0.00,VWS V14.01,2013-10-03 21:19:00,
2013-10-03 14:20:00,60.3,40.0,28.79,NNE,22,6.3,8.5,47,0.00,,---,0.00,VWS V14.01,2013-10-03 21:20:00,
2013-10-03 14:21:00,60.6,40.3,28.79,ENE,68,5.8,6.0,47,0.00,,---,0.00,VWS V14.01,2013-10-03 21:21:00,
2013-10-03 14:22:00,60.6,40.3,28.79,ENE,68,5.8,6.0,47,0.00,,---,0.00,VWS V14.01,2013-10-03 21:22:00,
2013-10-03 14:23:00,60.6,40.8,28.79,ESE,112,6.9,7.8,48,0.00,,---,0.00,VWS V14.01,2013-10-03 21:23:00,
2013-10-03 14:24:00,60.6,40.8,28.79,East,90,7.2,7.8,48,0.00,,---,0.00,VWS V14.01,2013-10-03 21:24:00,
2013-10-03 14:25:00,60.6,39.8,28.79,NE,45,3.4,7.6,46,0.00,,---,0.00,VWS V14.01,2013-10-03 21:25:00,
2013-10-03 14:26:00,60.4,40.7,28.79,NNE,22,4.9,7.2,48,0.00,,---,0.00,VWS V14.01,2013-10-03 21:26:00,
2013-10-03 14:27:00,60.8,40.5,28.79,NE,45,3.4,7.2,47,0.00,,---,0.00,VWS V14.01,2013-10-03 21:27:00,
2013-10-03 14:28:00,60.6,39.8,28.79,ENE,68,3.1,8.5,46,0.00,,---,0.00,VWS V14.01,2013-10-03 21:28:00,
2013-10-03 14:29:00,60.6,39.8,28.79,ENE,68,3.1,8.5,46,0.00,,---,0.00,VWS V14.01,2013-10-03 21:29:00,
2013-10-03 14:30:00,60.6,39.8,28.79,North,0,4.7,7.4,46,0.00,,---,0.00,VWS V14.01,2013-10-03 21:30:00,
2013-10-03 14:31:00,61.0,40.1,28.79,North,0,5.8,6.3,46,0.00,,---,0.00,VWS V14.01,2013-10-03 21:31:00,
2013-10-03 14:32:00,60.1,38.7,28.79,ENE,68,4.3,7.8,45,0.00,,---,0.00,VWS V14.01,2013-10-03 21:32:00,
2013-10-03 14:33:00,61.0,40.1,28.79,NE,45,3.8,3.8,46,0.00,,---,0.00,VWS V14.01,2013-10-03 21:33:00,
2013-10-03 14:34:00,60.1,38.7,28.79,NE,45,2.9,7.8,45,0.00,,---,0.00,VWS V14.01,2013-10-03 21:34:00,
2013-10-03 14:35:00,60.6,39.8,28.79,ENE,68,6.3,7.6,46,0.00,,---,0.00,VWS V14.01,2013-10-03 21:35:00,
2013-10-03 14:36:00,60.4,39.0,28.79,ENE,68,5.8,6.5,45,0.00,,---,0.00,VWS V14.01,2013-10-03 21:36:00,
2013-10-03 14:37:00,60.4,40.1,28.79,NE,45,5.4,7.6,47,0.00,,---,0.00,VWS V14.01,2013-10-03 21:37:00,
2013-10-03 14:38:00,60.4,39.0,28.79,NE,45,5.4,8.1,45,0.00,,---,0.00,VWS V14.01,2013-10-03 21:38:00,
2013-10-03 14:39:00,60.6,39.2,28.79,NE,45,4.9,6.0,45,0.00,,---,0.00,VWS V14.01,2013-10-03 21:39:00,
2013-10-03 14:40:00,60.6,39.2,28.79,NNE,22,7.2,7.2,45,0.00,,---,0.00,VWS V14.01,2013-10-03 21:40:00,
2013-10-03 14:41:00,60.6,39.8,28.79,NE,45,3.4,7.4,46,0.00,,---,0.00,VWS V14.01,2013-10-03 21:41:00,
2013-10-03 14:42:00,60.8,39.9,28.79,ENE,68,4.3,4.3,46,0.00,,---,0.00,VWS V14.01,2013-10-03 21:42:00,
2013-10-03 14:43:00,61.0,40.6,28.79,NNE,22,6.3,6.3,47,0.00,,---,0.00,VWS V14.01,2013-10-03 21:43:00,
2013-10-03 14:44:00,61.0,40.1,28.79,North,0,4.3,5.4,46,0.00,,---,0.00,VWS V14.01,2013-10-03 21:44:00,
2013-10-03 14:45:00,61.0,40.1,28.79,East,90,7.8,7.8,46,0.00,,---,0.00,VWS V14.01,2013-10-03 21:45:00,
2013-10-03 14:46:00,60.6,39.2,28.79,NNE,22,7.8,7.8,45,0.00,,---,0.00,VWS V14.01,2013-10-03 21:46:00,
2013-10-03 14:47:00,61.2,41.3,28.79,NE,45,4.0,6.3,48,0.00,,---,0.00,VWS V14.01,2013-10-03 21:47:00,
2013-10-03 14:48:00,61.2,41.3,28.79,ENE,68,5.8,7.2,48,0.00,,---,0.00,VWS V14.01,2013-10-03 21:48:00,
2013-10-03 14:49:00,61.0,39.5,28.79,NE,45,6.0,6.3,45,0.00,,---,0.00,VWS V14.01,2013-10-03 21:49:00,
2013-10-03 14:50:00,61.0,39.5,28.79,NE,45,6.0,6.3,45,0.00,,---,0.00,VWS V14.01,2013-10-03 21:50:00,
2013-10-03 14:51:00,60.8,39.9,28.79,ENE,68,5.6,8.5,46,0.00,,---,0.00,VWS V14.01,2013-10-03 21:51:00,
2013-10-03 14:52:00,61.0,40.6,28.79,ENE,68,6.3,7.8,47,0.00,,---,0.00,VWS V14.01,2013-10-03 21:52:00,
2013-10-03 14:53:00,60.8,39.9,28.79,NE,45,5.6,7.8,46,0.00,,---,0.00,VWS V14.01,2013-10-03 21:53:00,
2013-10-03 14:54:00,61.2,40.8,28.79,NNE,22,2.9,2.9,47,0.00,,---,0.00,VWS V14.01,2013-10-03 21:54:00,
2013-10-03 14:55:00,61.2,39.7,28.79,NE,45,5.8,5.8,45,0.00,,---,0.00,VWS V14.01,2013-10-03 21:55:00,
2013-10-03 14:56:00,61.2,40.2,28.79,NE,45,5.8,7.6,46,0.00,,---,0.00,VWS V14.01,2013-10-03 21:56:00,
2013-10-03 14:57:00,61.0,39.5,28.79,NE,45,7.4,7.8,45,0.00,,---,0.00,VWS V14.01,2013-10-03 21:57:00,
2013-10-03 14:58:00,60.8,39.9,28.79,East,90,5.8,10.5,46,0.00,,---,0.00,VWS V14.01,2013-10-03 21:58:00,
2013-10-03 14:59:00,60.8,41.0,28.79,NNE,22,8.5,8.5,48,0.00,,---,0.00,VWS V14.01,2013-10-03 21:59:00,
2013-10-03 15:00:00,60.8,41.0,28.79,NE,45,5.4,7.8,48,0.00,,---,0.00,VWS V14.01,2013-10-03 22:00:00,
2013-10-03 15:01:00,60.8,41.0,28.79,ENE,68,7.8,8.5,48,0.00,,---,0.00,VWS V14.01,2013-10-03 22:01:00,
2013-10-03 15:02:00,60.8,40.5,28.79,North,0,5.4,8.7,47,0.00,,---,0.00,VWS V14.01,2013-10-03 22:02:00,
2013-10-03 15:03:00,60.6,40.3,28.79,NNE,22,10.3,10.3,47,0.00,,---,0.00,VWS V14.01,2013-10-03 22:03:00,
2013-10-03 15:04:00,60.3,38.8,28.79,NE,45,6.0,9.8,45,0.00,,---,0.00,VWS V14.01,2013-10-03 22:04:00,
2013-10-03 15:05:00,60.3,38.8,28.79,North,0,6.5,9.8,45,0.00,,---,0.00,VWS V14.01,2013-10-03 22:05:00,
2013-10-03 15:06:00,60.3,38.8,28.79,East,90,6.3,8.7,45,0.00,,---,0.00,VWS V14.01,2013-10-03 22:06:00,
2013-10-03 15:07:00,60.3,38.8,28.79,ENE,68,7.8,8.7,45,0.00,,---,0.00,VWS V14.01,2013-10-03 22:07:00,
2013-10-03 15:08:00,60.1,39.2,28.79,North,0,10.7,10.7,46,0.00,,---,0.00,VWS V14.01,2013-10-03 22:08:00,
2013-10-03 15:09:00,60.3,40.0,28.79,NNE,22,6.5,7.4,47,0.00,,---,0.00,VWS V14.01,2013-10-03 22:09:00,
2013-10-03 15:10:00,59.9,39.1,28.79,NNE,22,6.5,6.5,46,0.00,,---,0.00,VWS V14.01,2013-10-03 22:10:00,
2013-10-03 15:11:00,59.9,39.1,28.79,NE,45,7.8,8.7,46,0.00,,---,0.00,VWS V14.01,2013-10-03 22:11:00,
2013-10-03 15:12:00,60.1,39.8,28.79,ENE,68,6.5,8.7,47,0.00,,---,0.00,VWS V14.01,2013-10-03 22:12:00,
2013-10-03 15:13:00,60.3,40.0,28.79,NNE,22,6.0,6.5,47,0.00,,---,0.00,VWS V14.01,2013-10-03 22:13:00,
2013-10-03 15:14:00,60.1,39.8,28.79,ENE,68,6.0,8.1,47,0.00,,---,0.00,VWS V14.01,2013-10-03 22:14:00,
2013-10-03 15:15:00,59.9,39.6,28.79,East,90,3.6,12.3,47,0.00,,---,0.00,VWS V14.01,2013-10-03 22:15:00,
2013-10-03 15:16:00,60.1,40.9,28.79,NE,45,4.0,5.6,49,0.00,,---,0.00,VWS V14.01,2013-10-03 22:16:00,
2013-10-03 15:17:00,60.1,40.9,28.79,NE,45,4.0,5.6,49,0.00,,---,0.00,VWS V14.01,2013-10-03 22:17:00,
2013-10-03 15:18:00,60.1,39.8,28.79,NNE,22,5.6,8.5,47,0.00,,---,0.00,VWS V14.01,2013-10-03 22:18:00,
2013-10-03 15:19:00,60.1,39.8,28.79,East,90,9.4,9.4,47,0.00,,---,0.00,VWS V14.01,2013-10-03 22:19:00,
2013-10-03 15:20:00,59.9,40.2,28.79,NE,45,7.6,7.6,48,0.00,,---,0.00,VWS V14.01,2013-10-03 22:20:00,
2013-10-03 15:21:00,59.9,39.6,28.79,NE,45,6.5,6.5,47,0.00,,---,0.00,VWS V14.01,2013-10-03 22:21:00,
2013-10-03 15:22:00,59.9,39.6,28.79,ENE,68,6.5,7.6,47,0.00,,---,0.00,VWS V14.01,2013-10-03 22:22:00,
2013-10-03 15:23:00,60.1,40.3,28.79,NNE,22,5.6,7.6,48,0.00,,---,0.00,VWS V14.01,2013-10-03 22:23:00,
2013-10-03 15:24:00,60.1,40.3,28.79,ENE,68,7.8,7.8,48,0.00,,---,0.00,VWS V14.01,2013-10-03 22:24:00,
2013-10-03 15:25:00,60.3,40.0,28.79,East,90,4.3,5.6,47,0.00,,---,0.00,VWS V14.01,2013-10-03 22:25:00,
2013-10-03 15:26:00,60.3,40.0,28.79,East,90,4.3,5.6,47,0.00,,---,0.00,VWS V14.01,2013-10-03 22:26:00,
2013-10-03 15:27:00,60.3,40.0,28.79,ENE,68,4.9,5.6,47,0.00,,---,0.00,VWS V14.01,2013-10-03 22:27:00,
2013-10-03 15:28:00,60.1,40.3,28.79,NNW,338,5.8,9.6,48,0.00,,---,0.00,VWS V14.01,2013-10-03 22:28:00,
2013-10-03 15:29:00,59.9,40.2,28.79,East,90,7.2,7.2,48,0.00,,---,0.00,VWS V14.01,2013-10-03 22:29:00,
2013-10-03 15:30:00,59.9,40.7,28.79,NE,45,4.3,4.3,49,0.00,,---,0.00,VWS V14.01,2013-10-03 22:30:00,
2013-10-03 15:31:00,60.3,41.6,28.79,NE,45,4.3,4.3,50,0.00,,---,0.00,VWS V14.01,2013-10-03 22:31:00,
2013-10-03 15:32:00,60.1,40.3,28.79,ENE,68,5.4,7.2,48,0.00,,---,0.00,VWS V14.01,2013-10-03 22:32:00,
2013-10-03 15:33:00,60.1,40.3,28.79,ENE,68,4.7,7.2,48,0.00,,---,0.00,VWS V14.01,2013-10-03 22:33:00,
2013-10-03 15:34:00,59.9,40.2,28.79,NE,45,6.3,7.6,48,0.00,,---,0.00,VWS V14.01,2013-10-03 22:34:00,
2013-10-03 15:35:00,60.1,40.3,28.79,ENE,68,6.3,7.8,48,0.00,,---,0.00,VWS V14.01,2013-10-03 22:35:00,
2013-10-03 15:36:00,59.7,40.0,28.79,NNE,22,9.0,9.0,48,0.00,,---,0.00,VWS V14.01,2013-10-03 22:36:00,
2013-10-03 15:37:00,59.7,40.0,28.79,NNE,22,7.8,9.0,48,0.00,,---,0.00,VWS V14.01,2013-10-03 22:37:00,
2013-10-03 15:38:00,59.7,40.0,28.79,ENE,68,6.3,9.0,48,0.00,,---,0.00,VWS V14.01,2013-10-03 22:38:00,
2013-10-03 15:39:00,59.5,39.3,28.79,NNE,22,7.8,8.1,47,0.00,,---,0.00,VWS V14.01,2013-10-03 22:39:00,
2013-10-03 15:40:00,59.2,39.5,28.79,NNE,22,6.3,7.8,48,0.00,,---,0.00,VWS V14.01,2013-10-03 22:40:00,
2013-10-03 15:41:00,59.2,39.5,28.79,North,0,3.6,3.6,48,0.00,,---,0.00,VWS V14.01,2013-10-03 22:41:00,
2013-10-03 15:42:00,59.2,39.5,28.79,NE,45,2.9,6.5,48,0.00,,---,0.00,VWS V14.01,2013-10-03 22:42:00,
2013-10-03 15:43:00,59.9,40.7,28.79,NE,45,3.1,6.5,49,0.00,,---,0.00,VWS V14.01,2013-10-03 22:43:00,
2013-10-03 15:44:00,60.3,40.5,28.79,NNE,22,2.7,2.7,48,0.00,,---,0.00,VWS V14.01,2013-10-03 22:44:00,
2013-10-03 15:45:00,60.4,41.2,28.79,North,0,4.0,5.4,49,0.00,,---,0.00,VWS V14.01,2013-10-03 22:45:00,
2013-10-03 15:46:00,60.3,40.5,28.79,NE,45,4.0,5.6,48,0.00,,---,0.00,VWS V14.01,2013-10-03 22:46:00,
2013-10-03 15:47:00,60.3,40.5,28.79,NE,45,4.0,5.6,48,0.00,,---,0.00,VWS V14.01,2013-10-03 22:47:00,
2013-10-03 15:48:00,60.3,40.5,28.79,NE,45,4.0,5.6,48,0.00,,---,0.00,VWS V14.01,2013-10-03 22:48:00,
2013-10-03 15:49:00,60.3,39.4,28.82,NE,45,4.9,8.7,46,0.00,,---,0.00,VWS V14.01,2013-10-03 22:49:00,
2013-10-03 15:50:00,60.3,40.5,28.82,NNW,338,7.2,7.2,48,0.00,,---,0.00,VWS V14.01,2013-10-03 22:50:00,
2013-10-03 15:51:00,60.1,40.3,28.82,ENE,68,7.4,8.1,48,0.00,,---,0.00,VWS V14.01,2013-10-03 22:51:00,
2013-10-03 15:52:00,60.1,40.3,28.82,ENE,68,8.5,8.5,48,0.00,,---,0.00,VWS V14.01,2013-10-03 22:52:00,
2013-10-03 15:53:00,59.9,40.2,28.82,NNE,22,7.4,7.4,48,0.00,,---,0.00,VWS V14.01,2013-10-03 22:53:00,
2013-10-03 15:54:00,59.9,40.2,28.82,NE,45,5.4,5.4,48,0.00,,---,0.00,VWS V14.01,2013-10-03 22:54:00,
2013-10-03 15:55:00,59.9,40.2,28.82,NE,45,4.3,7.4,48,0.00,,---,0.00,VWS V14.01,2013-10-03 22:55:00,
2013-10-03 15:56:00,60.1,40.3,28.82,NE,45,5.8,5.8,48,0.00,,---,0.00,VWS V14.01,2013-10-03 22:56:00,
2013-10-03 15:57:00,60.1,40.3,28.82,NNE,22,5.6,7.8,48,0.00,,---,0.00,VWS V14.01,2013-10-03 22:57:00,
2013-10-03 15:58:00,60.1,40.3,28.82,NNE,22,7.4,7.8,48,0.00,,---,0.00,VWS V14.01,2013-10-03 22:58:00,
2013-10-03 15:59:00,59.9,40.2,28.82,NE,45,8.1,8.1,48,0.00,,---,0.00,VWS V14.01,2013-10-03 22:59:00,
2013-10-03 16:00:00,59.9,40.2,28.82,NE,45,8.1,8.1,48,0.00,,---,0.00,VWS V14.01,2013-10-03 23:00:00,
2013-10-03 16:01:00,60.1,40.3,28.82,ENE,68,2.9,4.0,48,0.00,,---,0.00,VWS V14.01,2013-10-03 23:01:00,
2013-10-03 16:02:00,60.1,40.3,28.82,East,90,8.5,8.5,48,0.00,,---,0.00,VWS V14.01,2013-10-03 23:02:00,
2013-10-03 16:03:00,59.9,40.7,28.82,NE,45,6.0,8.5,49,0.00,,---,0.00,VWS V14.01,2013-10-03 23:03:00,
2013-10-03 16:04:00,59.4,39.2,28.82,NE,45,9.8,9.8,47,0.00,,---,0.00,VWS V14.01,2013-10-03 23:04:00,
2013-10-03 16:05:00,59.9,39.6,28.82,NE,45,9.8,9.8,47,0.00,,---,0.00,VWS V14.01,2013-10-03 23:05:00,
2013-10-03 16:06:00,59.2,39.0,28.82,NE,45,6.0,9.8,47,0.00,,---,0.00,VWS V14.01,2013-10-03 23:06:00,
2013-10-03 16:07:00,59.5,40.4,28.82,NNE,22,5.8,7.8,49,0.00,,---,0.00,VWS V14.01,2013-10-03 23:07:00,
2013-10-03 16:08:00,59.4,40.2,28.82,NNE,22,5.6,6.3,49,0.00,,---,0.00,VWS V14.01,2013-10-03 23:08:00,
2013-10-03 16:09:00,59.4,40.2,28.82,NNE,22,5.6,6.3,49,0.00,,---,0.00,VWS V14.01,2013-10-03 23:09:00,
2013-10-03 16:10:00,59.5,40.4,28.82,East,90,4.9,6.0,49,0.00,,---,0.00,VWS V14.01,2013-10-03 23:10:00,
2013-10-03 16:11:00,59.5,39.8,28.82,NNE,22,9.6,9.6,48,0.00,,---,0.00,VWS V14.01,2013-10-03 23:11:00,
2013-10-03 16:12:00,59.5,40.4,28.82,NE,45,5.4,9.6,49,0.00,,---,0.00,VWS V14.01,2013-10-03 23:12:00,
2013-10-03 16:13:00,59.4,39.7,28.82,NE,45,5.4,6.5,48,0.00,,---,0.00,VWS V14.01,2013-10-03 23:13:00,
2013-10-03 16:14:00,59.4,39.7,28.82,NE,45,5.4,6.5,48,0.00,,---,0.00,VWS V14.01,2013-10-03 23:14:00,
2013-10-03 16:15:00,59.5,40.4,28.82,North,0,4.0,5.8,49,0.00,,---,0.00,VWS V14.01,2013-10-03 23:15:00,
2013-10-03 16:16:00,59.7,40.5,28.82,East,90,6.5,6.5,49,0.00,,---,0.00,VWS V14.01,2013-10-03 23:16:00,
2013-10-03 16:17:00,59.7,40.5,28.82,ENE,68,6.3,9.8,49,0.00,,---,0.00,VWS V14.01,2013-10-03 23:17:00,
2013-10-03 16:18:00,59.5,39.8,28.82,NNE,22,2.9,6.3,48,0.00,,---,0.00,VWS V14.01,2013-10-03 23:18:00,
2013-10-03 16:19:00,59.5,39.8,28.82,NNE,22,2.9,6.3,48,0.00,,---,0.00,VWS V14.01,2013-10-03 23:19:00,
2013-10-03 16:20:00,59.4,39.7,28.82,ENE,68,7.8,7.8,48,0.00,,---,0.00,VWS V14.01,2013-10-03 23:20:00,
2013-10-03 16:21:00,59.5,40.4,28.82,NE,45,3.4,5.6,49,0.00,,---,0.00,VWS V14.01,2013-10-03 23:21:00,
2013-10-03 16:22:00,59.5,40.4,28.82,ENE,68,5.4,5.4,49,0.00,,---,0.00,VWS V14.01,2013-10-03 23:22:00,
2013-10-03 16:23:00,59.4,39.7,28.82,North,0,4.0,4.0,48,0.00,,---,0.00,VWS V14.01,2013-10-03 23:23:00,
2013-10-03 16:24:00,59.7,40.0,28.82,NNE,22,4.0,6.0,48,0.00,,---,0.00,VWS V14.01,2013-10-03 23:24:00,
2013-10-03 16:25:00,59.7,40.0,28.82,NNE,22,6.0,6.0,48,0.00,,---,0.00,VWS V14.01,2013-10-03 23:25:00,
2013-10-03 16:26:00,59.7,40.0,28.82,NNE,22,3.6,5.4,48,0.00,,---,0.00,VWS V14.01,2013-10-03 23:26:00,
2013-10-03 16:27:00,59.9,40.2,28.82,ENE,68,2.7,2.7,48,0.00,,---,0.00,VWS V14.01,2013-10-03 23:27:00,
2013-10-03 16:28:00,59.9,40.2,28.82,North,0,4.3,7.6,48,0.00,,---,0.00,VWS V14.01,2013-10-03 23:28:00,
2013-10-03 16:29:00,59.7,40.0,28.82,North,0,4.9,4.9,48,0.00,,---,0.00,VWS V14.01,2013-10-03 23:29:00,
2013-10-03 16:30:00,59.7,40.0,28.82,NE,45,3.6,7.6,48,0.00,,---,0.00,VWS V14.01,2013-10-03 23:30:00,
2013-10-03 16:31:00,59.7,39.5,28.82,NE,45,6.0,8.5,47,0.00,,---,0.00,VWS V14.01,2013-10-03 23:31:00,
2013-10-03 16:32:00,59.4,39.7,28.82,ENE,68,5.4,7.8,48,0.00,,---,0.00,VWS V14.01,2013-10-03 23:32:00,
2013-10-03 16:33:00,59.4,39.7,28.82,NNE,22,5.6,6.3,48,0.00,,---,0.00,VWS V14.01,2013-10-03 23:33:00,
2013-10-03 16:34:00,59.5,39.8,28.82,East,90,4.3,5.8,48,0.00,,---,0.00,VWS V14.01,2013-10-03 23:34:00,
2013-10-03 16:35:00,59.4,39.7,28.82,NNE,22,3.8,6.0,48,0.00,,---,0.00,VWS V14.01,2013-10-03 23:35:00,
2013-10-03 16:36:00,59.4,39.7,28.82,ENE,68,5.6,6.5,48,0.00,,---,0.00,VWS V14.01,2013-10-03 23:36:00,
2013-10-03 16:37:00,59.5,40.4,28.82,ENE,68,4.0,4.9,49,0.00,,---,0.00,VWS V14.01,2013-10-03 23:37:00,
2013-10-03 16:38:00,59.5,40.4,28.82,ENE,68,6.3,6.5,49,0.00,,---,0.00,VWS V14.01,2013-10-03 23:38:00,
2013-10-03 16:39:00,59.5,39.8,28.82,NE,45,3.1,6.3,48,0.00,,---,0.00,VWS V14.01,2013-10-03 23:39:00,
2013-10-03 16:41:00,59.5,39.8,28.82,NE,45,3.1,6.3,48,0.00,,---,0.00,VWS V14.01,2013-10-03 23:41:00,
2013-10-03 16:42:00,59.5,39.8,28.82,East,90,4.9,4.9,48,0.00,,---,0.00,VWS V14.01,2013-10-03 23:42:00,
2013-10-03 16:43:00,59.7,40.0,28.82,East,90,3.1,4.0,48,0.00,,---,0.00,VWS V14.01,2013-10-03 23:43:00,
2013-10-03 16:44:00,59.7,40.5,28.82,NNE,22,4.7,4.7,49,0.00,,---,0.00,VWS V14.01,2013-10-03 23:44:00,
2013-10-03 16:45:00,59.9,40.7,28.82,NE,45,4.0,4.7,49,0.00,,---,0.00,VWS V14.01,2013-10-03 23:45:00,
2013-10-03 16:46:00,59.9,40.7,28.82,NE,45,4.0,4.7,49,0.00,,---,0.00,VWS V14.01,2013-10-03 23:46:00,
2013-10-03 16:47:00,60.1,40.9,28.82,NE,45,3.4,3.4,49,0.00,,---,0.00,VWS V14.01,2013-10-03 23:47:00,
2013-10-03 16:48:00,59.7,40.5,28.82,ENE,68,6.0,6.3,49,0.00,,---,0.00,VWS V14.01,2013-10-03 23:48:00,
2013-10-03 16:49:00,59.7,40.5,28.82,East,90,4.3,5.6,49,0.00,,---,0.00,VWS V14.01,2013-10-03 23:49:00,
2013-10-03 16:50:00,59.7,40.5,28.82,East,90,4.3,5.6,49,0.00,,---,0.00,VWS V14.01,2013-10-03 23:50:00,
2013-10-03 16:51:00,59.9,40.7,28.82,East,90,2.9,5.6,49,0.00,,---,0.00,VWS V14.01,2013-10-03 23:51:00,
2013-10-03 16:52:00,59.9,41.8,28.82,NE,45,3.1,3.6,51,0.00,,---,0.00,VWS V14.01,2013-10-03 23:52:00,
2013-10-03 16:53:00,59.9,41.8,28.82,SE,135,3.6,4.9,51,0.00,,---,0.00,VWS V14.01,2013-10-03 23:53:00,
2013-10-03 16:54:00,60.1,41.4,28.82,NE,45,2.9,3.4,50,0.00,,---,0.00,VWS V14.01,2013-10-03 23:54:00,
2013-10-03 16:55:00,59.7,40.0,28.82,North,0,2.0,2.9,48,0.00,,---,0.00,VWS V14.01,2013-10-03 23:55:00,
2013-10-03 16:56:00,59.9,40.7,28.82,NE,45,1.1,1.1,49,0.00,,---,0.00,VWS V14.01,2013-10-03 23:56:00,
2013-10-03 16:57:00,59.9,40.7,28.82,NE,45,1.1,2.9,49,0.00,,---,0.00,VWS V14.01,2013-10-03 23:57:00,
2013-10-03 16:58:00,60.4,41.2,28.82,WNW,292,2.7,2.7,49,0.00,,---,0.00,VWS V14.01,2013-10-03 23:58:00,
2013-10-03 16:59:00,60.3,40.5,28.82,NW,315,1.6,2.0,48,0.00,,---,0.00,VWS V14.01,2013-10-03 23:59:00,
2013-10-03 17:00:00,60.4,41.2,28.82,North,0,2.5,2.5,49,0.00,,---,0.00,VWS V14.01,2013-10-04 00:00:00,
2013-10-03 17:01:00,60.1,41.4,28.82,NE,45,4.9,6.3,50,0.00,,---,0.00,VWS V14.01,2013-10-04 00:01:00,
2013-10-03 17:02:00,60.3,40.5,28.82,East,90,3.8,4.9,48,0.00,,---,0.00,VWS V14.01,2013-10-04 00:02:00,
2013-10-03 17:03:00,60.4,41.7,28.82,NE,45,1.6,2.5,50,0.00,,---,0.00,VWS V14.01,2013-10-04 00:03:00,
2013-10-03 17:04:00,60.6,41.9,28.82,NE,45,2.9,3.1,50,0.00,,---,0.00,VWS V14.01,2013-10-04 00:04:00,
2013-10-03 17:05:00,60.6,41.9,28.82,NE,45,2.9,2.9,50,0.00,,---,0.00,VWS V14.01,2013-10-04 00:05:00,
2013-10-03 17:06:00,60.6,41.9,28.82,SSE,158,3.1,5.4,50,0.00,,---,0.00,VWS V14.01,2013-10-04 00:06:00,
2013-10-03 17:07:00,60.1,39.8,28.82,ENE,68,5.8,5.8,47,0.00,,---,0.00,VWS V14.01,2013-10-04 00:07:00,
2013-10-03 17:08:00,60.1,39.8,28.82,NNE,22,4.0,4.0,47,0.00,,---,0.00,VWS V14.01,2013-10-04 00:08:00,
2013-10-03 17:09:00,59.9,39.1,28.82,NE,45,4.7,4.7,46,0.00,,---,0.00,VWS V14.01,2013-10-04 00:09:00,
2013-10-03 17:10:00,59.7,38.9,28.82,East,90,4.0,4.0,46,0.00,,---,0.00,VWS V14.01,2013-10-04 00:10:00,
2013-10-03 17:11:00,59.7,38.9,28.82,ESE,112,3.4,4.0,46,0.00,,---,0.00,VWS V14.01,2013-10-04 00:11:00,
2013-10-03 17:12:00,59.7,38.9,28.82,ESE,112,3.4,4.0,46,0.00,,---,0.00,VWS V14.01,2013-10-04 00:12:00,
2013-10-03 17:13:00,59.5,39.3,28.82,East,90,3.4,3.4,47,0.00,,---,0.00,VWS V14.01,2013-10-04 00:13:00,
2013-10-03 17:14:00,59.5,39.3,28.82,SE,135,3.4,3.8,47,0.00,,---,0.00,VWS V14.01,2013-10-04 00:14:00,
2013-10-03 17:15:00,59.7,40.0,28.82,NE,45,2.5,3.4,48,0.00,,---,0.00,VWS V14.01,2013-10-04 00:15:00,
2013-10-03 17:16:00,59.7,40.0,28.82,ENE,68,2.9,2.9,48,0.00,,---,0.00,VWS V14.01,2013-10-04 00:16:00,
2013-10-03 17:17:00,59.7,40.0,28.82,ENE,68,2.0,3.6,48,0.00,,---,0.00,VWS V14.01,2013-10-04 00:17:00,
2013-10-03 17:18:00,59.9,39.6,28.82,ENE,68,2.7,3.8,47,0.00,,---,0.00,VWS V14.01,2013-10-04 00:18:00,
2013-10-03 17:19:00,59.9,40.2,28.82,ENE,68,0.0,2.9,48,0.00,,---,0.00,VWS V14.01,2013-10-04 00:19:00,
2013-10-03 17:20:00,60.3,40.5,28.82,North,0,0.0,0.0,48,0.00,,---,0.00,VWS V14.01,2013-10-04 00:20:00,
2013-10-03 17:21:00,60.3,41.0,28.82,SE,135,3.4,3.4,49,0.00,,---,0.00,VWS V14.01,2013-10-04 00:21:00,
2013-10-03 17:22:00,60.3,41.0,28.82,SE,135,3.4,3.4,49,0.00,,---,0.00,VWS V14.01,2013-10-04 00:22:00,
2013-10-03 17:23:00,60.3,41.6,28.82,SE,135,3.6,3.6,50,0.00,,---,0.00,VWS V14.01,2013-10-04 00:23:00,
2013-10-03 17:24:00,60.4,41.2,28.82,North,0,0.0,1.6,49,0.00,,---,0.00,VWS V14.01,2013-10-04 00:24:00,
2013-10-03 17:25:00,60.4,41.2,28.82,SE,135,3.1,3.1,49,0.00,,---,0.00,VWS V14.01,2013-10-04 00:25:00,
2013-10-03 17:26:00,60.6,41.9,28.82,SE,135,2.5,3.1,50,0.00,,---,0.00,VWS V14.01,2013-10-04 00:26:00,
2013-10-03 17:27:00,60.6,41.9,28.82,SE,135,2.5,3.1,50,0.00,,---,0.00,VWS V14.01,2013-10-04 00:27:00,
2013-10-03 17:28:00,60.6,41.9,28.82,SE,135,2.5,3.1,50,0.00,,---,0.00,VWS V14.01,2013-10-04 00:28:00,
2013-10-03 17:29:00,60.6,40.8,28.82,SSE,158,2.5,2.5,48,0.00,,---,0.00,VWS V14.01,2013-10-04 00:29:00,
2013-10-03 17:30:00,60.6,40.8,28.82,SSE,158,2.5,3.1,48,0.00,,---,0.00,VWS V14.01,2013-10-04 00:30:00,
2013-10-03 17:31:00,60.1,39.8,28.82,SE,135,2.9,3.8,47,0.00,,---,0.00,VWS V14.01,2013-10-04 00:31:00,
2013-10-03 17:32:00,59.9,39.1,28.82,South,180,3.6,5.8,46,0.00,,---,0.00,VWS V14.01,2013-10-04 00:32:00,
2013-10-03 17:33:00,59.9,39.1,28.82,SE,135,2.7,5.8,46,0.00,,---,0.00,VWS V14.01,2013-10-04 00:33:00,
2013-10-03 17:34:00,60.1,39.8,28.82,ENE,68,4.3,5.4,47,0.00,,---,0.00,VWS V14.01,2013-10-04 00:34:00,
2013-10-03 17:35:00,59.7,39.5,28.82,SSE,158,3.4,3.8,47,0.00,,---,0.00,VWS V14.01,2013-10-04 00:35:00,
2013-10-03 17:36:00,59.5,39.3,28.82,SE,135,2.7,3.8,47,0.00,,---,0.00,VWS V14.01,2013-10-04 00:36:00,
2013-10-03 17:37:00,59.4,39.2,28.82,ESE,112,2.9,3.4,47,0.00,,---,0.00,VWS V14.01,2013-10-04 00:37:00,
2013-10-03 17:38:00,59.4,39.2,28.82,ESE,112,2.9,3.4,47,0.00,,---,0.00,VWS V14.01,2013-10-04 00:38:00,
2013-10-03 17:39:00,59.5,39.3,28.82,SSE,158,2.9,3.1,47,0.00,,---,0.00,VWS V14.01,2013-10-04 00:39:00,
2013-10-03 17:40:00,59.2,39.0,28.82,SSE,158,3.4,3.4,47,0.00,,---,0.00,VWS V14.01,2013-10-04 00:40:00,
2013-10-03 17:41:00,59.0,39.4,28.82,SE,135,2.2,4.0,48,0.00,,---,0.00,VWS V14.01,2013-10-04 00:41:00,
2013-10-03 17:42:00,59.0,39.4,28.82,SSE,158,2.9,2.9,48,0.00,,---,0.00,VWS V14.01,2013-10-04 00:42:00,
2013-10-03 17:43:00,58.8,39.7,28.82,SSE,158,2.9,4.9,49,0.00,,---,0.00,VWS V14.01,2013-10-04 00:43:00,
2013-10-03 17:44:00,58.8,39.2,28.82,ESE,112,2.2,5.8,48,0.00,,---,0.00,VWS V14.01,2013-10-04 00:44:00,
2013-10-03 17:45:00,58.6,39.5,28.82,ESE,112,3.1,3.1,49,0.00,,---,0.00,VWS V14.01,2013-10-04 00:45:00,
2013-10-03 17:46:00,58.1,40.1,28.82,ESE,112,1.6,2.2,51,0.00,,---,0.00,VWS V14.01,2013-10-04 00:46:00,
2013-10-03 17:47:00,58.3,39.7,28.82,ENE,68,2.7,2.7,50,0.00,,---,0.00,VWS V14.01,2013-10-04 00:47:00,
2013-10-03 17:48:00,58.3,39.7,28.82,SE,135,2.5,3.1,50,0.00,,---,0.00,VWS V14.01,2013-10-04 00:48:00,
2013-10-03 17:49:00,58.5,39.4,28.82,SE,135,3.1,3.1,49,0.00,,---,0.00,VWS V14.01,2013-10-04 00:49:00,
2013-10-03 17:50:00,58.1,40.1,28.82,NE,45,2.7,3.4,51,0.00,,---,0.00,VWS V14.01,2013-10-04 00:50:00,
2013-10-03 17:51:00,58.1,40.1,28.82,SSE,158,2.2,2.9,51,0.00,,---,0.00,VWS V14.01,2013-10-04 00:51:00,
2013-10-03 17:52:00,57.9,39.9,28.82,SE,135,0.0,2.9,51,0.00,,---,0.00,VWS V14.01,2013-10-04 00:52:00,
2013-10-03 17:53:00,58.1,40.1,28.82,West,270,2.7,2.7,51,0.00,,---,0.00,VWS V14.01,2013-10-04 00:53:00,
2013-10-03 17:54:00,58.1,40.1,28.82,ESE,112,1.3,1.3,51,0.00,,---,0.00,VWS V14.01,2013-10-04 00:54:00,
2013-10-03 17:55:00,57.9,39.4,28.82,NE,45,2.5,2.7,50,0.00,,---,0.00,VWS V14.01,2013-10-04 00:55:00,
2013-10-03 17:56:00,57.0,38.1,28.82,NNE,22,4.3,4.3,49,0.00,,---,0.00,VWS V14.01,2013-10-04 00:56:00,
2013-10-03 17:57:00,56.7,37.7,28.82,East,90,2.7,6.3,49,0.00,,---,0.00,VWS V14.01,2013-10-04 00:57:00,
2013-10-03 17:58:00,55.9,38.1,28.82,South,180,2.2,2.9,51,0.00,,---,0.00,VWS V14.01,2013-10-04 00:58:00,
2013-10-03 17:59:00,55.9,38.1,28.82,SE,135,0.0,2.9,51,0.00,,---,0.00,VWS V14.01,2013-10-04 00:59:00,
2013-10-03 18:00:00,55.4,37.6,28.82,South,180,1.3,2.9,51,0.00,,---,0.00,VWS V14.01,2013-10-04 01:00:00,
2013-10-03 18:01:00,55.0,38.2,28.82,South,180,1.3,1.3,53,0.00,,---,0.00,VWS V14.01,2013-10-04 01:01:00,
2013-10-03 18:02:00,54.5,38.2,28.82,SSE,158,2.0,2.0,54,0.00,,---,0.00,VWS V14.01,2013-10-04 01:02:00,
2013-10-03 18:03:00,53.6,37.8,28.82,SSE,158,1.3,1.3,55,0.00,,---,0.00,VWS V14.01,2013-10-04 01:03:00,
2013-10-03 18:04:00,53.6,37.8,28.82,SE,135,3.1,3.1,55,0.00,,---,0.00,VWS V14.01,2013-10-04 01:04:00,
2013-10-03 18:05:00,53.6,37.8,28.82,SE,135,3.1,3.1,55,0.00,,---,0.00,VWS V14.01,2013-10-04 01:05:00,
2013-10-03 18:06:00,53.1,37.8,28.82,SE,135,4.0,5.6,56,0.00,,---,0.00,VWS V14.01,2013-10-04 01:06:00,
2013-10-03 18:07:00,52.5,37.7,28.82,SSE,158,2.0,2.5,57,0.00,,---,0.00,VWS V14.01,2013-10-04 01:07:00,
2013-10-03 18:08:00,52.3,38.5,28.82,South,180,2.5,2.5,59,0.00,,---,0.00,VWS V14.01,2013-10-04 01:08:00,
2013-10-03 18:09:00,52.2,38.3,28.82,SSE,158,2.0,2.2,59,0.00,,---,0.00,VWS V14.01,2013-10-04 01:09:00,
2013-10-03 18:10:00,52.2,38.3,28.82,SE,135,1.3,2.5,59,0.00,,---,0.00,VWS V14.01,2013-10-04 01:10:00,
2013-10-03 18:11:00,51.8,38.4,28.82,SSE,158,2.2,2.5,60,0.00,,---,0.00,VWS V14.01,2013-10-04 01:11:00,
2013-10-03 18:12:00,51.6,38.6,28.82,NE,45,1.1,2.7,61,0.00,,---,0.00,VWS V14.01,2013-10-04 01:12:00,
2013-10-03 18:13:00,51.3,38.3,28.82,SSE,158,2.7,2.7,61,0.00,,---,0.00,VWS V14.01,2013-10-04 01:13:00,
2013-10-03 18:14:00,50.9,40.7,28.82,ESE,112,3.1,4.7,68,0.00,,---,0.00,VWS V14.01,2013-10-04 01:14:00,
2013-10-03 18:15:00,50.9,40.7,28.82,ESE,112,2.9,2.9,68,0.00,,---,0.00,VWS V14.01,2013-10-04 01:15:00,
2013-10-03 18:16:00,50.5,39.2,28.82,SSE,158,2.9,4.7,65,0.00,,---,0.00,VWS V14.01,2013-10-04 01:16:00,
2013-10-03 18:17:00,50.5,40.8,28.82,ENE,68,2.0,3.4,69,0.00,,---,0.00,VWS V14.01,2013-10-04 01:17:00,
2013-10-03 18:18:00,50.2,39.7,28.82,ENE,68,4.0,6.0,67,0.00,,---,0.00,VWS V14.01,2013-10-04 01:18:00,
2013-10-03 18:19:00,50.2,39.7,28.82,ESE,112,3.4,4.0,67,0.00,,---,0.00,VWS V14.01,2013-10-04 01:19:00,
2013-10-03 18:20:00,50.2,39.7,28.82,ESE,112,3.4,4.0,67,0.00,,---,0.00,VWS V14.01,2013-10-04 01:20:00,
2013-10-03 18:21:00,50.2,39.7,28.85,SE,135,2.7,3.4,67,0.00,,---,0.00,VWS V14.01,2013-10-04 01:21:00,
2013-10-03 18:22:00,50.0,39.5,28.85,East,90,2.0,3.1,67,0.00,,---,0.00,VWS V14.01,2013-10-04 01:22:00,
2013-10-03 18:23:00,49.8,39.7,28.85,SE,135,2.2,2.2,68,0.00,,---,0.00,VWS V14.01,2013-10-04 01:23:00,
2013-10-03 18:24:00,49.8,39.7,28.85,NE,45,2.7,2.9,68,0.00,,---,0.00,VWS V14.01,2013-10-04 01:24:00,
2013-10-03 18:25:00,49.8,40.1,28.85,SE,135,3.6,5.6,69,0.00,,---,0.00,VWS V14.01,2013-10-04 01:25:00,
2013-10-03 18:26:00,49.8,40.1,28.85,SE,135,3.6,5.6,69,0.00,,---,0.00,VWS V14.01,2013-10-04 01:26:00,
2013-10-03 18:27:00,49.5,39.7,28.85,SSE,158,2.0,2.7,69,0.00,,---,0.00,VWS V14.01,2013-10-04 01:27:00,
2013-10-03 18:28:00,49.5,39.7,28.85,SE,135,1.6,1.6,69,0.00,,---,0.00,VWS V14.01,2013-10-04 01:28:00,
2013-10-03 18:29:00,49.3,39.9,28.85,SSE,158,2.5,2.5,70,0.00,,---,0.00,VWS V14.01,2013-10-04 01:29:00,
2013-10-03 18:30:00,49.1,40.1,28.85,SSE,158,3.4,3.4,71,0.00,,---,0.00,VWS V14.01,2013-10-04 01:30:00,
2013-10-03 18:31:00,49.1,40.1,28.85,SE,135,3.4,3.4,71,0.00,,---,0.00,VWS V14.01,2013-10-04 01:31:00,
2013-10-03 18:32:00,48.7,40.1,28.85,ESE,112,4.3,4.3,72,0.00,,---,0.00,VWS V14.01,2013-10-04 01:32:00,
2013-10-03 18:33:00,48.7,40.1,28.85,ESE,112,4.3,4.3,72,0.00,,---,0.00,VWS V14.01,2013-10-04 01:33:00,
2013-10-03 18:34:00,48.7,40.1,28.85,SE,135,3.1,4.3,72,0.00,,---,0.00,VWS V14.01,2013-10-04 01:34:00,
2013-10-03 18:35:00,48.7,40.1,28.85,SE,135,2.7,2.7,72,0.00,,---,0.00,VWS V14.01,2013-10-04 01:35:00,
2013-10-03 18:36:00,48.7,40.1,28.85,East,90,2.2,3.1,72,0.00,,---,0.00,VWS V14.01,2013-10-04 01:36:00,
2013-10-03 18:37:00,48.6,40.3,28.85,SE,135,2.9,3.8,73,0.00,,---,0.00,VWS V14.01,2013-10-04 01:37:00,
2013-10-03 18:38:00,48.6,40.3,28.85,SE,135,1.1,2.5,73,0.00,,---,0.00,VWS V14.01,2013-10-04 01:38:00,
2013-10-03 18:39:00,48.6,40.3,28.85,SE,135,3.6,3.6,73,0.00,,---,0.00,VWS V14.01,2013-10-04 01:39:00,
2013-10-03 18:40:00,48.4,40.1,28.85,East,90,4.0,4.0,73,0.00,,---,0.00,VWS V14.01,2013-10-04 01:40:00,
2013-10-03 18:41:00,48.4,40.1,28.85,East,90,4.0,4.0,73,0.00,,---,0.00,VWS V14.01,2013-10-04 01:41:00,
2013-10-03 18:42:00,48.4,40.8,28.85,East,90,3.4,6.0,75,0.00,,---,0.00,VWS V14.01,2013-10-04 01:42:00,
2013-10-03 18:43:00,48.4,40.8,28.85,South,180,1.3,2.9,75,0.00,,---,0.00,VWS V14.01,2013-10-04 01:43:00,
2013-10-03 18:44:00,48.4,40.8,28.85,ESE,112,2.7,2.9,75,0.00,,---,0.00,VWS V14.01,2013-10-04 01:44:00,
2013-10-03 18:45:00,48.6,40.7,28.85,ESE,112,3.1,3.1,74,0.00,,---,0.00,VWS V14.01,2013-10-04 01:45:00,
2013-10-03 18:46:00,48.6,40.7,28.85,SE,135,3.1,4.0,74,0.00,,---,0.00,VWS V14.01,2013-10-04 01:46:00,
2013-10-03 18:47:00,48.6,40.7,28.85,SE,135,1.6,4.0,74,0.00,,---,0.00,VWS V14.01,2013-10-04 01:47:00,
2013-10-03 18:48:00,48.2,40.3,28.85,SE,135,2.0,2.0,74,0.00,,---,0.00,VWS V14.01,2013-10-04 01:48:00,
2013-10-03 18:49:00,48.2,40.3,28.85,ESE,112,2.5,2.9,74,0.00,,---,0.00,VWS V14.01,2013-10-04 01:49:00,
2013-10-03 18:50:00,48.2,40.7,28.85,SE,135,5.6,5.6,75,0.00,,---,0.00,VWS V14.01,2013-10-04 01:50:00,
2013-10-03 18:51:00,48.0,40.8,28.85,SE,135,2.7,6.3,76,0.00,,---,0.00,VWS V14.01,2013-10-04 01:51:00,
2013-10-03 18:52:00,48.0,40.8,28.85,SE,135,6.3,6.5,76,0.00,,---,0.00,VWS V14.01,2013-10-04 01:52:00,
2013-10-03 18:53:00,48.4,40.8,28.85,SE,135,5.8,6.9,75,0.00,,---,0.00,VWS V14.01,2013-10-04 01:53:00,
2013-10-03 18:54:00,48.4,40.8,28.85,SE,135,5.8,6.9,75,0.00,,---,0.00,VWS V14.01,2013-10-04 01:54:00,
2013-10-03 18:55:00,48.2,40.7,28.85,ESE,112,4.9,4.9,75,0.00,,---,0.00,VWS V14.01,2013-10-04 01:55:00,
2013-10-03 18:56:00,48.2,40.7,28.85,ESE,112,4.9,4.9,75,0.00,,---,0.00,VWS V14.01,2013-10-04 01:56:00,
2013-10-03 18:57:00,48.2,40.7,28.85,SSE,158,2.9,2.9,75,0.00,,---,0.00,VWS V14.01,2013-10-04 01:57:00,
2013-10-03 18:58:00,48.2,40.7,28.85,ENE,68,3.8,3.8,75,0.00,,---,0.00,VWS V14.01,2013-10-04 01:58:00,
2013-10-03 18:59:00,48.2,41.0,28.85,South,180,1.1,2.7,76,0.00,,---,0.00,VWS V14.01,2013-10-04 01:59:00,
2013-10-03 19:00:00,48.0,40.8,28.85,SSE,158,1.6,2.5,76,0.00,,---,0.00,VWS V14.01,2013-10-04 02:00:00,
2013-10-03 19:01:00,48.0,40.8,28.85,SSE,158,2.5,4.3,76,0.00,,---,0.00,VWS V14.01,2013-10-04 02:01:00,
2013-10-03 19:02:00,48.0,40.8,28.85,SSE,158,2.5,2.9,76,0.00,,---,0.00,VWS V14.01,2013-10-04 02:02:00,
2013-10-03 19:03:00,47.8,40.7,28.85,South,180,2.2,2.2,76,0.00,,---,0.00,VWS V14.01,2013-10-04 02:03:00,
2013-10-03 19:04:00,47.8,40.7,28.85,SE,135,2.0,2.2,76,0.00,,---,0.00,VWS V14.01,2013-10-04 02:04:00,
2013-10-03 19:05:00,47.5,40.3,28.85,ENE,68,2.5,2.7,76,0.00,,---,0.00,VWS V14.01,2013-10-04 02:05:00,
2013-10-03 19:06:00,47.7,40.5,28.85,SE,135,2.0,2.5,76,0.00,,---,0.00,VWS V14.01,2013-10-04 02:06:00,
2013-10-03 19:07:00,47.5,40.6,28.85,NE,45,2.9,3.1,77,0.00,,---,0.00,VWS V14.01,2013-10-04 02:07:00,
2013-10-03 19:08:00,47.3,40.8,28.85,SE,135,2.7,4.0,78,0.00,,---,0.00,VWS V14.01,2013-10-04 02:08:00,
2013-10-03 19:09:00,47.3,41.1,28.85,South,180,3.4,3.4,79,0.00,,---,0.00,VWS V14.01,2013-10-04 02:09:00,
2013-10-03 19:10:00,47.3,41.1,28.85,SE,135,2.5,2.5,79,0.00,,---,0.00,VWS V14.01,2013-10-04 02:10:00,
2013-10-03 19:11:00,47.3,41.1,28.85,SE,135,3.4,5.4,79,0.00,,---,0.00,VWS V14.01,2013-10-04 02:11:00,
2013-10-03 19:12:00,47.3,41.1,28.85,SE,135,5.4,5.8,79,0.00,,---,0.00,VWS V14.01,2013-10-04 02:12:00,
2013-10-03 19:13:00,47.3,41.1,28.85,SE,135,2.5,5.4,79,0.00,,---,0.00,VWS V14.01,2013-10-04 02:13:00,
2013-10-03 19:14:00,47.3,41.1,28.85,SE,135,2.5,3.4,79,0.00,,---,0.00,VWS V14.01,2013-10-04 02:14:00,
2013-10-03 19:15:00,47.3,41.1,28.85,SE,135,3.4,3.4,79,0.00,,---,0.00,VWS V14.01,2013-10-04 02:15:00,
2013-10-03 19:16:00,47.3,41.1,28.85,SE,135,2.5,3.6,79,0.00,,---,0.00,VWS V14.01,2013-10-04 02:16:00,
2013-10-03 19:17:00,47.3,41.1,28.85,East,90,2.7,3.4,79,0.00,,---,0.00,VWS V14.01,2013-10-04 02:17:00,
2013-10-03 19:18:00,47.1,41.3,28.85,SE,135,3.1,3.6,80,0.00,,---,0.00,VWS V14.01,2013-10-04 02:18:00,
2013-10-03 19:19:00,47.1,41.3,28.82,SSE,158,3.4,3.4,80,0.00,,---,0.00,VWS V14.01,2013-10-04 02:19:00,
2013-10-03 19:20:00,46.9,41.1,28.82,SE,135,1.6,3.4,80,0.00,,---,0.00,VWS V14.01,2013-10-04 02:20:00,
2013-10-03 19:21:00,46.9,41.1,28.82,SSE,158,2.2,3.4,80,0.00,,---,0.00,VWS V14.01,2013-10-04 02:21:00,
2013-10-03 19:22:00,46.9,41.1,28.82,SSE,158,2.2,3.4,80,0.00,,---,0.00,VWS V14.01,2013-10-04 02:22:00,
2013-10-03 19:23:00,46.9,41.4,28.82,NE,45,2.5,2.5,81,0.00,,---,0.00,VWS V14.01,2013-10-04 02:23:00,
2013-10-03 19:24:00,46.9,41.4,28.82,SE,135,2.2,2.7,81,0.00,,---,0.00,VWS V14.01,2013-10-04 02:24:00,
2013-10-03 19:25:00,46.9,41.4,28.82,ESE,112,0.0,1.1,81,0.00,,---,0.00,VWS V14.01,2013-10-04 02:25:00,
2013-10-03 19:26:00,46.8,41.2,28.82,SSE,158,2.5,2.5,81,0.00,,---,0.00,VWS V14.01,2013-10-04 02:26:00,
2013-10-03 19:27:00,46.6,41.1,28.82,SSE,158,4.3,4.3,81,0.00,,---,0.00,VWS V14.01,2013-10-04 02:27:00,
2013-10-03 19:28:00,46.8,41.2,28.82,SSE,158,4.3,4.3,81,0.00,,---,0.00,VWS V14.01,2013-10-04 02:28:00,
2013-10-03 19:29:00,46.8,41.6,28.82,SE,135,2.5,3.1,82,0.00,,---,0.00,VWS V14.01,2013-10-04 02:29:00,
2013-10-03 19:30:00,46.8,41.6,28.82,SE,135,2.9,2.9,82,0.00,,---,0.00,VWS V14.01,2013-10-04 02:30:00,
2013-10-03 19:31:00,46.8,41.2,28.82,ENE,68,3.8,3.8,81,0.00,,---,0.00,VWS V14.01,2013-10-04 02:31:00,
2013-10-03 19:32:00,47.1,41.3,28.82,SE,135,3.8,4.3,80,0.00,,---,0.00,VWS V14.01,2013-10-04 02:32:00,
2013-10-03 19:33:00,47.1,41.3,28.82,SE,135,3.1,4.3,80,0.00,,---,0.00,VWS V14.01,2013-10-04 02:33:00,
2013-10-03 19:34:00,46.8,41.2,28.82,SE,135,2.5,2.5,81,0.00,,---,0.00,VWS V14.01,2013-10-04 02:34:00,
2013-10-03 19:35:00,46.8,41.2,28.82,SE,135,2.7,2.7,81,0.00,,---,0.00,VWS V14.01,2013-10-04 02:35:00,
2013-10-03 19:36:00,46.6,41.1,28.82,SSE,158,1.3,1.3,81,0.00,,---,0.00,VWS V14.01,2013-10-04 02:36:00,
2013-10-03 19:37:00,46.6,41.1,28.82,SSE,158,2.0,2.0,81,0.00,,---,0.00,VWS V14.01,2013-10-04 02:37:00,
2013-10-03 19:38:00,46.6,41.1,28.82,SSE,158,2.0,2.0,81,0.00,,---,0.00,VWS V14.01,2013-10-04 02:38:00,
2013-10-03 19:39:00,46.4,40.9,28.82,South,180,2.0,3.4,81,0.00,,---,0.00,VWS V14.01,2013-10-04 02:39:00,
2013-10-03 19:40:00,46.4,40.9,28.82,WSW,248,0.0,2.0,81,0.00,,---,0.00,VWS V14.01,2013-10-04 02:40:00,
2013-10-03 19:41:00,46.4,40.9,28.82,SE,135,2.7,2.7,81,0.00,,---,0.00,VWS V14.01,2013-10-04 02:41:00,
2013-10-03 19:42:00,46.2,41.0,28.82,South,180,2.5,2.7,82,0.00,,---,0.00,VWS V14.01,2013-10-04 02:42:00,
2013-10-03 19:43:00,46.2,41.0,28.82,South,180,2.5,2.7,82,0.00,,---,0.00,VWS V14.01,2013-10-04 02:43:00,
2013-10-03 19:44:00,46.2,41.0,28.82,SE,135,2.0,3.4,82,0.00,,---,0.00,VWS V14.01,2013-10-04 02:44:00,
2013-10-03 19:45:00,46.0,40.9,28.82,SSE,158,1.1,1.1,82,0.00,,---,0.00,VWS V14.01,2013-10-04 02:45:00,
2013-10-03 19:46:00,45.9,40.7,28.82,SSE,158,0.0,3.6,82,0.00,,---,0.00,VWS V14.01,2013-10-04 02:46:00,
2013-10-03 19:47:00,45.9,41.0,28.82,SE,135,1.3,2.7,83,0.00,,---,0.00,VWS V14.01,2013-10-04 02:47:00,
2013-10-03 19:48:00,45.9,41.0,28.82,SSE,158,2.7,2.7,83,0.00,,---,0.00,VWS V14.01,2013-10-04 02:48:00,
2013-10-03 19:49:00,45.9,41.0,28.82,SSW,202,1.1,2.7,83,0.00,,---,0.00,VWS V14.01,2013-10-04 02:49:00,
2013-10-03 19:50:00,45.9,41.0,28.85,SSE,158,2.7,2.7,83,0.00,,---,0.00,VWS V14.01,2013-10-04 02:50:00,
2013-10-03 19:51:00,45.9,41.0,28.85,SSE,158,2.5,2.7,83,0.00,,---,0.00,VWS V14.01,2013-10-04 02:51:00,
2013-10-03 19:52:00,45.7,41.1,28.85,South,180,0.0,0.9,84,0.00,,---,0.00,VWS V14.01,2013-10-04 02:52:00,
2013-10-03 19:53:00,45.7,41.1,28.85,South,180,0.0,0.9,84,0.00,,---,0.00,VWS V14.01,2013-10-04 02:53:00,
2013-10-03 19:54:00,45.5,41.0,28.85,South,180,0.0,0.9,84,0.00,,---,0.00,VWS V14.01,2013-10-04 02:54:00,
2013-10-03 19:55:00,45.5,41.0,28.85,SE,135,3.4,3.4,84,0.00,,---,0.00,VWS V14.01,2013-10-04 02:55:00,
2013-10-03 19:56:00,45.5,41.0,28.85,SSE,158,2.5,2.5,84,0.00,,---,0.00,VWS V14.01,2013-10-04 02:56:00,
2013-10-03 19:57:00,45.3,40.8,28.85,SE,135,2.0,2.5,84,0.00,,---,0.00,VWS V14.01,2013-10-04 02:57:00,
2013-10-03 19:58:00,45.3,41.1,28.85,SE,135,2.0,3.4,85,0.00,,---,0.00,VWS V14.01,2013-10-04 02:58:00,
2013-10-03 19:59:00,45.3,41.1,28.85,South,180,2.0,3.4,85,0.00,,---,0.00,VWS V14.01,2013-10-04 02:59:00,
2013-10-03 20:00:00,45.1,40.9,28.85,SW,225,0.0,1.6,85,0.00,,---,0.00,VWS V14.01,2013-10-04 03:00:00,
2013-10-03 20:01:00,45.1,40.9,28.85,SE,135,1.1,1.3,85,0.00,,---,0.00,VWS V14.01,2013-10-04 03:01:00,
2013-10-03 20:02:00,45.0,40.7,28.85,South,180,2.5,2.5,85,0.00,,---,0.00,VWS V14.01,2013-10-04 03:02:00,
2013-10-03 20:03:00,45.0,40.7,28.85,SSE,158,0.0,2.0,85,0.00,,---,0.00,VWS V14.01,2013-10-04 03:03:00,
2013-10-03 20:04:00,45.0,40.7,28.85,SSE,158,0.0,2.0,85,0.00,,---,0.00,VWS V14.01,2013-10-04 03:04:00,
2013-10-03 20:05:00,44.8,40.5,28.85,SE,135,3.1,3.1,85,0.00,,---,0.00,VWS V14.01,2013-10-04 03:05:00,
2013-10-03 20:06:00,44.8,40.5,28.85,SE,135,3.1,3.6,85,0.00,,---,0.00,VWS V14.01,2013-10-04 03:06:00,
2013-10-03 20:07:00,45.0,41.0,28.85,SE,135,2.7,3.1,86,0.00,,---,0.00,VWS V14.01,2013-10-04 03:07:00,
2013-10-03 20:08:00,45.0,41.0,28.85,ESE,112,2.2,2.7,86,0.00,,---,0.00,VWS V14.01,2013-10-04 03:08:00,
2013-10-03 20:09:00,45.0,41.0,28.85,SSE,158,1.6,2.2,86,0.00,,---,0.00,VWS V14.01,2013-10-04 03:09:00,
2013-10-03 20:10:00,44.8,41.2,28.85,SE,135,3.4,3.4,87,0.00,,---,0.00,VWS V14.01,2013-10-04 03:10:00,
2013-10-03 20:11:00,44.8,41.2,28.85,SSE,158,1.6,2.5,87,0.00,,---,0.00,VWS V14.01,2013-10-04 03:11:00,
2013-10-03 20:12:00,44.8,41.2,28.85,SE,135,2.5,3.4,87,0.00,,---,0.00,VWS V14.01,2013-10-04 03:12:00,
2013-10-03 20:13:00,45.0,41.6,28.85,South,180,1.6,3.1,88,0.00,,---,0.00,VWS V14.01,2013-10-04 03:13:00,
2013-10-03 20:14:00,45.0,41.6,28.85,ESE,112,3.1,3.1,88,0.00,,---,0.00,VWS V14.01,2013-10-04 03:14:00,
2013-10-03 20:15:00,45.0,41.6,28.85,West,270,0.9,3.1,88,0.00,,---,0.00,VWS V14.01,2013-10-04 03:15:00,
2013-10-03 20:16:00,45.0,41.6,28.85,South,180,2.5,2.5,88,0.00,,---,0.00,VWS V14.01,2013-10-04 03:16:00,
2013-10-03 20:17:00,44.8,41.5,28.85,SE,135,0.0,0.0,88,0.00,,---,0.00,VWS V14.01,2013-10-04 03:17:00,
2013-10-03 20:18:00,44.8,41.5,28.85,SE,135,0.9,2.9,88,0.00,,---,0.00,VWS V14.01,2013-10-04 03:18:00,
2013-10-03 20:19:00,44.8,41.5,28.85,SSE,158,2.0,2.0,88,0.00,,---,0.00,VWS V14.01,2013-10-04 03:19:00,
2013-10-03 20:20:00,44.8,41.5,28.85,SSE,158,2.0,2.0,88,0.00,,---,0.00,VWS V14.01,2013-10-04 03:20:00,
2013-10-03 20:21:00,44.6,41.3,28.85,SW,225,1.3,3.1,88,0.00,,---,0.00,VWS V14.01,2013-10-04 03:21:00,
2013-10-03 20:22:00,44.6,41.6,28.85,SSW,202,0.9,2.7,89,0.00,,---,0.00,VWS V14.01,2013-10-04 03:22:00,
2013-10-03 20:23:00,44.6,41.6,28.85,SSE,158,2.5,2.7,89,0.00,,---,0.00,VWS V14.01,2013-10-04 03:23:00,
2013-10-03 20:24:00,44.6,41.6,28.85,WSW,248,1.6,2.0,89,0.00,,---,0.00,VWS V14.01,2013-10-04 03:24:00,
2013-10-03 20:25:00,44.6,41.6,28.85,South,180,2.0,2.2,89,0.00,,---,0.00,VWS V14.01,2013-10-04 03:25:00,
2013-10-03 20:26:00,44.4,41.4,28.85,SE,135,2.0,2.0,89,0.00,,---,0.00,VWS V14.01,2013-10-04 03:26:00,
2013-10-03 20:27:00,44.4,41.4,28.85,SE,135,2.0,2.9,89,0.00,,---,0.00,VWS V14.01,2013-10-04 03:27:00,
2013-10-03 20:28:00,44.4,41.7,28.85,SSE,158,2.2,2.9,90,0.00,,---,0.00,VWS V14.01,2013-10-04 03:28:00,
2013-10-03 20:29:00,44.4,42.0,28.85,SSE,158,2.5,3.6,91,0.00,,---,0.00,VWS V14.01,2013-10-04 03:29:00,
2013-10-03 20:30:00,44.4,41.7,28.85,ESE,112,3.6,3.6,90,0.00,,---,0.00,VWS V14.01,2013-10-04 03:30:00,
2013-10-03 20:31:00,44.4,42.0,28.85,SSW,202,2.0,2.0,91,0.00,,---,0.00,VWS V14.01,2013-10-04 03:31:00,
2013-10-03 20:32:00,44.4,42.0,28.85,SSW,202,2.0,2.2,91,0.00,,---,0.00,VWS V14.01,2013-10-04 03:32:00,
2013-10-03 20:33:00,44.2,41.8,28.85,South,180,2.0,3.1,91,0.00,,---,0.00,VWS V14.01,2013-10-04 03:33:00,
2013-10-03 20:34:00,44.2,41.8,28.85,ESE,112,0.0,0.0,91,0.00,,---,0.00,VWS V14.01,2013-10-04 03:34:00,
2013-10-03 20:35:00,44.2,41.8,28.85,SE,135,2.2,2.2,91,0.00,,---,0.00,VWS V14.01,2013-10-04 03:35:00,
2013-10-03 20:36:00,44.2,41.8,28.85,SSE,158,0.0,1.1,91,0.00,,---,0.00,VWS V14.01,2013-10-04 03:36:00,
2013-10-03 20:37:00,44.2,41.8,28.85,SSE,158,1.1,2.2,91,0.00,,---,0.00,VWS V14.01,2013-10-04 03:37:00,
2013-10-03 20:38:00,44.2,41.8,28.85,SE,135,2.0,3.4,91,0.00,,---,0.00,VWS V14.01,2013-10-04 03:38:00,
2013-10-03 20:39:00,44.1,41.6,28.85,SSE,158,0.0,1.1,91,0.00,,---,0.00,VWS V14.01,2013-10-04 03:39:00,
2013-10-03 20:40:00,44.2,41.8,28.85,SE,135,2.9,3.6,91,0.00,,---,0.00,VWS V14.01,2013-10-04 03:40:00,
2013-10-03 20:41:00,44.2,41.8,28.85,SE,135,2.7,2.7,91,0.00,,---,0.00,VWS V14.01,2013-10-04 03:41:00,
2013-10-03 20:42:00,44.2,41.8,28.85,SSE,158,2.7,3.6,91,0.00,,---,0.00,VWS V14.01,2013-10-04 03:42:00,
2013-10-03 20:43:00,44.1,41.9,28.85,SW,225,1.1,1.3,92,0.00,,---,0.00,VWS V14.01,2013-10-04 03:43:00,
2013-10-03 20:44:00,44.1,41.9,28.85,SSE,158,1.3,1.3,92,0.00,,---,0.00,VWS V14.01,2013-10-04 03:44:00,
2013-10-03 20:45:00,44.1,41.9,28.85,SSW,202,0.0,1.3,92,0.00,,---,0.00,VWS V14.01,2013-10-04 03:45:00,
2013-10-03 20:46:00,44.1,41.9,28.85,SSW,202,2.5,2.7,92,0.00,,---,0.00,VWS V14.01,2013-10-04 03:46:00,
2013-10-03 20:47:00,44.1,41.9,28.85,SSW,202,2.5,2.7,92,0.00,,---,0.00,VWS V14.01,2013-10-04 03:47:00,
2013-10-03 20:48:00,44.1,41.9,28.85,South,180,0.0,0.0,92,0.00,,---,0.00,VWS V14.01,2013-10-04 03:48:00,
2013-10-03 20:49:00,44.1,41.9,28.85,SW,225,0.0,2.9,92,0.00,,---,0.00,VWS V14.01,2013-10-04 03:49:00,
2013-10-03 20:50:00,44.1,41.9,28.85,SSW,202,1.6,2.7,92,0.00,,---,0.00,VWS V14.01,2013-10-04 03:50:00,
2013-10-03 20:51:00,43.9,41.7,28.85,WSW,248,0.0,0.0,92,0.00,,---,0.00,VWS V14.01,2013-10-04 03:51:00,
2013-10-03 20:52:00,43.9,41.7,28.85,SE,135,0.0,0.0,92,0.00,,---,0.00,VWS V14.01,2013-10-04 03:52:00,
2013-10-03 20:53:00,43.9,41.7,28.85,SE,135,2.2,2.5,92,0.00,,---,0.00,VWS V14.01,2013-10-04 03:53:00,
2013-10-03 20:54:00,43.7,41.5,28.85,SE,135,2.0,2.5,92,0.00,,---,0.00,VWS V14.01,2013-10-04 03:54:00,
2013-10-03 20:55:00,43.7,41.5,28.85,SSE,158,2.0,2.2,92,0.00,,---,0.00,VWS V14.01,2013-10-04 03:55:00,
2013-10-03 20:56:00,43.7,41.5,28.85,South,180,1.3,1.3,92,0.00,,---,0.00,VWS V14.01,2013-10-04 03:56:00,
2013-10-03 20:57:00,43.7,41.5,28.85,South,180,0.9,2.2,92,0.00,,---,0.00,VWS V14.01,2013-10-04 03:57:00,
2013-10-03 20:58:00,43.7,41.5,28.85,SSW,202,1.6,1.6,92,0.00,,---,0.00,VWS V14.01,2013-10-04 03:58:00,
2013-10-03 20:59:00,43.7,41.5,28.85,South,180,0.0,0.0,92,0.00,,---,0.00,VWS V14.01,2013-10-04 03:59:00,
2013-10-03 21:00:00,43.5,41.3,28.85,SE,135,2.7,2.7,92,0.00,,---,0.00,VWS V14.01,2013-10-04 04:00:00,
2013-10-03 21:01:00,43.5,41.3,28.85,South,180,0.0,0.0,92,0.00,,---,0.00,VWS V14.01,2013-10-04 04:01:00,
2013-10-03 21:02:00,43.5,41.3,28.85,SE,135,2.2,2.7,92,0.00,,---,0.00,VWS V14.01,2013-10-04 04:02:00,
2013-10-03 21:03:00,43.5,41.3,28.85,SSW,202,2.5,2.7,92,0.00,,---,0.00,VWS V14.01,2013-10-04 04:03:00,
2013-10-03 21:04:00,43.5,41.6,28.85,SSE,158,1.3,2.5,93,0.00,,---,0.00,VWS V14.01,2013-10-04 04:04:00,
2013-10-03 21:05:00,43.5,41.6,28.85,SSE,158,1.3,1.6,93,0.00,,---,0.00,VWS V14.01,2013-10-04 04:05:00,
2013-10-03 21:06:00,43.7,41.8,28.85,SSW,202,0.0,1.6,93,0.00,,---,0.00,VWS V14.01,2013-10-04 04:06:00,
2013-10-03 21:07:00,43.5,41.6,28.85,SSW,202,0.0,0.0,93,0.00,,---,0.00,VWS V14.01,2013-10-04 04:07:00,
2013-10-03 21:08:00,43.5,41.6,28.85,SE,135,2.2,2.2,93,0.00,,---,0.00,VWS V14.01,2013-10-04 04:08:00,
2013-10-03 21:09:00,43.5,41.6,28.85,South,180,0.0,2.2,93,0.00,,---,0.00,VWS V14.01,2013-10-04 04:09:00,
2013-10-03 21:10:00,43.5,41.6,28.85,South,180,0.0,0.0,93,0.00,,---,0.00,VWS V14.01,2013-10-04 04:10:00,
2013-10-03 21:11:00,43.5,41.6,28.85,SE,135,0.0,1.3,93,0.00,,---,0.00,VWS V14.01,2013-10-04 04:11:00,
2013-10-03 21:12:00,43.5,41.6,28.85,South,180,0.0,0.9,93,0.00,,---,0.00,VWS V14.01,2013-10-04 04:12:00,
2013-10-03 21:13:00,43.5,41.6,28.85,SE,135,1.3,1.3,93,0.00,,---,0.00,VWS V14.01,2013-10-04 04:13:00,
2013-10-03 21:14:00,43.5,41.6,28.85,SSE,158,2.2,2.2,93,0.00,,---,0.00,VWS V14.01,2013-10-04 04:14:00,
2013-10-03 21:15:00,43.3,41.5,28.85,SSE,158,1.1,2.2,93,0.00,,---,0.00,VWS V14.01,2013-10-04 04:15:00,
2013-10-03 21:16:00,43.3,41.5,28.85,SSW,202,0.9,1.1,93,0.00,,---,0.00,VWS V14.01,2013-10-04 04:16:00,
2013-10-03 21:17:00,43.3,41.5,28.85,SW,225,0.0,0.9,93,0.00,,---,0.00,VWS V14.01,2013-10-04 04:17:00,
2013-10-03 21:18:00,43.3,41.5,28.85,South,180,0.0,0.0,93,0.00,,---,0.00,VWS V14.01,2013-10-04 04:18:00,
2013-10-03 21:19:00,43.2,41.3,28.85,SW,225,0.0,0.0,93,0.00,,---,0.00,VWS V14.01,2013-10-04 04:19:00,
2013-10-03 21:20:00,43.2,41.3,28.85,South,180,0.0,0.0,93,0.00,,---,0.00,VWS V14.01,2013-10-04 04:20:00,
2013-10-03 21:21:00,43.0,41.1,28.85,South,180,0.0,0.0,93,0.00,,---,0.00,VWS V14.01,2013-10-04 04:21:00,
2013-10-03 21:22:00,43.0,41.1,28.85,WSW,248,0.0,0.0,93,0.00,,---,0.00,VWS V14.01,2013-10-04 04:22:00,
2013-10-03 21:23:00,43.0,41.1,28.85,WSW,248,0.0,0.0,93,0.00,,---,0.00,VWS V14.01,2013-10-04 04:23:00,
2013-10-03 21:24:00,43.0,41.1,28.85,SSE,158,0.0,0.0,93,0.00,,---,0.00,VWS V14.01,2013-10-04 04:24:00,
2013-10-03 21:25:00,43.0,41.1,28.85,SE,135,0.0,0.0,93,0.00,,---,0.00,VWS V14.01,2013-10-04 04:25:00,
2013-10-03 21:26:00,42.8,40.9,28.85,SSW,202,2.0,2.0,93,0.00,,---,0.00,VWS V14.01,2013-10-04 04:26:00,
2013-10-03 21:27:00,42.8,40.9,28.85,ENE,68,1.6,2.0,93,0.00,,---,0.00,VWS V14.01,2013-10-04 04:27:00,
2013-10-03 21:28:00,42.8,40.9,28.85,SSE,158,2.5,2.5,93,0.00,,---,0.00,VWS V14.01,2013-10-04 04:28:00,
2013-10-03 21:29:00,42.8,40.9,28.85,SSE,158,1.1,2.5,93,0.00,,---,0.00,VWS V14.01,2013-10-04 04:29:00,
2013-10-03 21:30:00,42.8,40.9,28.85,SSW,202,0.0,1.3,93,0.00,,---,0.00,VWS V14.01,2013-10-04 04:30:00,
2013-10-03 21:31:00,42.8,40.9,28.85,South,180,1.3,1.3,93,0.00,,---,0.00,VWS V14.01,2013-10-04 04:31:00,
2013-10-03 21:32:00,42.6,40.7,28.85,SE,135,2.0,2.2,93,0.00,,---,0.00,VWS V14.01,2013-10-04 04:32:00,
2013-10-03 21:33:00,42.6,40.7,28.85,SE,135,2.2,2.2,93,0.00,,---,0.00,VWS V14.01,2013-10-04 04:33:00,
2013-10-03 21:34:00,42.6,40.7,28.85,South,180,0.0,2.5,93,0.00,,---,0.00,VWS V14.01,2013-10-04 04:34:00,
2013-10-03 21:35:00,42.6,41.0,28.85,SSW,202,2.0,2.0,94,0.00,,---,0.00,VWS V14.01,2013-10-04 04:35:00,
2013-10-03 21:36:00,42.6,41.0,28.85,SSW,202,2.0,2.0,94,0.00,,---,0.00,VWS V14.01,2013-10-04 04:36:00,
2013-10-03 21:37:00,42.6,41.0,28.85,South,180,0.0,2.5,94,0.00,,---,0.00,VWS V14.01,2013-10-04 04:37:00,
2013-10-03 21:38:00,42.4,40.8,28.85,SSE,158,0.0,0.0,94,0.00,,---,0.00,VWS V14.01,2013-10-04 04:38:00,
2013-10-03 21:39:00,42.4,40.8,28.85,South,180,1.6,1.6,94,0.00,,---,0.00,VWS V14.01,2013-10-04 04:39:00,
2013-10-03 21:40:00,42.4,40.8,28.85,SSW,202,0.0,0.0,94,0.00,,---,0.00,VWS V14.01,2013-10-04 04:40:00,
2013-10-03 21:41:00,42.4,40.8,28.85,SSW,202,0.0,1.6,94,0.00,,---,0.00,VWS V14.01,2013-10-04 04:41:00,
2013-10-03 21:42:00,42.4,40.8,28.85,South,180,0.9,0.9,94,0.00,,---,0.00,VWS V14.01,2013-10-04 04:42:00,
2013-10-03 21:43:00,42.4,40.8,28.85,South,180,1.3,2.2,94,0.00,,---,0.00,VWS V14.01,2013-10-04 04:43:00,
2013-10-03 21:44:00,42.4,40.8,28.85,SE,135,0.9,2.2,94,0.00,,---,0.00,VWS V14.01,2013-10-04 04:44:00,
2013-10-03 21:45:00,42.4,40.8,28.85,SSE,158,2.5,2.5,94,0.00,,---,0.00,VWS V14.01,2013-10-04 04:45:00,
2013-10-03 21:46:00,42.4,40.8,28.85,SSE,158,2.0,2.5,94,0.00,,---,0.00,VWS V14.01,2013-10-04 04:46:00,
2013-10-03 21:47:00,42.4,40.8,28.85,South,180,2.0,2.0,94,0.00,,---,0.00,VWS V14.01,2013-10-04 04:47:00,
2013-10-03 21:48:00,42.4,40.8,28.85,SSE,158,0.9,2.0,94,0.00,,---,0.00,VWS V14.01,2013-10-04 04:48:00,
2013-10-03 21:49:00,42.4,40.8,28.85,SSE,158,2.0,2.7,94,0.00,,---,0.00,VWS V14.01,2013-10-04 04:49:00,
2013-10-03 21:50:00,42.4,40.8,28.85,SSE,158,2.0,2.7,94,0.00,,---,0.00,VWS V14.01,2013-10-04 04:50:00,
2013-10-03 21:51:00,42.4,41.1,28.85,South,180,1.3,2.2,95,0.00,,---,0.00,VWS V14.01,2013-10-04 04:51:00,
2013-10-03 21:52:00,42.4,41.1,28.88,SSE,158,0.0,0.0,95,0.00,,---,0.00,VWS V14.01,2013-10-04 04:52:00,
2013-10-03 21:53:00,42.4,41.1,28.88,SSE,158,0.0,2.5,95,0.00,,---,0.00,VWS V14.01,2013-10-04 04:53:00,
2013-10-03 21:54:00,42.3,40.9,28.88,SW,225,0.0,0.0,95,0.00,,---,0.00,VWS V14.01,2013-10-04 04:54:00,
2013-10-03 21:55:00,42.3,40.9,28.88,West,270,0.0,0.0,95,0.00,,---,0.00,VWS V14.01,2013-10-04 04:55:00,
2013-10-03 21:56:00,42.3,40.9,28.88,NW,315,0.9,0.9,95,0.00,,---,0.00,VWS V14.01,2013-10-04 04:56:00,
2013-10-03 21:57:00,42.3,40.9,28.88,NW,315,0.9,0.9,95,0.00,,---,0.00,VWS V14.01,2013-10-04 04:57:00,
2013-10-03 21:58:00,42.3,40.9,28.88,WNW,292,1.1,2.2,95,0.00,,---,0.00,VWS V14.01,2013-10-04 04:58:00,
2013-10-03 21:59:00,42.3,40.9,28.88,North,0,1.1,2.5,95,0.00,,---,0.00,VWS V14.01,2013-10-04 04:59:00,
2013-10-03 22:00:00,42.4,41.1,28.88,NW,315,0.0,0.0,95,0.00,,---,0.00,VWS V14.01,2013-10-04 05:00:00,
2013-10-03 22:01:00,42.4,41.1,28.88,WSW,248,1.1,1.1,95,0.00,,---,0.00,VWS V14.01,2013-10-04 05:01:00,
2013-10-03 22:02:00,42.4,41.1,28.88,WSW,248,1.1,1.1,95,0.00,,---,0.00,VWS V14.01,2013-10-04 05:02:00,
2013-10-03 22:03:00,42.4,41.1,28.88,WNW,292,0.0,1.1,95,0.00,,---,0.00,VWS V14.01,2013-10-04 05:03:00,
2013-10-03 22:04:00,42.4,41.1,28.88,WNW,292,0.0,1.1,95,0.00,,---,0.00,VWS V14.01,2013-10-04 05:04:00,
2013-10-03 22:05:00,42.6,41.3,28.88,NNW,338,0.0,1.6,95,0.00,,---,0.00,VWS V14.01,2013-10-04 05:05:00,
2013-10-03 22:06:00,42.4,41.1,28.88,WNW,292,0.0,1.1,95,0.00,,---,0.00,VWS V14.01,2013-10-04 05:06:00,
2013-10-03 22:07:00,42.4,41.1,28.88,North,0,0.0,0.0,95,0.00,,---,0.00,VWS V14.01,2013-10-04 05:07:00,
2013-10-03 22:08:00,42.3,40.9,28.88,South,180,0.0,0.0,95,0.00,,---,0.00,VWS V14.01,2013-10-04 05:08:00,
2013-10-03 22:09:00,42.3,40.9,28.88,SSE,158,0.0,0.0,95,0.00,,---,0.00,VWS V14.01,2013-10-04 05:09:00,
2013-10-03 22:10:00,42.3,40.9,28.88,NW,315,0.0,0.0,95,0.00,,---,0.00,VWS V14.01,2013-10-04 05:10:00,
2013-10-03 22:11:00,42.3,40.9,28.88,WNW,292,1.1,1.1,95,0.00,,---,0.00,VWS V14.01,2013-10-04 05:11:00,
2013-10-03 22:12:00,42.3,40.9,28.88,WNW,292,1.1,1.1,95,0.00,,---,0.00,VWS V14.01,2013-10-04 05:12:00,
2013-10-03 22:13:00,42.3,40.9,28.88,NNW,338,0.0,0.0,95,0.00,,---,0.00,VWS V14.01,2013-10-04 05:13:00,
2013-10-03 22:14:00,42.1,40.8,28.88,NNE,22,0.0,0.0,95,0.00,,---,0.00,VWS V14.01,2013-10-04 05:14:00,
2013-10-03 22:15:00,42.1,40.8,28.88,NE,45,0.9,0.9,95,0.00,,---,0.00,VWS V14.01,2013-10-04 05:15:00,
2013-10-03 22:16:00,42.1,40.8,28.88,East,90,1.1,1.1,95,0.00,,---,0.00,VWS V14.01,2013-10-04 05:16:00,
2013-10-03 22:17:00,42.1,40.8,28.88,West,270,1.3,1.3,95,0.00,,---,0.00,VWS V14.01,2013-10-04 05:17:00,
2013-10-03 22:18:00,42.1,40.8,28.88,South,180,0.9,1.6,95,0.00,,---,0.00,VWS V14.01,2013-10-04 05:18:00,
2013-10-03 22:19:00,42.1,40.8,28.85,ESE,112,1.1,1.1,95,0.00,,---,0.00,VWS V14.01,2013-10-04 05:19:00,
2013-10-03 22:20:00,42.1,40.8,28.88,ESE,112,1.1,1.1,95,0.00,,---,0.00,VWS V14.01,2013-10-04 05:20:00,
2013-10-03 22:21:00,42.1,40.8,28.85,SE,135,2.2,2.2,95,0.00,,---,0.00,VWS V14.01,2013-10-04 05:21:00,
2013-10-03 22:22:00,41.9,40.6,28.85,SE,135,0.0,0.0,95,0.00,,---,0.00,VWS V14.01,2013-10-04 05:22:00,
2013-10-03 22:23:00,41.9,40.6,28.85,SE,135,0.0,0.0,95,0.00,,---,0.00,VWS V14.01,2013-10-04 05:23:00,
2013-10-03 22:24:00,41.7,40.4,28.85,SSE,158,0.0,0.0,95,0.00,,---,0.00,VWS V14.01,2013-10-04 05:24:00,
2013-10-03 22:25:00,41.7,40.4,28.85,SSE,158,0.0,0.0,95,0.00,,---,0.00,VWS V14.01,2013-10-04 05:25:00,
2013-10-03 22:26:00,41.7,40.4,28.85,SSE,158,0.0,0.0,95,0.00,,---,0.00,VWS V14.01,2013-10-04 05:26:00,
2013-10-03 22:27:00,41.7,40.4,28.85,ENE,68,0.0,0.0,95,0.00,,---,0.00,VWS V14.01,2013-10-04 05:27:00,
2013-10-03 22:28:00,41.7,40.4,28.85,ENE,68,1.3,1.3,95,0.00,,---,0.00,VWS V14.01,2013-10-04 05:28:00,
2013-10-03 22:29:00,41.9,40.6,28.85,WNW,292,0.0,0.0,95,0.00,,---,0.00,VWS V14.01,2013-10-04 05:29:00,
2013-10-03 22:30:00,41.9,40.6,28.85,WNW,292,0.0,0.0,95,0.00,,---,0.00,VWS V14.01,2013-10-04 05:30:00,
2013-10-03 22:31:00,41.9,40.8,28.85,NNE,22,0.9,0.9,96,0.00,,---,0.00,VWS V14.01,2013-10-04 05:31:00,
2013-10-03 22:32:00,41.9,40.8,28.85,NNE,22,0.9,0.9,96,0.00,,---,0.00,VWS V14.01,2013-10-04 05:32:00,
2013-10-03 22:33:00,41.9,40.8,28.85,ESE,112,2.0,401.0,96,0.00,,---,0.00,VWS V14.01,2013-10-04 05:33:00,
2013-10-03 22:34:00,41.9,40.8,28.88,SE,135,2.2,2.2,96,0.00,,---,0.00,VWS V14.01,2013-10-04 05:34:00,
2013-10-03 22:35:00,41.7,40.7,28.88,SSE,158,2.5,2.5,96,0.00,,---,0.00,VWS V14.01,2013-10-04 05:35:00,
2013-10-03 22:36:00,41.7,40.7,28.88,South,180,2.5,2.5,96,0.00,,---,0.00,VWS V14.01,2013-10-04 05:36:00,
2013-10-03 22:37:00,41.7,40.7,28.88,South,180,2.5,2.5,96,0.00,,---,0.00,VWS V14.01,2013-10-04 05:37:00,
2013-10-03 22:38:00,41.5,40.5,28.88,SSE,158,0.0,1.3,96,0.00,,---,0.00,VWS V14.01,2013-10-04 05:38:00,
2013-10-03 22:39:00,41.5,40.5,28.88,SSW,202,1.6,1.6,96,0.00,,---,0.00,VWS V14.01,2013-10-04 05:39:00,
2013-10-03 22:40:00,41.5,40.5,28.88,South,180,0.0,0.9,96,0.00,,---,0.00,VWS V14.01,2013-10-04 05:40:00,
2013-10-03 22:41:00,41.5,40.5,28.88,South,180,0.0,0.9,96,0.00,,---,0.00,VWS V14.01,2013-10-04 05:41:00,
2013-10-03 22:42:00,41.4,40.3,28.88,South,180,0.0,0.0,96,0.00,,---,0.00,VWS V14.01,2013-10-04 05:42:00,
2013-10-03 22:43:00,41.4,40.3,28.88,South,180,0.0,0.0,96,0.00,,---,0.00,VWS V14.01,2013-10-04 05:43:00,
2013-10-03 22:44:00,41.2,40.1,28.88,South,180,0.0,0.0,96,0.00,,---,0.00,VWS V14.01,2013-10-04 05:44:00,
2013-10-03 22:45:00,41.2,40.1,28.88,South,180,2.0,2.0,96,0.00,,---,0.00,VWS V14.01,2013-10-04 05:45:00,
2013-10-03 22:46:00,41.2,40.1,28.88,SSW,202,1.3,2.0,96,0.00,,---,0.00,VWS V14.01,2013-10-04 05:46:00,
2013-10-03 22:47:00,41.2,40.1,28.88,SSW,202,1.3,1.3,96,0.00,,---,0.00,VWS V14.01,2013-10-04 05:47:00,
2013-10-03 22:48:00,41.2,40.1,28.88,SSW,202,1.3,1.3,96,0.00,,---,0.00,VWS V14.01,2013-10-04 05:48:00,
2013-10-03 22:49:00,41.2,40.1,28.88,West,270,0.0,0.0,96,0.00,,---,0.00,VWS V14.01,2013-10-04 05:49:00,
2013-10-03 22:50:00,41.2,40.1,28.88,WSW,248,0.0,0.0,96,0.00,,---,0.00,VWS V14.01,2013-10-04 05:50:00,
2013-10-03 22:51:00,41.2,40.1,28.88,SW,225,1.1,1.1,96,0.00,,---,0.00,VWS V14.01,2013-10-04 05:51:00,
2013-10-03 22:52:00,41.2,40.1,28.88,SW,225,1.6,1.6,96,0.00,,---,0.00,VWS V14.01,2013-10-04 05:52:00,
2013-10-03 22:53:00,41.2,40.1,28.88,SW,225,1.1,1.1,96,0.00,,---,0.00,VWS V14.01,2013-10-04 05:53:00,
2013-10-03 22:54:00,41.2,40.1,28.88,WNW,292,1.6,1.6,96,0.00,,---,0.00,VWS V14.01,2013-10-04 05:54:00,
2013-10-03 22:55:00,41.2,40.1,28.88,WNW,292,1.6,1.6,96,0.00,,---,0.00,VWS V14.01,2013-10-04 05:55:00,
2013-10-03 22:56:00,41.5,40.5,28.88,ESE,112,1.1,1.6,96,0.00,,---,0.00,VWS V14.01,2013-10-04 05:56:00,
2013-10-03 22:57:00,41.5,40.5,28.88,South,180,1.1,1.6,96,0.00,,---,0.00,VWS V14.01,2013-10-04 05:57:00,
2013-10-03 22:58:00,41.5,40.5,28.88,SE,135,1.6,2.2,96,0.00,,---,0.00,VWS V14.01,2013-10-04 05:58:00,
2013-10-03 22:59:00,41.5,40.8,28.88,ESE,112,1.3,1.6,97,0.00,,---,0.00,VWS V14.01,2013-10-04 05:59:00,
2013-10-03 23:00:00,41.5,40.8,28.88,South,180,0.9,1.6,97,0.00,,---,0.00,VWS V14.01,2013-10-04 06:00:00,
2013-10-03 23:01:00,41.5,40.8,28.88,ESE,112,1.3,1.6,97,0.00,,---,0.00,VWS V14.01,2013-10-04 06:01:00,
2013-10-03 23:02:00,41.5,40.8,28.88,SE,135,2.7,2.7,97,0.00,,---,0.00,VWS V14.01,2013-10-04 06:02:00,
2013-10-03 23:03:00,41.5,40.8,28.88,SE,135,2.7,2.7,97,0.00,,---,0.00,VWS V14.01,2013-10-04 06:03:00,
2013-10-03 23:04:00,41.5,40.8,28.88,SE,135,2.7,2.7,97,0.00,,---,0.00,VWS V14.01,2013-10-04 06:04:00,
2013-10-03 23:05:00,41.7,40.9,28.88,SSE,158,1.6,2.2,97,0.00,,---,0.00,VWS V14.01,2013-10-04 06:05:00,
2013-10-03 23:06:00,41.7,40.9,28.88,SE,135,2.2,2.2,97,0.00,,---,0.00,VWS V14.01,2013-10-04 06:06:00,
2013-10-03 23:07:00,41.7,40.9,28.88,South,180,0.0,2.2,97,0.00,,---,0.00,VWS V14.01,2013-10-04 06:07:00,
2013-10-03 23:08:00,41.7,40.9,28.88,South,180,0.0,2.2,97,0.00,,---,0.00,VWS V14.01,2013-10-04 06:08:00,
2013-10-03 23:09:00,41.7,40.9,28.88,SW,225,0.0,2.2,97,0.00,,---,0.00,VWS V14.01,2013-10-04 06:09:00,
2013-10-03 23:10:00,41.5,40.8,28.88,South,180,2.0,2.0,97,0.00,,---,0.00,VWS V14.01,2013-10-04 06:10:00,
2013-10-03 23:11:00,41.5,40.8,28.88,SSE,158,1.1,1.1,97,0.00,,---,0.00,VWS V14.01,2013-10-04 06:11:00,
2013-10-03 23:12:00,41.5,40.8,28.88,SSE,158,1.1,2.0,97,0.00,,---,0.00,VWS V14.01,2013-10-04 06:12:00,
2013-10-03 23:13:00,41.5,40.8,28.88,SW,225,0.0,0.0,97,0.00,,---,0.00,VWS V14.01,2013-10-04 06:13:00,
2013-10-03 23:14:00,41.5,40.8,28.88,SW,225,0.0,0.0,97,0.00,,---,0.00,VWS V14.01,2013-10-04 06:14:00,
2013-10-03 23:15:00,41.4,40.6,28.88,North,0,0.0,0.0,97,0.00,,---,0.00,VWS V14.01,2013-10-04 06:15:00,
2013-10-03 23:16:00,41.2,40.4,28.88,ESE,112,0.0,0.0,97,0.00,,---,0.00,VWS V14.01,2013-10-04 06:16:00,
2013-10-03 23:17:00,41.2,40.4,28.88,ESE,112,0.0,0.0,97,0.00,,---,0.00,VWS V14.01,2013-10-04 06:17:00,
2013-10-03 23:18:00,41.2,40.4,28.88,ESE,112,0.0,0.0,97,0.00,,---,0.00,VWS V14.01,2013-10-04 06:18:00,
2013-10-03 23:19:00,41.2,40.4,28.88,ESE,112,0.0,0.0,97,0.00,,---,0.00,VWS V14.01,2013-10-04 06:19:00,
2013-10-03 23:20:00,41.2,40.4,28.88,ESE,112,0.0,0.0,97,0.00,,---,0.00,VWS V14.01,2013-10-04 06:20:00,
2013-10-03 23:21:00,41.2,40.4,28.88,WSW,248,0.0,0.0,97,0.00,,---,0.00,VWS V14.01,2013-10-04 06:21:00,
2013-10-03 23:22:00,41.2,40.4,28.88,WSW,248,0.0,0.0,97,0.00,,---,0.00,VWS V14.01,2013-10-04 06:22:00,
2013-10-03 23:23:00,41.2,40.4,28.88,SSE,158,0.0,1.6,97,0.00,,---,0.00,VWS V14.01,2013-10-04 06:23:00,
2013-10-03 23:24:00,41.2,40.4,28.88,SSE,158,0.0,0.0,97,0.00,,---,0.00,VWS V14.01,2013-10-04 06:24:00,
2013-10-03 23:25:00,41.2,40.4,28.88,South,180,0.0,0.0,97,0.00,,---,0.00,VWS V14.01,2013-10-04 06:25:00,
2013-10-03 23:26:00,41.0,40.2,28.88,SSW,202,0.0,0.0,97,0.00,,---,0.00,VWS V14.01,2013-10-04 06:26:00,
2013-10-03 23:27:00,41.0,40.2,28.88,SSW,202,0.0,0.0,97,0.00,,---,0.00,VWS V14.01,2013-10-04 06:27:00,
2013-10-03 23:28:00,41.0,40.2,28.88,WSW,248,0.0,0.0,97,0.00,,---,0.00,VWS V14.01,2013-10-04 06:28:00,
2013-10-03 23:29:00,41.0,40.2,28.88,WSW,248,0.0,0.0,97,0.00,,---,0.00,VWS V14.01,2013-10-04 06:29:00,
2013-10-03 23:30:00,41.0,40.2,28.88,West,270,0.0,0.0,97,0.00,,---,0.00,VWS V14.01,2013-10-04 06:30:00,
2013-10-03 23:31:00,41.0,40.2,28.88,West,270,0.0,0.0,97,0.00,,---,0.00,VWS V14.01,2013-10-04 06:31:00,
2013-10-03 23:32:00,41.0,40.2,28.88,West,270,0.0,0.0,97,0.00,,---,0.00,VWS V14.01,2013-10-04 06:32:00,
2013-10-03 23:33:00,41.0,40.2,28.88,West,270,0.0,0.0,97,0.00,,---,0.00,VWS V14.01,2013-10-04 06:33:00,
2013-10-03 23:34:00,41.0,40.2,28.88,WSW,248,0.0,0.0,97,0.00,,---,0.00,VWS V14.01,2013-10-04 06:34:00,
2013-10-03 23:35:00,41.0,40.2,28.88,WSW,248,0.0,0.0,97,0.00,,---,0.00,VWS V14.01,2013-10-04 06:35:00,
2013-10-03 23:36:00,41.0,40.2,28.88,WSW,248,0.0,0.0,97,0.00,,---,0.00,VWS V14.01,2013-10-04 06:36:00,
2013-10-03 23:37:00,41.0,40.2,28.88,SE,135,0.0,0.9,97,0.00,,---,0.00,VWS V14.01,2013-10-04 06:37:00,
2013-10-03 23:38:00,41.0,40.2,28.88,SSE,158,1.3,1.3,97,0.00,,---,0.00,VWS V14.01,2013-10-04 06:38:00,
2013-10-03 23:39:00,41.0,40.2,28.88,SSE,158,0.0,1.6,97,0.00,,---,0.00,VWS V14.01,2013-10-04 06:39:00,
2013-10-03 23:40:00,41.0,40.2,28.88,South,180,0.0,1.1,97,0.00,,---,0.00,VWS V14.01,2013-10-04 06:40:00,
2013-10-03 23:41:00,41.0,40.2,28.88,SW,225,0.9,1.1,97,0.00,,---,0.00,VWS V14.01,2013-10-04 06:41:00,
2013-10-03 23:42:00,41.0,40.2,28.88,SW,225,0.0,0.0,97,0.00,,---,0.00,VWS V14.01,2013-10-04 06:42:00,
2013-10-03 23:43:00,41.0,40.2,28.88,SW,225,0.0,0.9,97,0.00,,---,0.00,VWS V14.01,2013-10-04 06:43:00,
2013-10-03 23:44:00,41.0,40.2,28.88,WSW,248,0.0,0.0,97,0.00,,---,0.00,VWS V14.01,2013-10-04 06:44:00,
2013-10-03 23:45:00,41.0,40.2,28.88,WNW,292,0.9,0.9,97,0.00,,---,0.00,VWS V14.01,2013-10-04 06:45:00,
2013-10-03 23:46:00,41.0,40.2,28.88,North,0,0.0,0.0,97,0.00,,---,0.00,VWS V14.01,2013-10-04 06:46:00,
2013-10-03 23:47:00,41.0,40.2,28.88,SSE,158,0.9,1.1,97,0.00,,---,0.00,VWS V14.01,2013-10-04 06:47:00,
2013-10-03 23:48:00,41.0,40.2,28.88,SE,135,2.2,2.2,97,0.00,,---,0.00,VWS V14.01,2013-10-04 06:48:00,
2013-10-03 23:49:00,41.0,40.2,28.88,SSE,158,0.0,2.2,97,0.00,,---,0.00,VWS V14.01,2013-10-04 06:49:00,
2013-10-03 23:50:00,41.0,40.2,28.91,SSW,202,0.9,0.9,97,0.00,,---,0.00,VWS V14.01,2013-10-04 06:50:00,
2013-10-03 23:51:00,41.0,40.2,28.91,WSW,248,0.9,0.9,97,0.00,,---,0.00,VWS V14.01,2013-10-04 06:51:00,
2013-10-03 23:52:00,41.0,40.5,28.91,West,270,0.0,0.9,98,0.00,,---,0.00,VWS V14.01,2013-10-04 06:52:00,
2013-10-03 23:53:00,41.0,40.5,28.91,WNW,292,0.0,1.3,98,0.00,,---,0.00,VWS V14.01,2013-10-04 06:53:00,
2013-10-03 23:54:00,41.0,40.5,28.91,NW,315,0.0,0.0,98,0.00,,---,0.00,VWS V14.01,2013-10-04 06:54:00,
2013-10-03 23:55:00,41.0,40.2,28.91,SSE,158,3.1,3.1,97,0.00,,---,0.00,VWS V14.01,2013-10-04 06:55:00,
2013-10-03 23:56:00,41.0,40.5,28.91,SSE,158,0.9,2.2,98,0.00,,---,0.00,VWS V14.01,2013-10-04 06:56:00,
2013-10-03 23:57:00,41.0,40.5,28.91,SSE,158,1.3,1.3,98,0.00,,---,0.00,VWS V14.01,2013-10-04 06:57:00,
2013-10-03 23:58:00,41.0,40.5,28.91,SSE,158,0.0,0.0,98,0.00,,---,0.00,VWS V14.01,2013-10-04 06:58:00,
2013-10-03 23:59:00,41.0,40.5,28.91,SSE,158,0.0,0.0,98,0.00,,---,0.00,VWS V14.01,2013-10-04 06:59:00,